<?xml version='1.0' encoding='UTF-8'?><gpx version="1.1" creator="JPX - https://github.com/jenetics/jpx" xmlns="http://www.topografix.com/GPX/1/1"><trk><trkseg><trkpt lat="45.759475" lon="8.9681583"><ele>385.00000000000006</ele><time>2026-04-03T13:55:24.749Z</time></trkpt><trkpt lat="45.7595133" lon="8.9680617"><ele>385.0</ele><time>2026-04-03T13:55:29.749Z</time></trkpt><trkpt lat="45.7595783" lon="8.9680233"><ele>385.0</ele><time>2026-04-03T13:55:32.75Z</time></trkpt><trkpt lat="45.75966" lon="8.9680033"><ele>385.0</ele><time>2026-04-03T13:55:35.75Z</time></trkpt><trkpt lat="45.7597167" lon="8.9680483"><ele>385.00000000000006</ele><time>2026-04-03T13:55:37.75Z</time></trkpt><trkpt lat="45.75976" lon="8.96814"><ele>385.0</ele><time>2026-04-03T13:55:39.75Z</time></trkpt><trkpt lat="45.7597967" lon="8.968275"><ele>384.4</ele><time>2026-04-03T13:55:41.75Z</time></trkpt><trkpt lat="45.7598283" lon="8.96843"><ele>383.8</ele><time>2026-04-03T13:55:43.751Z</time></trkpt><trkpt lat="45.7598483" lon="8.9685217"><ele>383.20000000000005</ele><time>2026-04-03T13:55:44.75Z</time></trkpt><trkpt lat="45.7598817" lon="8.9686867"><ele>382.6</ele><time>2026-04-03T13:55:46.751Z</time></trkpt><trkpt lat="45.7599217" lon="8.9688583"><ele>382.0</ele><time>2026-04-03T13:55:48.751Z</time></trkpt><trkpt lat="45.759965" lon="8.96902"><ele>382.0</ele><time>2026-04-03T13:55:50.75Z</time></trkpt><trkpt lat="45.76" lon="8.9691767"><ele>382.0</ele><time>2026-04-03T13:55:52.753Z</time></trkpt><trkpt lat="45.7600367" lon="8.9693217"><ele>382.0</ele><time>2026-04-03T13:55:54.75Z</time></trkpt><trkpt lat="45.7600233" lon="8.9694367"><ele>382.0</ele><time>2026-04-03T13:55:56.751Z</time></trkpt><trkpt lat="45.7599717" lon="8.9695167"><ele>382.0</ele><time>2026-04-03T13:55:58.751Z</time></trkpt><trkpt lat="45.7598867" lon="8.969575"><ele>381.66666666666663</ele><time>2026-04-03T13:56:00.75Z</time></trkpt><trkpt lat="45.7597883" lon="8.969605"><ele>381.3333333333333</ele><time>2026-04-03T13:56:02.75Z</time></trkpt><trkpt lat="45.7596667" lon="8.9696033"><ele>381.0</ele><time>2026-04-03T13:56:04.75Z</time></trkpt><trkpt lat="45.7596" lon="8.9696083"><ele>380.6666666666667</ele><time>2026-04-03T13:56:05.751Z</time></trkpt><trkpt lat="45.7595333" lon="8.9696117"><ele>380.33333333333337</ele><time>2026-04-03T13:56:06.752Z</time></trkpt><trkpt lat="45.759465" lon="8.9696083"><ele>380.0</ele><time>2026-04-03T13:56:07.75Z</time></trkpt><trkpt lat="45.759395" lon="8.9696067"><ele>379.5</ele><time>2026-04-03T13:56:08.752Z</time></trkpt><trkpt lat="45.759295" lon="8.9696133"><ele>379.0</ele><time>2026-04-03T13:56:10.75Z</time></trkpt><trkpt lat="45.7592583" lon="8.9696867"><ele>378.5</ele><time>2026-04-03T13:56:12.752Z</time></trkpt><trkpt lat="45.75932" lon="8.9698367"><ele>378.0</ele><time>2026-04-03T13:56:28.751Z</time></trkpt><trkpt lat="45.7593083" lon="8.9699333"><ele>377.5</ele><time>2026-04-03T13:56:30.751Z</time></trkpt><trkpt lat="45.7592533" lon="8.9700367"><ele>377.0</ele><time>2026-04-03T13:56:32.751Z</time></trkpt><trkpt lat="45.7592033" lon="8.9701717"><ele>376.20000000000005</ele><time>2026-04-03T13:56:34.752Z</time></trkpt><trkpt lat="45.7591383" lon="8.9702933"><ele>375.4</ele><time>2026-04-03T13:56:36.75Z</time></trkpt><trkpt lat="45.7590367" lon="8.9703683"><ele>374.6</ele><time>2026-04-03T13:56:38.751Z</time></trkpt><trkpt lat="45.758935" lon="8.9703817"><ele>373.79999999999995</ele><time>2026-04-03T13:56:40.751Z</time></trkpt><trkpt lat="45.7588183" lon="8.97039"><ele>373.0</ele><time>2026-04-03T13:56:42.751Z</time></trkpt><trkpt lat="45.7587033" lon="8.9704017"><ele>373.0</ele><time>2026-04-03T13:56:44.752Z</time></trkpt><trkpt lat="45.7586" lon="8.9704"><ele>373.0</ele><time>2026-04-03T13:56:46.751Z</time></trkpt><trkpt lat="45.7585017" lon="8.9704017"><ele>373.0</ele><time>2026-04-03T13:56:48.752Z</time></trkpt><trkpt lat="45.7583883" lon="8.9704283"><ele>373.0</ele><time>2026-04-03T13:56:50.752Z</time></trkpt><trkpt lat="45.7582867" lon="8.9704583"><ele>373.0</ele><time>2026-04-03T13:56:52.749Z</time></trkpt><trkpt lat="45.75818" lon="8.970505"><ele>373.0</ele><time>2026-04-03T13:56:54.751Z</time></trkpt><trkpt lat="45.758075" lon="8.9705233"><ele>373.0</ele><time>2026-04-03T13:56:56.752Z</time></trkpt><trkpt lat="45.7579917" lon="8.9705217"><ele>373.0</ele><time>2026-04-03T13:56:58.751Z</time></trkpt><trkpt lat="45.7579167" lon="8.9705433"><ele>373.0</ele><time>2026-04-03T13:57:01.752Z</time></trkpt><trkpt lat="45.7578383" lon="8.9705233"><ele>373.0</ele><time>2026-04-03T13:57:12.752Z</time></trkpt><trkpt lat="45.7577533" lon="8.9705067"><ele>373.0</ele><time>2026-04-03T13:57:14.752Z</time></trkpt><trkpt lat="45.757635" lon="8.9704867"><ele>372.16666666666663</ele><time>2026-04-03T13:57:16.751Z</time></trkpt><trkpt lat="45.7575633" lon="8.9704867"><ele>371.3333333333333</ele><time>2026-04-03T13:57:17.751Z</time></trkpt><trkpt lat="45.7574917" lon="8.9704917"><ele>370.5</ele><time>2026-04-03T13:57:18.751Z</time></trkpt><trkpt lat="45.7574267" lon="8.9704967"><ele>369.6666666666667</ele><time>2026-04-03T13:57:19.752Z</time></trkpt><trkpt lat="45.7573333" lon="8.9705317"><ele>368.83333333333337</ele><time>2026-04-03T13:57:21.752Z</time></trkpt><trkpt lat="45.75729" lon="8.9706467"><ele>368.0</ele><time>2026-04-03T13:57:23.75Z</time></trkpt><trkpt lat="45.75724" lon="8.970745"><ele>368.0</ele><time>2026-04-03T13:57:25.751Z</time></trkpt><trkpt lat="45.7571633" lon="8.9707767"><ele>368.0</ele><time>2026-04-03T13:57:27.751Z</time></trkpt><trkpt lat="45.7570933" lon="8.970765"><ele>368.0</ele><time>2026-04-03T13:57:29.751Z</time></trkpt><trkpt lat="45.757005" lon="8.9707533"><ele>368.0</ele><time>2026-04-03T13:57:31.751Z</time></trkpt><trkpt lat="45.756925" lon="8.97073"><ele>368.0</ele><time>2026-04-03T13:57:33.751Z</time></trkpt><trkpt lat="45.7568467" lon="8.9707133"><ele>368.0</ele><time>2026-04-03T13:57:35.752Z</time></trkpt><trkpt lat="45.7567617" lon="8.970695"><ele>367.1666666666667</ele><time>2026-04-03T13:57:37.75Z</time></trkpt><trkpt lat="45.7566733" lon="8.9706767"><ele>366.33333333333337</ele><time>2026-04-03T13:57:39.751Z</time></trkpt><trkpt lat="45.75659" lon="8.9706617"><ele>365.5</ele><time>2026-04-03T13:57:41.752Z</time></trkpt><trkpt lat="45.756515" lon="8.97066"><ele>364.6666666666667</ele><time>2026-04-03T13:57:43.752Z</time></trkpt><trkpt lat="45.7564367" lon="8.9706783"><ele>363.8333333333333</ele><time>2026-04-03T13:57:45.751Z</time></trkpt><trkpt lat="45.756355" lon="8.9706883"><ele>363.0</ele><time>2026-04-03T13:57:47.753Z</time></trkpt><trkpt lat="45.7562667" lon="8.9706983"><ele>363.0</ele><time>2026-04-03T13:57:49.751Z</time></trkpt><trkpt lat="45.7561867" lon="8.9707167"><ele>363.0</ele><time>2026-04-03T13:57:51.753Z</time></trkpt><trkpt lat="45.7561083" lon="8.970745"><ele>363.0</ele><time>2026-04-03T13:57:53.753Z</time></trkpt><trkpt lat="45.7560283" lon="8.970785"><ele>363.0</ele><time>2026-04-03T13:57:55.75Z</time></trkpt><trkpt lat="45.755955" lon="8.9708367"><ele>363.0</ele><time>2026-04-03T13:57:57.75Z</time></trkpt><trkpt lat="45.7559033" lon="8.97092"><ele>363.0</ele><time>2026-04-03T13:57:59.752Z</time></trkpt><trkpt lat="45.7558817" lon="8.9710317"><ele>363.2</ele><time>2026-04-03T13:58:01.751Z</time></trkpt><trkpt lat="45.7558667" lon="8.971165"><ele>363.4</ele><time>2026-04-03T13:58:03.751Z</time></trkpt><trkpt lat="45.755855" lon="8.9713033"><ele>363.59999999999997</ele><time>2026-04-03T13:58:05.752Z</time></trkpt><trkpt lat="45.7558433" lon="8.97145"><ele>363.79999999999995</ele><time>2026-04-03T13:58:07.752Z</time></trkpt><trkpt lat="45.7558483" lon="8.9715833"><ele>364.0</ele><time>2026-04-03T13:58:09.751Z</time></trkpt><trkpt lat="45.7558433" lon="8.9717083"><ele>364.4</ele><time>2026-04-03T13:58:11.752Z</time></trkpt><trkpt lat="45.7558467" lon="8.97185"><ele>364.79999999999995</ele><time>2026-04-03T13:58:13.751Z</time></trkpt><trkpt lat="45.7558617" lon="8.9719867"><ele>365.20000000000005</ele><time>2026-04-03T13:58:15.752Z</time></trkpt><trkpt lat="45.7558767" lon="8.97212"><ele>365.6</ele><time>2026-04-03T13:58:17.752Z</time></trkpt><trkpt lat="45.7558817" lon="8.9722483"><ele>366.0</ele><time>2026-04-03T13:58:19.752Z</time></trkpt><trkpt lat="45.7559017" lon="8.9723617"><ele>366.0</ele><time>2026-04-03T13:58:21.752Z</time></trkpt><trkpt lat="45.7559133" lon="8.972465"><ele>366.0</ele><time>2026-04-03T13:58:23.753Z</time></trkpt><trkpt lat="45.7559183" lon="8.9725617"><ele>366.0</ele><time>2026-04-03T13:58:25.751Z</time></trkpt><trkpt lat="45.7559383" lon="8.9726917"><ele>366.0</ele><time>2026-04-03T13:58:28.751Z</time></trkpt><trkpt lat="45.7559433" lon="8.972805"><ele>366.0</ele><time>2026-04-03T13:58:31.75Z</time></trkpt><trkpt lat="45.7559367" lon="8.972915"><ele>366.0</ele><time>2026-04-03T13:58:35.751Z</time></trkpt><trkpt lat="45.7559167" lon="8.9730117"><ele>366.6666666666667</ele><time>2026-04-03T13:58:38.752Z</time></trkpt><trkpt lat="45.7559383" lon="8.9731017"><ele>367.3333333333333</ele><time>2026-04-03T13:58:40.751Z</time></trkpt><trkpt lat="45.7559833" lon="8.9731867"><ele>368.0</ele><time>2026-04-03T13:58:42.752Z</time></trkpt><trkpt lat="45.7560417" lon="8.9732683"><ele>368.66666666666663</ele><time>2026-04-03T13:58:44.751Z</time></trkpt><trkpt lat="45.7560933" lon="8.9733667"><ele>369.3333333333333</ele><time>2026-04-03T13:58:46.751Z</time></trkpt><trkpt lat="45.75614" lon="8.97347"><ele>370.0</ele><time>2026-04-03T13:58:48.753Z</time></trkpt><trkpt lat="45.7561817" lon="8.973575"><ele>370.0</ele><time>2026-04-03T13:58:50.753Z</time></trkpt><trkpt lat="45.7562167" lon="8.97368"><ele>370.0</ele><time>2026-04-03T13:58:52.753Z</time></trkpt><trkpt lat="45.7562517" lon="8.9737783"><ele>370.0</ele><time>2026-04-03T13:58:54.751Z</time></trkpt><trkpt lat="45.7562817" lon="8.9738783"><ele>370.0</ele><time>2026-04-03T13:58:56.751Z</time></trkpt><trkpt lat="45.75632" lon="8.9739767"><ele>370.0</ele><time>2026-04-03T13:58:58.751Z</time></trkpt><trkpt lat="45.7563567" lon="8.9740683"><ele>370.0</ele><time>2026-04-03T13:59:00.751Z</time></trkpt><trkpt lat="45.7563883" lon="8.9741683"><ele>370.3333333333333</ele><time>2026-04-03T13:59:02.752Z</time></trkpt><trkpt lat="45.7564217" lon="8.9742667"><ele>370.66666666666663</ele><time>2026-04-03T13:59:04.752Z</time></trkpt><trkpt lat="45.75645" lon="8.9743683"><ele>371.0</ele><time>2026-04-03T13:59:06.751Z</time></trkpt><trkpt lat="45.75648" lon="8.97447"><ele>371.3333333333333</ele><time>2026-04-03T13:59:08.752Z</time></trkpt><trkpt lat="45.7564933" lon="8.97458"><ele>371.6666666666667</ele><time>2026-04-03T13:59:10.752Z</time></trkpt><trkpt lat="45.75649" lon="8.9746967"><ele>372.0</ele><time>2026-04-03T13:59:12.752Z</time></trkpt><trkpt lat="45.756485" lon="8.9748067"><ele>372.0</ele><time>2026-04-03T13:59:14.752Z</time></trkpt><trkpt lat="45.7564717" lon="8.9749183"><ele>372.0</ele><time>2026-04-03T13:59:16.751Z</time></trkpt><trkpt lat="45.7564433" lon="8.9750233"><ele>372.0</ele><time>2026-04-03T13:59:18.752Z</time></trkpt><trkpt lat="45.7564067" lon="8.97513"><ele>372.0</ele><time>2026-04-03T13:59:20.753Z</time></trkpt><trkpt lat="45.75637" lon="8.975245"><ele>372.0</ele><time>2026-04-03T13:59:22.751Z</time></trkpt><trkpt lat="45.756335" lon="8.9753483"><ele>372.0</ele><time>2026-04-03T13:59:24.751Z</time></trkpt><trkpt lat="45.7562933" lon="8.9754467"><ele>372.1666666666667</ele><time>2026-04-03T13:59:26.751Z</time></trkpt><trkpt lat="45.756255" lon="8.9755433"><ele>372.3333333333333</ele><time>2026-04-03T13:59:28.751Z</time></trkpt><trkpt lat="45.756215" lon="8.9756433"><ele>372.5</ele><time>2026-04-03T13:59:30.751Z</time></trkpt><trkpt lat="45.7561767" lon="8.9757517"><ele>372.66666666666663</ele><time>2026-04-03T13:59:32.751Z</time></trkpt><trkpt lat="45.756145" lon="8.9758583"><ele>372.8333333333333</ele><time>2026-04-03T13:59:34.75Z</time></trkpt><trkpt lat="45.7561267" lon="8.9759767"><ele>373.0</ele><time>2026-04-03T13:59:36.751Z</time></trkpt><trkpt lat="45.7561067" lon="8.9760983"><ele>373.0</ele><time>2026-04-03T13:59:38.751Z</time></trkpt><trkpt lat="45.756095" lon="8.976235"><ele>373.0</ele><time>2026-04-03T13:59:40.752Z</time></trkpt><trkpt lat="45.756095" lon="8.976375"><ele>373.0</ele><time>2026-04-03T13:59:42.751Z</time></trkpt><trkpt lat="45.756095" lon="8.9765183"><ele>373.0</ele><time>2026-04-03T13:59:44.75Z</time></trkpt><trkpt lat="45.7561033" lon="8.97667"><ele>373.0</ele><time>2026-04-03T13:59:46.751Z</time></trkpt><trkpt lat="45.7561" lon="8.9768267"><ele>372.66666666666663</ele><time>2026-04-03T13:59:48.751Z</time></trkpt><trkpt lat="45.7560683" lon="8.9769867"><ele>372.3333333333333</ele><time>2026-04-03T13:59:50.751Z</time></trkpt><trkpt lat="45.7560383" lon="8.9770683"><ele>372.0</ele><time>2026-04-03T13:59:51.752Z</time></trkpt><trkpt lat="45.756" lon="8.9771483"><ele>371.6666666666667</ele><time>2026-04-03T13:59:52.751Z</time></trkpt><trkpt lat="45.7559533" lon="8.977225"><ele>371.33333333333337</ele><time>2026-04-03T13:59:53.751Z</time></trkpt><trkpt lat="45.7559" lon="8.977295"><ele>371.0</ele><time>2026-04-03T13:59:54.751Z</time></trkpt><trkpt lat="45.7558517" lon="8.9773633"><ele>370.1666666666667</ele><time>2026-04-03T13:59:55.749Z</time></trkpt><trkpt lat="45.7557817" lon="8.9774867"><ele>369.33333333333337</ele><time>2026-04-03T13:59:57.75Z</time></trkpt><trkpt lat="45.755775" lon="8.9776333"><ele>368.5</ele><time>2026-04-03T13:59:59.752Z</time></trkpt><trkpt lat="45.7557967" lon="8.9777233"><ele>367.6666666666667</ele><time>2026-04-03T14:00:00.751Z</time></trkpt><trkpt lat="45.7558033" lon="8.977815"><ele>366.8333333333333</ele><time>2026-04-03T14:00:01.751Z</time></trkpt><trkpt lat="45.75581" lon="8.97791"><ele>366.0</ele><time>2026-04-03T14:00:02.751Z</time></trkpt><trkpt lat="45.7558117" lon="8.9780183"><ele>365.5</ele><time>2026-04-03T14:00:03.75Z</time></trkpt><trkpt lat="45.7558133" lon="8.9781283"><ele>365.0</ele><time>2026-04-03T14:00:04.752Z</time></trkpt><trkpt lat="45.75581" lon="8.9782417"><ele>364.5</ele><time>2026-04-03T14:00:05.752Z</time></trkpt><trkpt lat="45.755805" lon="8.9783567"><ele>364.0</ele><time>2026-04-03T14:00:06.753Z</time></trkpt><trkpt lat="45.7558017" lon="8.978475"><ele>363.5</ele><time>2026-04-03T14:00:07.75Z</time></trkpt><trkpt lat="45.7557967" lon="8.978595"><ele>363.0</ele><time>2026-04-03T14:00:08.752Z</time></trkpt><trkpt lat="45.7557917" lon="8.9787133"><ele>362.5</ele><time>2026-04-03T14:00:09.752Z</time></trkpt><trkpt lat="45.7557833" lon="8.9788333"><ele>362.0</ele><time>2026-04-03T14:00:10.752Z</time></trkpt><trkpt lat="45.755775" lon="8.9789483"><ele>361.5</ele><time>2026-04-03T14:00:11.75Z</time></trkpt><trkpt lat="45.7557667" lon="8.9790667"><ele>361.0</ele><time>2026-04-03T14:00:12.75Z</time></trkpt><trkpt lat="45.75576" lon="8.979185"><ele>360.5</ele><time>2026-04-03T14:00:13.751Z</time></trkpt><trkpt lat="45.7557533" lon="8.9793033"><ele>360.0</ele><time>2026-04-03T14:00:14.751Z</time></trkpt><trkpt lat="45.75575" lon="8.97942"><ele>359.5</ele><time>2026-04-03T14:00:15.752Z</time></trkpt><trkpt lat="45.7557467" lon="8.9795317"><ele>359.0</ele><time>2026-04-03T14:00:16.751Z</time></trkpt><trkpt lat="45.7557433" lon="8.9796433"><ele>358.5</ele><time>2026-04-03T14:00:17.749Z</time></trkpt><trkpt lat="45.7557433" lon="8.9797583"><ele>358.0</ele><time>2026-04-03T14:00:18.751Z</time></trkpt><trkpt lat="45.7557433" lon="8.9798683"><ele>357.5</ele><time>2026-04-03T14:00:19.751Z</time></trkpt><trkpt lat="45.75574" lon="8.9799817"><ele>357.0</ele><time>2026-04-03T14:00:20.751Z</time></trkpt><trkpt lat="45.755735" lon="8.9800883"><ele>356.85714285714283</ele><time>2026-04-03T14:00:21.751Z</time></trkpt><trkpt lat="45.7557333" lon="8.980195"><ele>356.7142857142857</ele><time>2026-04-03T14:00:22.75Z</time></trkpt><trkpt lat="45.7557367" lon="8.9803017"><ele>356.57142857142856</ele><time>2026-04-03T14:00:23.751Z</time></trkpt><trkpt lat="45.7557383" lon="8.9804067"><ele>356.42857142857144</ele><time>2026-04-03T14:00:24.752Z</time></trkpt><trkpt lat="45.7557417" lon="8.9805083"><ele>356.2857142857143</ele><time>2026-04-03T14:00:25.75Z</time></trkpt><trkpt lat="45.755745" lon="8.9806133"><ele>356.1428571428571</ele><time>2026-04-03T14:00:26.752Z</time></trkpt><trkpt lat="45.75575" lon="8.9807183"><ele>356.0</ele><time>2026-04-03T14:00:27.751Z</time></trkpt><trkpt lat="45.755755" lon="8.9808217"><ele>356.1428571428571</ele><time>2026-04-03T14:00:28.751Z</time></trkpt><trkpt lat="45.755755" lon="8.9809233"><ele>356.2857142857143</ele><time>2026-04-03T14:00:29.752Z</time></trkpt><trkpt lat="45.7557583" lon="8.9810217"><ele>356.42857142857144</ele><time>2026-04-03T14:00:30.751Z</time></trkpt><trkpt lat="45.755765" lon="8.98112"><ele>356.57142857142856</ele><time>2026-04-03T14:00:31.754Z</time></trkpt><trkpt lat="45.7557733" lon="8.9812183"><ele>356.7142857142857</ele><time>2026-04-03T14:00:32.755Z</time></trkpt><trkpt lat="45.7557783" lon="8.9813133"><ele>356.85714285714283</ele><time>2026-04-03T14:00:33.75Z</time></trkpt><trkpt lat="45.755785" lon="8.9814067"><ele>357.0</ele><time>2026-04-03T14:00:34.752Z</time></trkpt><trkpt lat="45.75579" lon="8.9815017"><ele>357.0</ele><time>2026-04-03T14:00:35.753Z</time></trkpt><trkpt lat="45.7557967" lon="8.981595"><ele>357.0</ele><time>2026-04-03T14:00:36.753Z</time></trkpt><trkpt lat="45.755805" lon="8.9816867"><ele>357.0</ele><time>2026-04-03T14:00:37.751Z</time></trkpt><trkpt lat="45.7558083" lon="8.9817817"><ele>357.0</ele><time>2026-04-03T14:00:38.751Z</time></trkpt><trkpt lat="45.7558117" lon="8.9818767"><ele>357.0</ele><time>2026-04-03T14:00:39.751Z</time></trkpt><trkpt lat="45.7558167" lon="8.9819733"><ele>357.0</ele><time>2026-04-03T14:00:40.752Z</time></trkpt><trkpt lat="45.7558167" lon="8.9820767"><ele>357.0</ele><time>2026-04-03T14:00:41.753Z</time></trkpt><trkpt lat="45.7558167" lon="8.98218"><ele>356.7142857142857</ele><time>2026-04-03T14:00:42.751Z</time></trkpt><trkpt lat="45.7558233" lon="8.9822833"><ele>356.42857142857144</ele><time>2026-04-03T14:00:43.751Z</time></trkpt><trkpt lat="45.7558283" lon="8.9823817"><ele>356.1428571428571</ele><time>2026-04-03T14:00:44.751Z</time></trkpt><trkpt lat="45.755835" lon="8.9824767"><ele>355.8571428571429</ele><time>2026-04-03T14:00:45.749Z</time></trkpt><trkpt lat="45.7558417" lon="8.9825667"><ele>355.57142857142856</ele><time>2026-04-03T14:00:46.749Z</time></trkpt><trkpt lat="45.755845" lon="8.9827"><ele>355.2857142857143</ele><time>2026-04-03T14:00:48.75Z</time></trkpt><trkpt lat="45.7558717" lon="8.9827933"><ele>355.0</ele><time>2026-04-03T14:00:50.751Z</time></trkpt><trkpt lat="45.75596" lon="8.9828367"><ele>354.6</ele><time>2026-04-03T14:00:53.75Z</time></trkpt><trkpt lat="45.7560533" lon="8.9828367"><ele>354.2</ele><time>2026-04-03T14:00:55.751Z</time></trkpt><trkpt lat="45.7561433" lon="8.982865"><ele>353.79999999999995</ele><time>2026-04-03T14:00:57.75Z</time></trkpt><trkpt lat="45.7562433" lon="8.9829133"><ele>353.4</ele><time>2026-04-03T14:00:59.752Z</time></trkpt><trkpt lat="45.7563367" lon="8.9829867"><ele>353.0</ele><time>2026-04-03T14:01:01.752Z</time></trkpt><trkpt lat="45.7564233" lon="8.98309"><ele>353.0</ele><time>2026-04-03T14:01:03.752Z</time></trkpt><trkpt lat="45.75649" lon="8.9832017"><ele>353.0</ele><time>2026-04-03T14:01:05.753Z</time></trkpt><trkpt lat="45.7565383" lon="8.9833233"><ele>353.0</ele><time>2026-04-03T14:01:07.752Z</time></trkpt><trkpt lat="45.756585" lon="8.9834533"><ele>353.0</ele><time>2026-04-03T14:01:09.752Z</time></trkpt><trkpt lat="45.7566367" lon="8.9835633"><ele>353.0</ele><time>2026-04-03T14:01:11.751Z</time></trkpt><trkpt lat="45.756675" lon="8.98364"><ele>352.57142857142856</ele><time>2026-04-03T14:01:14.752Z</time></trkpt><trkpt lat="45.7567267" lon="8.9835867"><ele>352.14285714285717</ele><time>2026-04-03T14:01:17.752Z</time></trkpt><trkpt lat="45.7567983" lon="8.9835467"><ele>351.7142857142857</ele><time>2026-04-03T14:01:22.751Z</time></trkpt><trkpt lat="45.7568617" lon="8.9835283"><ele>351.2857142857143</ele><time>2026-04-03T14:01:24.752Z</time></trkpt><trkpt lat="45.7569367" lon="8.9835017"><ele>350.8571428571429</ele><time>2026-04-03T14:01:26.752Z</time></trkpt><trkpt lat="45.7570217" lon="8.983465"><ele>350.42857142857144</ele><time>2026-04-03T14:01:29.753Z</time></trkpt><trkpt lat="45.757085" lon="8.9834417"><ele>350.0</ele><time>2026-04-03T14:01:31.753Z</time></trkpt><trkpt lat="45.7571517" lon="8.983405"><ele>349.7142857142857</ele><time>2026-04-03T14:01:33.751Z</time></trkpt><trkpt lat="45.7572233" lon="8.98336"><ele>349.42857142857144</ele><time>2026-04-03T14:01:36.752Z</time></trkpt><trkpt lat="45.757285" lon="8.983335"><ele>349.1428571428571</ele><time>2026-04-03T14:01:38.753Z</time></trkpt><trkpt lat="45.75735" lon="8.9833083"><ele>348.8571428571429</ele><time>2026-04-03T14:01:40.751Z</time></trkpt><trkpt lat="45.7574283" lon="8.9832717"><ele>348.57142857142856</ele><time>2026-04-03T14:01:43.749Z</time></trkpt><trkpt lat="45.7575067" lon="8.9832533"><ele>348.2857142857143</ele><time>2026-04-03T14:01:46.751Z</time></trkpt><trkpt lat="45.7575817" lon="8.9832417"><ele>348.0</ele><time>2026-04-03T14:01:49.75Z</time></trkpt><trkpt lat="45.7576533" lon="8.9831983"><ele>349.2</ele><time>2026-04-03T14:01:52.749Z</time></trkpt><trkpt lat="45.75775" lon="8.9830883"><ele>350.4</ele><time>2026-04-03T14:02:02.752Z</time></trkpt><trkpt lat="45.757815" lon="8.983065"><ele>351.59999999999997</ele><time>2026-04-03T14:02:09.75Z</time></trkpt><trkpt lat="45.757895" lon="8.9831167"><ele>352.79999999999995</ele><time>2026-04-03T14:02:15.751Z</time></trkpt><trkpt lat="45.758" lon="8.9830533"><ele>354.0</ele><time>2026-04-03T14:02:27.752Z</time></trkpt><trkpt lat="45.7580633" lon="8.9830317"><ele>354.0</ele><time>2026-04-03T14:02:30.751Z</time></trkpt><trkpt lat="45.75813" lon="8.9829983"><ele>354.0</ele><time>2026-04-03T14:02:33.75Z</time></trkpt><trkpt lat="45.7582167" lon="8.9829583"><ele>354.0</ele><time>2026-04-03T14:02:36.75Z</time></trkpt><trkpt lat="45.7582767" lon="8.9829267"><ele>354.0</ele><time>2026-04-03T14:02:38.752Z</time></trkpt><trkpt lat="45.758345" lon="8.98289"><ele>354.0</ele><time>2026-04-03T14:02:40.753Z</time></trkpt><trkpt lat="45.7584217" lon="8.98286"><ele>354.0</ele><time>2026-04-03T14:02:43.753Z</time></trkpt><trkpt lat="45.7584833" lon="8.9828367"><ele>354.0</ele><time>2026-04-03T14:02:45.753Z</time></trkpt><trkpt lat="45.7585517" lon="8.9828117"><ele>353.5</ele><time>2026-04-03T14:02:47.752Z</time></trkpt><trkpt lat="45.7586417" lon="8.9827967"><ele>353.0</ele><time>2026-04-03T14:02:50.751Z</time></trkpt><trkpt lat="45.7587117" lon="8.9827917"><ele>352.5</ele><time>2026-04-03T14:02:52.751Z</time></trkpt><trkpt lat="45.7587767" lon="8.9827867"><ele>352.0</ele><time>2026-04-03T14:02:54.751Z</time></trkpt><trkpt lat="45.758845" lon="8.9827917"><ele>351.5</ele><time>2026-04-03T14:02:56.751Z</time></trkpt><trkpt lat="45.75892" lon="8.9828067"><ele>351.0</ele><time>2026-04-03T14:02:58.75Z</time></trkpt><trkpt lat="45.7590067" lon="8.9828167"><ele>351.0</ele><time>2026-04-03T14:03:00.751Z</time></trkpt><trkpt lat="45.75909" lon="8.9828183"><ele>351.0</ele><time>2026-04-03T14:03:02.754Z</time></trkpt><trkpt lat="45.7591633" lon="8.9828217"><ele>351.0</ele><time>2026-04-03T14:03:04.751Z</time></trkpt><trkpt lat="45.7592433" lon="8.9828333"><ele>351.0</ele><time>2026-04-03T14:03:06.751Z</time></trkpt><trkpt lat="45.7593083" lon="8.9828567"><ele>351.0</ele><time>2026-04-03T14:03:08.751Z</time></trkpt><trkpt lat="45.759405" lon="8.9828867"><ele>351.0</ele><time>2026-04-03T14:03:10.752Z</time></trkpt><trkpt lat="45.7595" lon="8.9829433"><ele>351.0</ele><time>2026-04-03T14:03:12.751Z</time></trkpt><trkpt lat="45.7595983" lon="8.9830383"><ele>351.0</ele><time>2026-04-03T14:03:14.752Z</time></trkpt><trkpt lat="45.7596517" lon="8.983095"><ele>351.0</ele><time>2026-04-03T14:03:15.751Z</time></trkpt><trkpt lat="45.7597317" lon="8.9831933"><ele>351.0</ele><time>2026-04-03T14:03:17.751Z</time></trkpt><trkpt lat="45.7598133" lon="8.983275"><ele>351.0</ele><time>2026-04-03T14:03:19.751Z</time></trkpt><trkpt lat="45.7598733" lon="8.9833433"><ele>350.3333333333333</ele><time>2026-04-03T14:03:21.754Z</time></trkpt><trkpt lat="45.7599383" lon="8.9834217"><ele>349.6666666666667</ele><time>2026-04-03T14:03:23.751Z</time></trkpt><trkpt lat="45.7599867" lon="8.9835183"><ele>349.0</ele><time>2026-04-03T14:03:25.752Z</time></trkpt><trkpt lat="45.76004" lon="8.9836167"><ele>348.33333333333337</ele><time>2026-04-03T14:03:27.753Z</time></trkpt><trkpt lat="45.7600733" lon="8.9837167"><ele>347.6666666666667</ele><time>2026-04-03T14:03:29.75Z</time></trkpt><trkpt lat="45.7601217" lon="8.983825"><ele>347.0</ele><time>2026-04-03T14:03:32.753Z</time></trkpt><trkpt lat="45.7601533" lon="8.98391"><ele>346.40000000000003</ele><time>2026-04-03T14:03:34.752Z</time></trkpt><trkpt lat="45.7602117" lon="8.984025"><ele>345.8</ele><time>2026-04-03T14:03:36.753Z</time></trkpt><trkpt lat="45.76029" lon="8.9841467"><ele>345.2</ele><time>2026-04-03T14:03:38.752Z</time></trkpt><trkpt lat="45.760355" lon="8.9841967"><ele>344.6</ele><time>2026-04-03T14:03:40.751Z</time></trkpt><trkpt lat="45.760435" lon="8.984115"><ele>344.0</ele><time>2026-04-03T14:03:43.751Z</time></trkpt><trkpt lat="45.76049" lon="8.98406"><ele>344.0</ele><time>2026-04-03T14:03:45.751Z</time></trkpt><trkpt lat="45.76055" lon="8.98401"><ele>344.0</ele><time>2026-04-03T14:03:47.751Z</time></trkpt><trkpt lat="45.7606183" lon="8.9839467"><ele>344.0</ele><time>2026-04-03T14:03:49.753Z</time></trkpt><trkpt lat="45.7606967" lon="8.9838767"><ele>344.0</ele><time>2026-04-03T14:03:51.752Z</time></trkpt><trkpt lat="45.7607683" lon="8.98382"><ele>344.0</ele><time>2026-04-03T14:03:53.752Z</time></trkpt><trkpt lat="45.7608317" lon="8.9837683"><ele>344.0</ele><time>2026-04-03T14:03:55.752Z</time></trkpt><trkpt lat="45.7609" lon="8.983695"><ele>344.00000000000006</ele><time>2026-04-03T14:03:58.751Z</time></trkpt><trkpt lat="45.7609633" lon="8.9836167"><ele>344.0</ele><time>2026-04-03T14:04:01.751Z</time></trkpt><trkpt lat="45.761015" lon="8.9835617"><ele>344.0</ele><time>2026-04-03T14:04:03.752Z</time></trkpt><trkpt lat="45.7610767" lon="8.9834967"><ele>344.0</ele><time>2026-04-03T14:04:05.75Z</time></trkpt><trkpt lat="45.7611367" lon="8.9834167"><ele>344.0</ele><time>2026-04-03T14:04:07.751Z</time></trkpt><trkpt lat="45.7611933" lon="8.9833533"><ele>344.00000000000006</ele><time>2026-04-03T14:04:09.75Z</time></trkpt><trkpt lat="45.7612483" lon="8.9832983"><ele>344.0</ele><time>2026-04-03T14:04:11.75Z</time></trkpt><trkpt lat="45.7613183" lon="8.9832283"><ele>345.8571428571429</ele><time>2026-04-03T14:04:14.75Z</time></trkpt><trkpt lat="45.7613583" lon="8.9831417"><ele>347.7142857142857</ele><time>2026-04-03T14:04:17.751Z</time></trkpt><trkpt lat="45.7614133" lon="8.9830717"><ele>349.57142857142856</ele><time>2026-04-03T14:04:21.752Z</time></trkpt><trkpt lat="45.76146" lon="8.9829833"><ele>351.42857142857144</ele><time>2026-04-03T14:04:24.753Z</time></trkpt><trkpt lat="45.761475" lon="8.98289"><ele>353.2857142857143</ele><time>2026-04-03T14:04:27.752Z</time></trkpt><trkpt lat="45.761485" lon="8.982795"><ele>355.14285714285717</ele><time>2026-04-03T14:04:30.751Z</time></trkpt><trkpt lat="45.7614883" lon="8.98269"><ele>357.0</ele><time>2026-04-03T14:04:33.75Z</time></trkpt><trkpt lat="45.7614967" lon="8.982595"><ele>357.57142857142856</ele><time>2026-04-03T14:04:36.751Z</time></trkpt><trkpt lat="45.761535" lon="8.98251"><ele>358.1428571428571</ele><time>2026-04-03T14:04:40.75Z</time></trkpt><trkpt lat="45.7615633" lon="8.9824267"><ele>358.7142857142857</ele><time>2026-04-03T14:04:44.754Z</time></trkpt><trkpt lat="45.7615983" lon="8.9823117"><ele>359.2857142857143</ele><time>2026-04-03T14:04:48.752Z</time></trkpt><trkpt lat="45.7616467" lon="8.9822417"><ele>359.85714285714283</ele><time>2026-04-03T14:04:51.751Z</time></trkpt><trkpt lat="45.7617067" lon="8.9821883"><ele>360.42857142857144</ele><time>2026-04-03T14:04:54.751Z</time></trkpt><trkpt lat="45.76175" lon="8.9821033"><ele>361.0</ele><time>2026-04-03T14:04:58.751Z</time></trkpt><trkpt lat="45.76179" lon="8.9820033"><ele>361.0</ele><time>2026-04-03T14:05:01.751Z</time></trkpt><trkpt lat="45.7618233" lon="8.9819083"><ele>361.0</ele><time>2026-04-03T14:05:04.752Z</time></trkpt><trkpt lat="45.7618483" lon="8.9818133"><ele>361.0</ele><time>2026-04-03T14:05:07.751Z</time></trkpt><trkpt lat="45.7618717" lon="8.9817217"><ele>361.0</ele><time>2026-04-03T14:05:10.752Z</time></trkpt><trkpt lat="45.7618783" lon="8.9816283"><ele>361.0</ele><time>2026-04-03T14:05:13.751Z</time></trkpt><trkpt lat="45.76191" lon="8.9815233"><ele>361.0</ele><time>2026-04-03T14:05:17.753Z</time></trkpt><trkpt lat="45.7619533" lon="8.981435"><ele>361.0</ele><time>2026-04-03T14:05:21.751Z</time></trkpt><trkpt lat="45.76196" lon="8.9813417"><ele>361.7142857142857</ele><time>2026-04-03T14:05:25.754Z</time></trkpt><trkpt lat="45.7620033" lon="8.9812467"><ele>362.4285714285714</ele><time>2026-04-03T14:05:29.751Z</time></trkpt><trkpt lat="45.762045" lon="8.98114"><ele>363.1428571428571</ele><time>2026-04-03T14:05:33.751Z</time></trkpt><trkpt lat="45.7620767" lon="8.9810517"><ele>363.8571428571429</ele><time>2026-04-03T14:05:38.752Z</time></trkpt><trkpt lat="45.762095" lon="8.9809633"><ele>364.57142857142856</ele><time>2026-04-03T14:05:42.751Z</time></trkpt><trkpt lat="45.76213" lon="8.9808817"><ele>365.2857142857143</ele><time>2026-04-03T14:05:46.751Z</time></trkpt><trkpt lat="45.7621417" lon="8.9807717"><ele>366.0</ele><time>2026-04-03T14:05:51.752Z</time></trkpt><trkpt lat="45.7621283" lon="8.980665"><ele>366.57142857142856</ele><time>2026-04-03T14:05:55.752Z</time></trkpt><trkpt lat="45.7621283" lon="8.9805717"><ele>367.14285714285717</ele><time>2026-04-03T14:05:59.75Z</time></trkpt><trkpt lat="45.7621483" lon="8.98048"><ele>367.71428571428567</ele><time>2026-04-03T14:06:02.752Z</time></trkpt><trkpt lat="45.7621817" lon="8.980375"><ele>368.2857142857143</ele><time>2026-04-03T14:06:06.751Z</time></trkpt><trkpt lat="45.7621917" lon="8.9802783"><ele>368.85714285714283</ele><time>2026-04-03T14:06:09.752Z</time></trkpt><trkpt lat="45.7621983" lon="8.9801767"><ele>369.4285714285714</ele><time>2026-04-03T14:06:12.751Z</time></trkpt><trkpt lat="45.7622033" lon="8.9800833"><ele>370.0</ele><time>2026-04-03T14:06:15.752Z</time></trkpt><trkpt lat="45.7622183" lon="8.9799683"><ele>369.99999999999994</ele><time>2026-04-03T14:06:18.751Z</time></trkpt><trkpt lat="45.7622283" lon="8.9798683"><ele>370.0</ele><time>2026-04-03T14:06:21.751Z</time></trkpt><trkpt lat="45.7622417" lon="8.979775"><ele>370.0</ele><time>2026-04-03T14:06:24.752Z</time></trkpt><trkpt lat="45.7621667" lon="8.9797217"><ele>370.0</ele><time>2026-04-03T14:06:28.752Z</time></trkpt><trkpt lat="45.7621033" lon="8.97974"><ele>370.0</ele><time>2026-04-03T14:06:30.752Z</time></trkpt><trkpt lat="45.7620333" lon="8.9797433"><ele>369.99999999999994</ele><time>2026-04-03T14:06:32.752Z</time></trkpt><trkpt lat="45.761965" lon="8.9797367"><ele>370.0</ele><time>2026-04-03T14:06:34.752Z</time></trkpt><trkpt lat="45.761895" lon="8.97972"><ele>370.16666666666663</ele><time>2026-04-03T14:06:36.753Z</time></trkpt><trkpt lat="45.7618233" lon="8.979715"><ele>370.3333333333333</ele><time>2026-04-03T14:06:38.755Z</time></trkpt><trkpt lat="45.7617467" lon="8.9797067"><ele>370.5</ele><time>2026-04-03T14:06:40.752Z</time></trkpt><trkpt lat="45.76167" lon="8.9797117"><ele>370.6666666666667</ele><time>2026-04-03T14:06:42.752Z</time></trkpt><trkpt lat="45.761595" lon="8.9797317"><ele>370.83333333333337</ele><time>2026-04-03T14:06:44.751Z</time></trkpt><trkpt lat="45.76152" lon="8.979745"><ele>371.0</ele><time>2026-04-03T14:06:46.751Z</time></trkpt><trkpt lat="45.761435" lon="8.979765"><ele>371.0</ele><time>2026-04-03T14:06:48.751Z</time></trkpt><trkpt lat="45.761345" lon="8.9797633"><ele>371.0</ele><time>2026-04-03T14:06:50.751Z</time></trkpt><trkpt lat="45.7612567" lon="8.9797433"><ele>371.0</ele><time>2026-04-03T14:06:52.752Z</time></trkpt><trkpt lat="45.76117" lon="8.9797583"><ele>371.0</ele><time>2026-04-03T14:06:54.751Z</time></trkpt><trkpt lat="45.76109" lon="8.9797683"><ele>371.0</ele><time>2026-04-03T14:06:56.752Z</time></trkpt><trkpt lat="45.7610067" lon="8.9797483"><ele>371.0</ele><time>2026-04-03T14:06:58.751Z</time></trkpt><trkpt lat="45.7609217" lon="8.97974"><ele>370.6666666666667</ele><time>2026-04-03T14:07:00.752Z</time></trkpt><trkpt lat="45.7608433" lon="8.9797283"><ele>370.33333333333337</ele><time>2026-04-03T14:07:02.753Z</time></trkpt><trkpt lat="45.76076" lon="8.9797033"><ele>370.0</ele><time>2026-04-03T14:07:04.751Z</time></trkpt><trkpt lat="45.7606733" lon="8.9796867"><ele>369.6666666666667</ele><time>2026-04-03T14:07:06.753Z</time></trkpt><trkpt lat="45.7606" lon="8.9796867"><ele>369.3333333333333</ele><time>2026-04-03T14:07:08.752Z</time></trkpt><trkpt lat="45.7605117" lon="8.9796733"><ele>369.0</ele><time>2026-04-03T14:07:11.751Z</time></trkpt><trkpt lat="45.7604467" lon="8.9796783"><ele>369.0</ele><time>2026-04-03T14:07:13.753Z</time></trkpt><trkpt lat="45.7603767" lon="8.9796617"><ele>369.0</ele><time>2026-04-03T14:07:15.752Z</time></trkpt><trkpt lat="45.7603383" lon="8.9795683"><ele>369.0</ele><time>2026-04-03T14:07:18.753Z</time></trkpt><trkpt lat="45.760315" lon="8.97948"><ele>369.0</ele><time>2026-04-03T14:07:20.752Z</time></trkpt><trkpt lat="45.7603183" lon="8.9793467"><ele>369.0</ele><time>2026-04-03T14:07:23.752Z</time></trkpt><trkpt lat="45.760325" lon="8.9792417"><ele>369.0</ele><time>2026-04-03T14:07:26.754Z</time></trkpt><trkpt lat="45.7603533" lon="8.9791433"><ele>369.8333333333333</ele><time>2026-04-03T14:07:29.752Z</time></trkpt><trkpt lat="45.7603733" lon="8.9790483"><ele>370.6666666666667</ele><time>2026-04-03T14:07:32.754Z</time></trkpt><trkpt lat="45.760385" lon="8.978945"><ele>371.5</ele><time>2026-04-03T14:07:35.754Z</time></trkpt><trkpt lat="45.7604133" lon="8.97883"><ele>372.33333333333337</ele><time>2026-04-03T14:07:39.751Z</time></trkpt><trkpt lat="45.7604767" lon="8.9787483"><ele>373.1666666666667</ele><time>2026-04-03T14:07:43.752Z</time></trkpt><trkpt lat="45.7605567" lon="8.9786867"><ele>374.0</ele><time>2026-04-03T14:07:46.752Z</time></trkpt><trkpt lat="45.76065" lon="8.97861"><ele>374.0</ele><time>2026-04-03T14:07:49.753Z</time></trkpt><trkpt lat="45.760725" lon="8.9785767"><ele>374.0</ele><time>2026-04-03T14:07:51.751Z</time></trkpt><trkpt lat="45.760795" lon="8.978535"><ele>374.0</ele><time>2026-04-03T14:07:53.752Z</time></trkpt><trkpt lat="45.7608667" lon="8.9784567"><ele>374.0</ele><time>2026-04-03T14:07:56.751Z</time></trkpt><trkpt lat="45.7609467" lon="8.9784"><ele>374.0</ele><time>2026-04-03T14:07:58.752Z</time></trkpt><trkpt lat="45.7610167" lon="8.978315"><ele>374.0</ele><time>2026-04-03T14:08:01.751Z</time></trkpt><trkpt lat="45.7610733" lon="8.9782733"><ele>372.85714285714283</ele><time>2026-04-03T14:08:03.752Z</time></trkpt><trkpt lat="45.76115" lon="8.9782383"><ele>371.7142857142857</ele><time>2026-04-03T14:08:05.754Z</time></trkpt><trkpt lat="45.7612117" lon="8.97819"><ele>370.57142857142856</ele><time>2026-04-03T14:08:07.751Z</time></trkpt><trkpt lat="45.761275" lon="8.9781433"><ele>369.42857142857144</ele><time>2026-04-03T14:08:09.75Z</time></trkpt><trkpt lat="45.7613333" lon="8.9780917"><ele>368.28571428571433</ele><time>2026-04-03T14:08:11.751Z</time></trkpt><trkpt lat="45.7613917" lon="8.97803"><ele>367.14285714285717</ele><time>2026-04-03T14:08:13.751Z</time></trkpt><trkpt lat="45.7614567" lon="8.977975"><ele>366.0</ele><time>2026-04-03T14:08:15.752Z</time></trkpt><trkpt lat="45.7615383" lon="8.9779217"><ele>366.0</ele><time>2026-04-03T14:08:18.752Z</time></trkpt><trkpt lat="45.7616217" lon="8.977865"><ele>366.0</ele><time>2026-04-03T14:08:21.752Z</time></trkpt><trkpt lat="45.761675" lon="8.9778033"><ele>366.0</ele><time>2026-04-03T14:08:23.753Z</time></trkpt><trkpt lat="45.7617383" lon="8.9777433"><ele>366.0</ele><time>2026-04-03T14:08:25.75Z</time></trkpt><trkpt lat="45.7618017" lon="8.9776867"><ele>366.0</ele><time>2026-04-03T14:08:27.751Z</time></trkpt><trkpt lat="45.7618767" lon="8.9776367"><ele>366.0</ele><time>2026-04-03T14:08:29.75Z</time></trkpt><trkpt lat="45.7619417" lon="8.9775767"><ele>367.1666666666667</ele><time>2026-04-03T14:08:31.751Z</time></trkpt><trkpt lat="45.7620117" lon="8.9775117"><ele>368.3333333333333</ele><time>2026-04-03T14:08:33.752Z</time></trkpt><trkpt lat="45.7620767" lon="8.9774533"><ele>369.5</ele><time>2026-04-03T14:08:35.75Z</time></trkpt><trkpt lat="45.76214" lon="8.9773917"><ele>370.66666666666663</ele><time>2026-04-03T14:08:37.751Z</time></trkpt><trkpt lat="45.7622" lon="8.9773617"><ele>371.8333333333333</ele><time>2026-04-03T14:08:39.751Z</time></trkpt><trkpt lat="45.762275" lon="8.9773483"><ele>373.0</ele><time>2026-04-03T14:08:41.751Z</time></trkpt><trkpt lat="45.7623517" lon="8.9773367"><ele>373.0</ele><time>2026-04-03T14:08:43.752Z</time></trkpt><trkpt lat="45.7624167" lon="8.97733"><ele>373.0</ele><time>2026-04-03T14:08:45.751Z</time></trkpt><trkpt lat="45.762485" lon="8.97733"><ele>373.0</ele><time>2026-04-03T14:08:47.753Z</time></trkpt><trkpt lat="45.7625567" lon="8.9773583"><ele>373.0</ele><time>2026-04-03T14:08:49.751Z</time></trkpt><trkpt lat="45.7626067" lon="8.977415"><ele>373.0</ele><time>2026-04-03T14:08:51.751Z</time></trkpt><trkpt lat="45.762595" lon="8.9775167"><ele>373.0</ele><time>2026-04-03T14:08:53.751Z</time></trkpt><trkpt lat="45.7625583" lon="8.9776183"><ele>373.0</ele><time>2026-04-03T14:08:55.752Z</time></trkpt><trkpt lat="45.76253" lon="8.977725"><ele>372.0</ele><time>2026-04-03T14:08:57.75Z</time></trkpt><trkpt lat="45.7625033" lon="8.9778367"><ele>371.0</ele><time>2026-04-03T14:08:59.753Z</time></trkpt><trkpt lat="45.7624833" lon="8.977945"><ele>370.0</ele><time>2026-04-03T14:09:01.751Z</time></trkpt><trkpt lat="45.76247" lon="8.9780633"><ele>369.0</ele><time>2026-04-03T14:09:03.753Z</time></trkpt><trkpt lat="45.7624533" lon="8.978185"><ele>368.0</ele><time>2026-04-03T14:09:05.753Z</time></trkpt><trkpt lat="45.7624417" lon="8.978295"><ele>367.0</ele><time>2026-04-03T14:09:07.752Z</time></trkpt><trkpt lat="45.76247" lon="8.9784017"><ele>366.8333333333333</ele><time>2026-04-03T14:09:10.752Z</time></trkpt><trkpt lat="45.76254" lon="8.9784117"><ele>366.66666666666663</ele><time>2026-04-03T14:09:12.752Z</time></trkpt><trkpt lat="45.76261" lon="8.97839"><ele>366.5</ele><time>2026-04-03T14:09:14.753Z</time></trkpt><trkpt lat="45.7627033" lon="8.9783817"><ele>366.3333333333333</ele><time>2026-04-03T14:09:17.751Z</time></trkpt><trkpt lat="45.762775" lon="8.9783967"><ele>366.1666666666667</ele><time>2026-04-03T14:09:19.751Z</time></trkpt><trkpt lat="45.762855" lon="8.9784117"><ele>366.0</ele><time>2026-04-03T14:09:21.754Z</time></trkpt><trkpt lat="45.7629183" lon="8.9784217"><ele>367.0</ele><time>2026-04-03T14:09:23.752Z</time></trkpt><trkpt lat="45.763005" lon="8.97844"><ele>368.0</ele><time>2026-04-03T14:09:26.753Z</time></trkpt><trkpt lat="45.7630833" lon="8.9784417"><ele>369.0</ele><time>2026-04-03T14:09:28.753Z</time></trkpt><trkpt lat="45.763155" lon="8.9784433"><ele>370.0</ele><time>2026-04-03T14:09:30.752Z</time></trkpt><trkpt lat="45.7632383" lon="8.97844"><ele>371.0</ele><time>2026-04-03T14:09:32.753Z</time></trkpt><trkpt lat="45.76332" lon="8.9784317"><ele>372.0</ele><time>2026-04-03T14:09:34.754Z</time></trkpt><trkpt lat="45.7634067" lon="8.978425"><ele>372.0</ele><time>2026-04-03T14:09:36.753Z</time></trkpt><trkpt lat="45.7634933" lon="8.9784167"><ele>372.0</ele><time>2026-04-03T14:09:38.753Z</time></trkpt><trkpt lat="45.763565" lon="8.9784217"><ele>372.0</ele><time>2026-04-03T14:09:40.752Z</time></trkpt><trkpt lat="45.76363" lon="8.9784167"><ele>372.0</ele><time>2026-04-03T14:09:42.753Z</time></trkpt><trkpt lat="45.7636967" lon="8.9783867"><ele>372.0</ele><time>2026-04-03T14:09:44.754Z</time></trkpt><trkpt lat="45.7637583" lon="8.97836"><ele>372.0</ele><time>2026-04-03T14:09:46.752Z</time></trkpt><trkpt lat="45.7638533" lon="8.9783633"><ele>372.5</ele><time>2026-04-03T14:09:49.752Z</time></trkpt><trkpt lat="45.7639317" lon="8.978395"><ele>373.0</ele><time>2026-04-03T14:09:51.752Z</time></trkpt><trkpt lat="45.7640167" lon="8.9784233"><ele>373.5</ele><time>2026-04-03T14:09:53.752Z</time></trkpt><trkpt lat="45.7641" lon="8.9784367"><ele>374.0</ele><time>2026-04-03T14:09:55.752Z</time></trkpt><trkpt lat="45.764175" lon="8.97846"><ele>374.5</ele><time>2026-04-03T14:09:57.752Z</time></trkpt><trkpt lat="45.7642567" lon="8.9784767"><ele>375.0</ele><time>2026-04-03T14:09:59.752Z</time></trkpt><trkpt lat="45.7643317" lon="8.9784867"><ele>375.5</ele><time>2026-04-03T14:10:01.753Z</time></trkpt><trkpt lat="45.7644067" lon="8.9784967"><ele>376.0</ele><time>2026-04-03T14:10:03.753Z</time></trkpt><trkpt lat="45.7644867" lon="8.9785133"><ele>376.5</ele><time>2026-04-03T14:10:05.753Z</time></trkpt><trkpt lat="45.7645833" lon="8.97852"><ele>377.0</ele><time>2026-04-03T14:10:07.753Z</time></trkpt><trkpt lat="45.7646767" lon="8.97852"><ele>377.5</ele><time>2026-04-03T14:10:09.75Z</time></trkpt><trkpt lat="45.76477" lon="8.9784833"><ele>378.0</ele><time>2026-04-03T14:10:11.751Z</time></trkpt><trkpt lat="45.7648567" lon="8.9784117"><ele>377.8333333333333</ele><time>2026-04-03T14:10:13.749Z</time></trkpt><trkpt lat="45.7649217" lon="8.9783383"><ele>377.6666666666667</ele><time>2026-04-03T14:10:15.75Z</time></trkpt><trkpt lat="45.7649867" lon="8.9782583"><ele>377.5</ele><time>2026-04-03T14:10:18.752Z</time></trkpt><trkpt lat="45.7650417" lon="8.97816"><ele>377.33333333333337</ele><time>2026-04-03T14:10:22.75Z</time></trkpt><trkpt lat="45.76508" lon="8.97805"><ele>377.1666666666667</ele><time>2026-04-03T14:10:25.75Z</time></trkpt><trkpt lat="45.7651233" lon="8.9779767"><ele>377.0</ele><time>2026-04-03T14:10:27.751Z</time></trkpt><trkpt lat="45.7651833" lon="8.97792"><ele>377.57142857142856</ele><time>2026-04-03T14:10:29.75Z</time></trkpt><trkpt lat="45.7652483" lon="8.9778933"><ele>378.1428571428571</ele><time>2026-04-03T14:10:31.751Z</time></trkpt><trkpt lat="45.765325" lon="8.97786"><ele>378.71428571428567</ele><time>2026-04-03T14:10:34.752Z</time></trkpt><trkpt lat="45.76538" lon="8.9778067"><ele>379.2857142857143</ele><time>2026-04-03T14:10:36.751Z</time></trkpt><trkpt lat="45.765445" lon="8.9777283"><ele>379.8571428571429</ele><time>2026-04-03T14:10:39.751Z</time></trkpt><trkpt lat="45.7654833" lon="8.9776383"><ele>380.4285714285714</ele><time>2026-04-03T14:10:42.75Z</time></trkpt><trkpt lat="45.7655317" lon="8.97758"><ele>381.0</ele><time>2026-04-03T14:10:45.751Z</time></trkpt><trkpt lat="45.7655867" lon="8.9775283"><ele>381.1666666666667</ele><time>2026-04-03T14:10:48.752Z</time></trkpt><trkpt lat="45.765665" lon="8.97748"><ele>381.3333333333333</ele><time>2026-04-03T14:10:51.751Z</time></trkpt><trkpt lat="45.765725" lon="8.977425"><ele>381.5</ele><time>2026-04-03T14:10:54.751Z</time></trkpt><trkpt lat="45.7658083" lon="8.9773517"><ele>381.66666666666663</ele><time>2026-04-03T14:10:57.75Z</time></trkpt><trkpt lat="45.7658683" lon="8.9772783"><ele>381.8333333333333</ele><time>2026-04-03T14:11:00.751Z</time></trkpt><trkpt lat="45.765935" lon="8.9772417"><ele>382.0</ele><time>2026-04-03T14:11:03.75Z</time></trkpt><trkpt lat="45.766005" lon="8.9772033"><ele>383.0</ele><time>2026-04-03T14:11:07.75Z</time></trkpt><trkpt lat="45.7660817" lon="8.9771533"><ele>384.0</ele><time>2026-04-03T14:11:11.751Z</time></trkpt><trkpt lat="45.7661517" lon="8.9771183"><ele>385.0</ele><time>2026-04-03T14:11:14.752Z</time></trkpt><trkpt lat="45.7662167" lon="8.977075"><ele>386.0</ele><time>2026-04-03T14:11:17.752Z</time></trkpt><trkpt lat="45.766295" lon="8.9770417"><ele>387.00000000000006</ele><time>2026-04-03T14:11:20.753Z</time></trkpt><trkpt lat="45.7663683" lon="8.977005"><ele>388.0</ele><time>2026-04-03T14:11:23.752Z</time></trkpt><trkpt lat="45.7664383" lon="8.9769483"><ele>388.00000000000006</ele><time>2026-04-03T14:11:26.752Z</time></trkpt><trkpt lat="45.7664967" lon="8.97689"><ele>388.0</ele><time>2026-04-03T14:11:29.751Z</time></trkpt><trkpt lat="45.7665517" lon="8.97684"><ele>388.0</ele><time>2026-04-03T14:11:33.751Z</time></trkpt><trkpt lat="45.7666433" lon="8.9768517"><ele>388.0</ele><time>2026-04-03T14:11:40.75Z</time></trkpt><trkpt lat="45.766745" lon="8.976845"><ele>388.00000000000006</ele><time>2026-04-03T14:11:43.75Z</time></trkpt><trkpt lat="45.76681" lon="8.97685"><ele>388.0</ele><time>2026-04-03T14:11:45.75Z</time></trkpt><trkpt lat="45.7668733" lon="8.9768683"><ele>388.0</ele><time>2026-04-03T14:11:47.751Z</time></trkpt><trkpt lat="45.7669483" lon="8.9769533"><ele>388.0</ele><time>2026-04-03T14:11:50.751Z</time></trkpt><trkpt lat="45.767" lon="8.9770567"><ele>388.0</ele><time>2026-04-03T14:11:52.749Z</time></trkpt><trkpt lat="45.7670583" lon="8.9771783"><ele>388.0</ele><time>2026-04-03T14:11:54.751Z</time></trkpt><trkpt lat="45.767115" lon="8.977285"><ele>388.0</ele><time>2026-04-03T14:11:56.752Z</time></trkpt><trkpt lat="45.76717" lon="8.9773917"><ele>388.0</ele><time>2026-04-03T14:11:58.75Z</time></trkpt><trkpt lat="45.76721" lon="8.9774817"><ele>388.0</ele><time>2026-04-03T14:12:00.751Z</time></trkpt><trkpt lat="45.7672633" lon="8.97754"><ele>388.0</ele><time>2026-04-03T14:12:02.752Z</time></trkpt><trkpt lat="45.767325" lon="8.9775767"><ele>388.0</ele><time>2026-04-03T14:12:04.751Z</time></trkpt><trkpt lat="45.7673783" lon="8.9776467"><ele>388.0</ele><time>2026-04-03T14:12:06.751Z</time></trkpt><trkpt lat="45.7673683" lon="8.97774"><ele>388.0</ele><time>2026-04-03T14:12:08.751Z</time></trkpt><trkpt lat="45.767315" lon="8.9777983"><ele>388.0</ele><time>2026-04-03T14:12:10.751Z</time></trkpt><trkpt lat="45.767255" lon="8.9778533"><ele>386.33333333333337</ele><time>2026-04-03T14:12:12.75Z</time></trkpt><trkpt lat="45.76718" lon="8.9779367"><ele>384.6666666666667</ele><time>2026-04-03T14:12:15.751Z</time></trkpt><trkpt lat="45.76713" lon="8.9780267"><ele>383.0</ele><time>2026-04-03T14:12:18.753Z</time></trkpt><trkpt lat="45.7671067" lon="8.9781433"><ele>381.33333333333337</ele><time>2026-04-03T14:12:21.752Z</time></trkpt><trkpt lat="45.767085" lon="8.9782633"><ele>379.6666666666667</ele><time>2026-04-03T14:12:24.75Z</time></trkpt><trkpt lat="45.7670733" lon="8.97838"><ele>378.0</ele><time>2026-04-03T14:12:26.75Z</time></trkpt><trkpt lat="45.76706" lon="8.9784983"><ele>377.1666666666667</ele><time>2026-04-03T14:12:28.751Z</time></trkpt><trkpt lat="45.7670633" lon="8.978625"><ele>376.3333333333333</ele><time>2026-04-03T14:12:30.752Z</time></trkpt><trkpt lat="45.76708" lon="8.9787367"><ele>375.5</ele><time>2026-04-03T14:12:32.751Z</time></trkpt><trkpt lat="45.7671133" lon="8.9788517"><ele>374.66666666666663</ele><time>2026-04-03T14:12:34.751Z</time></trkpt><trkpt lat="45.7671533" lon="8.9789683"><ele>373.8333333333333</ele><time>2026-04-03T14:12:36.751Z</time></trkpt><trkpt lat="45.7671867" lon="8.97908"><ele>373.0</ele><time>2026-04-03T14:12:38.75Z</time></trkpt><trkpt lat="45.767215" lon="8.9792133"><ele>372.8333333333333</ele><time>2026-04-03T14:12:40.75Z</time></trkpt><trkpt lat="45.7672533" lon="8.9793733"><ele>372.66666666666663</ele><time>2026-04-03T14:12:42.749Z</time></trkpt><trkpt lat="45.7672783" lon="8.9794983"><ele>372.5</ele><time>2026-04-03T14:12:44.751Z</time></trkpt><trkpt lat="45.767315" lon="8.9796333"><ele>372.3333333333333</ele><time>2026-04-03T14:12:46.75Z</time></trkpt><trkpt lat="45.767315" lon="8.9797267"><ele>372.1666666666667</ele><time>2026-04-03T14:12:48.75Z</time></trkpt><trkpt lat="45.76728" lon="8.9798067"><ele>372.0</ele><time>2026-04-03T14:12:50.75Z</time></trkpt><trkpt lat="45.7672317" lon="8.9799017"><ele>372.0</ele><time>2026-04-03T14:12:52.75Z</time></trkpt><trkpt lat="45.76716" lon="8.979945"><ele>372.0</ele><time>2026-04-03T14:12:54.75Z</time></trkpt><trkpt lat="45.7670933" lon="8.9799617"><ele>372.0</ele><time>2026-04-03T14:12:56.75Z</time></trkpt><trkpt lat="45.7670033" lon="8.9799983"><ele>372.0</ele><time>2026-04-03T14:12:59.749Z</time></trkpt><trkpt lat="45.7669267" lon="8.9800117"><ele>372.0</ele><time>2026-04-03T14:13:01.75Z</time></trkpt><trkpt lat="45.7668367" lon="8.979985"><ele>372.0</ele><time>2026-04-03T14:13:04.751Z</time></trkpt><trkpt lat="45.7667467" lon="8.9799417"><ele>373.1666666666667</ele><time>2026-04-03T14:13:07.751Z</time></trkpt><trkpt lat="45.7666833" lon="8.97991"><ele>374.3333333333333</ele><time>2026-04-03T14:13:09.75Z</time></trkpt><trkpt lat="45.7666017" lon="8.979855"><ele>375.5</ele><time>2026-04-03T14:13:12.75Z</time></trkpt><trkpt lat="45.7665167" lon="8.979805"><ele>376.66666666666663</ele><time>2026-04-03T14:13:15.752Z</time></trkpt><trkpt lat="45.7664283" lon="8.9797867"><ele>377.8333333333333</ele><time>2026-04-03T14:13:18.75Z</time></trkpt><trkpt lat="45.7663567" lon="8.9797617"><ele>379.0</ele><time>2026-04-03T14:13:20.751Z</time></trkpt><trkpt lat="45.7662783" lon="8.9797117"><ele>379.0</ele><time>2026-04-03T14:13:23.75Z</time></trkpt><trkpt lat="45.7661917" lon="8.9796683"><ele>379.0</ele><time>2026-04-03T14:13:26.752Z</time></trkpt><trkpt lat="45.7661067" lon="8.9796333"><ele>379.0</ele><time>2026-04-03T14:13:29.751Z</time></trkpt><trkpt lat="45.7660367" lon="8.9795817"><ele>379.0</ele><time>2026-04-03T14:13:32.751Z</time></trkpt><trkpt lat="45.7659717" lon="8.9795717"><ele>379.0</ele><time>2026-04-03T14:13:34.751Z</time></trkpt><trkpt lat="45.7658917" lon="8.979595"><ele>379.0</ele><time>2026-04-03T14:13:36.75Z</time></trkpt><trkpt lat="45.7658183" lon="8.97961"><ele>378.5</ele><time>2026-04-03T14:13:38.752Z</time></trkpt><trkpt lat="45.7657433" lon="8.9796"><ele>378.0</ele><time>2026-04-03T14:13:40.75Z</time></trkpt><trkpt lat="45.7656683" lon="8.9795983"><ele>377.5</ele><time>2026-04-03T14:13:42.75Z</time></trkpt><trkpt lat="45.7655883" lon="8.9795817"><ele>377.0</ele><time>2026-04-03T14:13:44.751Z</time></trkpt><trkpt lat="45.765515" lon="8.9795633"><ele>376.5</ele><time>2026-04-03T14:13:46.75Z</time></trkpt><trkpt lat="45.765435" lon="8.97957"><ele>376.0</ele><time>2026-04-03T14:13:48.751Z</time></trkpt><trkpt lat="45.7653567" lon="8.97957"><ele>376.0</ele><time>2026-04-03T14:13:50.751Z</time></trkpt><trkpt lat="45.7652867" lon="8.979575"><ele>376.0</ele><time>2026-04-03T14:13:52.75Z</time></trkpt><trkpt lat="45.76522" lon="8.979585"><ele>376.0</ele><time>2026-04-03T14:13:54.75Z</time></trkpt><trkpt lat="45.76515" lon="8.9795967"><ele>376.0</ele><time>2026-04-03T14:13:56.751Z</time></trkpt><trkpt lat="45.7650833" lon="8.97962"><ele>376.0</ele><time>2026-04-03T14:13:59.75Z</time></trkpt><trkpt lat="45.7650083" lon="8.979625"><ele>376.0</ele><time>2026-04-03T14:14:02.75Z</time></trkpt><trkpt lat="45.7649183" lon="8.9796267"><ele>376.0</ele><time>2026-04-03T14:14:05.75Z</time></trkpt><trkpt lat="45.7647883" lon="8.9796317"><ele>376.0</ele><time>2026-04-03T14:14:41.751Z</time></trkpt><trkpt lat="45.7646967" lon="8.979635"><ele>376.0</ele><time>2026-04-03T14:14:44.752Z</time></trkpt><trkpt lat="45.7646067" lon="8.9796367"><ele>376.0</ele><time>2026-04-03T14:14:47.752Z</time></trkpt><trkpt lat="45.7645117" lon="8.9796367"><ele>376.0</ele><time>2026-04-03T14:14:50.751Z</time></trkpt><trkpt lat="45.7644417" lon="8.9796517"><ele>376.0</ele><time>2026-04-03T14:14:52.751Z</time></trkpt><trkpt lat="45.7643433" lon="8.9796517"><ele>376.0</ele><time>2026-04-03T14:14:55.75Z</time></trkpt><trkpt lat="45.7642767" lon="8.97964"><ele>376.16666666666663</ele><time>2026-04-03T14:14:57.751Z</time></trkpt><trkpt lat="45.7642017" lon="8.979625"><ele>376.3333333333333</ele><time>2026-04-03T14:14:59.752Z</time></trkpt><trkpt lat="45.7641217" lon="8.9796183"><ele>376.5</ele><time>2026-04-03T14:15:01.751Z</time></trkpt><trkpt lat="45.7640467" lon="8.9796517"><ele>376.6666666666667</ele><time>2026-04-03T14:15:03.75Z</time></trkpt><trkpt lat="45.764" lon="8.9797367"><ele>376.83333333333337</ele><time>2026-04-03T14:15:05.751Z</time></trkpt><trkpt lat="45.7639483" lon="8.9798217"><ele>377.0</ele><time>2026-04-03T14:15:07.751Z</time></trkpt><trkpt lat="45.7638883" lon="8.9798917"><ele>377.0</ele><time>2026-04-03T14:15:09.752Z</time></trkpt><trkpt lat="45.7638483" lon="8.9799833"><ele>377.0</ele><time>2026-04-03T14:15:11.751Z</time></trkpt><trkpt lat="45.7638267" lon="8.9800783"><ele>377.0</ele><time>2026-04-03T14:15:13.751Z</time></trkpt><trkpt lat="45.76382" lon="8.980215"><ele>377.0</ele><time>2026-04-03T14:15:16.752Z</time></trkpt><trkpt lat="45.7637917" lon="8.9803117"><ele>377.0</ele><time>2026-04-03T14:15:18.751Z</time></trkpt><trkpt lat="45.7637517" lon="8.9804033"><ele>377.0</ele><time>2026-04-03T14:15:20.752Z</time></trkpt><trkpt lat="45.7637117" lon="8.9805033"><ele>377.0</ele><time>2026-04-03T14:15:22.751Z</time></trkpt><trkpt lat="45.76367" lon="8.98063"><ele>377.0</ele><time>2026-04-03T14:15:24.753Z</time></trkpt><trkpt lat="45.7636633" lon="8.9807583"><ele>377.0</ele><time>2026-04-03T14:15:26.751Z</time></trkpt><trkpt lat="45.76368" lon="8.9808733"><ele>377.0</ele><time>2026-04-03T14:15:28.751Z</time></trkpt><trkpt lat="45.7637" lon="8.98099"><ele>377.0</ele><time>2026-04-03T14:15:30.752Z</time></trkpt><trkpt lat="45.763725" lon="8.9811217"><ele>377.0</ele><time>2026-04-03T14:15:32.752Z</time></trkpt><trkpt lat="45.7637583" lon="8.9812517"><ele>376.0</ele><time>2026-04-03T14:15:34.751Z</time></trkpt><trkpt lat="45.7637883" lon="8.9813467"><ele>375.0</ele><time>2026-04-03T14:15:36.752Z</time></trkpt><trkpt lat="45.7637983" lon="8.9814533"><ele>374.0</ele><time>2026-04-03T14:15:39.752Z</time></trkpt><trkpt lat="45.7638233" lon="8.9815483"><ele>373.0</ele><time>2026-04-03T14:15:41.752Z</time></trkpt><trkpt lat="45.7638633" lon="8.98165"><ele>372.0</ele><time>2026-04-03T14:15:43.751Z</time></trkpt><trkpt lat="45.7639367" lon="8.9817417"><ele>371.0</ele><time>2026-04-03T14:15:45.751Z</time></trkpt><trkpt lat="45.7639667" lon="8.9818267"><ele>369.83333333333337</ele><time>2026-04-03T14:15:48.751Z</time></trkpt><trkpt lat="45.76392" lon="8.981915"><ele>368.6666666666667</ele><time>2026-04-03T14:15:53.752Z</time></trkpt><trkpt lat="45.7638333" lon="8.98195"><ele>367.5</ele><time>2026-04-03T14:15:56.751Z</time></trkpt><trkpt lat="45.7637733" lon="8.98199"><ele>366.3333333333333</ele><time>2026-04-03T14:15:58.752Z</time></trkpt><trkpt lat="45.7636467" lon="8.9821083"><ele>365.16666666666663</ele><time>2026-04-03T14:16:19.753Z</time></trkpt><trkpt lat="45.7635933" lon="8.9821567"><ele>364.0</ele><time>2026-04-03T14:16:21.752Z</time></trkpt><trkpt lat="45.76351" lon="8.98219"><ele>363.16666666666663</ele><time>2026-04-03T14:16:24.752Z</time></trkpt><trkpt lat="45.7634383" lon="8.982195"><ele>362.3333333333333</ele><time>2026-04-03T14:16:26.751Z</time></trkpt><trkpt lat="45.76337" lon="8.9821983"><ele>361.5</ele><time>2026-04-03T14:16:28.752Z</time></trkpt><trkpt lat="45.7633117" lon="8.982245"><ele>360.6666666666667</ele><time>2026-04-03T14:16:30.751Z</time></trkpt><trkpt lat="45.7632617" lon="8.9823367"><ele>359.83333333333337</ele><time>2026-04-03T14:16:32.752Z</time></trkpt><trkpt lat="45.7632283" lon="8.9824517"><ele>359.0</ele><time>2026-04-03T14:16:34.75Z</time></trkpt><trkpt lat="45.763185" lon="8.9825633"><ele>358.33333333333337</ele><time>2026-04-03T14:16:36.752Z</time></trkpt><trkpt lat="45.76314" lon="8.9826483"><ele>357.6666666666667</ele><time>2026-04-03T14:16:38.752Z</time></trkpt><trkpt lat="45.7630967" lon="8.9827383"><ele>357.0</ele><time>2026-04-03T14:16:40.751Z</time></trkpt><trkpt lat="45.7630667" lon="8.9828233"><ele>356.3333333333333</ele><time>2026-04-03T14:16:42.751Z</time></trkpt><trkpt lat="45.7630467" lon="8.98292"><ele>355.66666666666663</ele><time>2026-04-03T14:16:44.752Z</time></trkpt><trkpt lat="45.7630567" lon="8.9830617"><ele>355.0</ele><time>2026-04-03T14:16:47.752Z</time></trkpt><trkpt lat="45.7631033" lon="8.9831983"><ele>355.0</ele><time>2026-04-03T14:16:49.752Z</time></trkpt><trkpt lat="45.7631617" lon="8.98326"><ele>355.0</ele><time>2026-04-03T14:16:51.75Z</time></trkpt><trkpt lat="45.7632067" lon="8.983345"><ele>355.0</ele><time>2026-04-03T14:16:53.751Z</time></trkpt><trkpt lat="45.763255" lon="8.983425"><ele>355.0</ele><time>2026-04-03T14:16:56.753Z</time></trkpt><trkpt lat="45.763305" lon="8.9834917"><ele>355.0</ele><time>2026-04-03T14:16:59.75Z</time></trkpt><trkpt lat="45.7633517" lon="8.9835733"><ele>355.0</ele><time>2026-04-03T14:17:01.751Z</time></trkpt><trkpt lat="45.763375" lon="8.983685"><ele>355.0</ele><time>2026-04-03T14:17:03.751Z</time></trkpt><trkpt lat="45.7633717" lon="8.9838067"><ele>354.57142857142856</ele><time>2026-04-03T14:17:05.751Z</time></trkpt><trkpt lat="45.76337" lon="8.983915"><ele>354.14285714285717</ele><time>2026-04-03T14:17:07.753Z</time></trkpt><trkpt lat="45.7634283" lon="8.983965"><ele>353.7142857142857</ele><time>2026-04-03T14:17:10.752Z</time></trkpt><trkpt lat="45.7635" lon="8.983935"><ele>353.2857142857143</ele><time>2026-04-03T14:17:13.753Z</time></trkpt><trkpt lat="45.76358" lon="8.9839233"><ele>352.85714285714283</ele><time>2026-04-03T14:17:16.751Z</time></trkpt><trkpt lat="45.7636483" lon="8.9839267"><ele>352.42857142857144</ele><time>2026-04-03T14:17:18.753Z</time></trkpt><trkpt lat="45.7637117" lon="8.9839317"><ele>352.0</ele><time>2026-04-03T14:17:20.753Z</time></trkpt><trkpt lat="45.7638" lon="8.983955"><ele>351.8571428571429</ele><time>2026-04-03T14:17:23.753Z</time></trkpt><trkpt lat="45.7638617" lon="8.983975"><ele>351.7142857142857</ele><time>2026-04-03T14:17:25.751Z</time></trkpt><trkpt lat="45.7639367" lon="8.984"><ele>351.57142857142856</ele><time>2026-04-03T14:17:27.751Z</time></trkpt><trkpt lat="45.7640083" lon="8.9840133"><ele>351.42857142857144</ele><time>2026-04-03T14:17:29.751Z</time></trkpt><trkpt lat="45.7640817" lon="8.9840267"><ele>351.2857142857143</ele><time>2026-04-03T14:17:31.752Z</time></trkpt><trkpt lat="45.76416" lon="8.984045"><ele>351.14285714285717</ele><time>2026-04-03T14:17:33.751Z</time></trkpt><trkpt lat="45.7642417" lon="8.98405"><ele>351.0</ele><time>2026-04-03T14:17:35.751Z</time></trkpt><trkpt lat="45.764325" lon="8.9840533"><ele>351.5</ele><time>2026-04-03T14:17:37.751Z</time></trkpt><trkpt lat="45.7644017" lon="8.9840583"><ele>352.0</ele><time>2026-04-03T14:17:39.752Z</time></trkpt><trkpt lat="45.7644867" lon="8.98405"><ele>352.5</ele><time>2026-04-03T14:17:42.752Z</time></trkpt><trkpt lat="45.76456" lon="8.9840633"><ele>353.0</ele><time>2026-04-03T14:17:45.751Z</time></trkpt><trkpt lat="45.7646617" lon="8.9840533"><ele>353.5</ele><time>2026-04-03T14:18:03.753Z</time></trkpt><trkpt lat="45.764725" lon="8.9840633"><ele>354.0</ele><time>2026-04-03T14:18:06.753Z</time></trkpt><trkpt lat="45.76479" lon="8.9840583"><ele>354.0</ele><time>2026-04-03T14:18:08.753Z</time></trkpt><trkpt lat="45.76486" lon="8.98405"><ele>354.0</ele><time>2026-04-03T14:18:10.751Z</time></trkpt><trkpt lat="45.76493" lon="8.98406"><ele>354.0</ele><time>2026-04-03T14:18:12.752Z</time></trkpt><trkpt lat="45.7650017" lon="8.9840433"><ele>354.0</ele><time>2026-04-03T14:18:14.751Z</time></trkpt><trkpt lat="45.7650683" lon="8.9840383"><ele>354.0</ele><time>2026-04-03T14:18:16.751Z</time></trkpt><trkpt lat="45.76514" lon="8.9840367"><ele>354.0</ele><time>2026-04-03T14:18:18.751Z</time></trkpt><trkpt lat="45.7652083" lon="8.9840367"><ele>354.0</ele><time>2026-04-03T14:18:20.751Z</time></trkpt><trkpt lat="45.765285" lon="8.984045"><ele>353.8333333333333</ele><time>2026-04-03T14:18:22.751Z</time></trkpt><trkpt lat="45.76536" lon="8.9840667"><ele>353.6666666666667</ele><time>2026-04-03T14:18:24.751Z</time></trkpt><trkpt lat="45.7654317" lon="8.9840967"><ele>353.5</ele><time>2026-04-03T14:18:26.751Z</time></trkpt><trkpt lat="45.7655083" lon="8.9841333"><ele>353.33333333333337</ele><time>2026-04-03T14:18:28.751Z</time></trkpt><trkpt lat="45.76559" lon="8.9841583"><ele>353.1666666666667</ele><time>2026-04-03T14:18:30.752Z</time></trkpt><trkpt lat="45.76567" lon="8.984185"><ele>353.0</ele><time>2026-04-03T14:18:32.751Z</time></trkpt><trkpt lat="45.7657533" lon="8.9842083"><ele>351.83333333333337</ele><time>2026-04-03T14:18:34.752Z</time></trkpt><trkpt lat="45.7658183" lon="8.9842517"><ele>350.6666666666667</ele><time>2026-04-03T14:18:36.753Z</time></trkpt><trkpt lat="45.7658483" lon="8.9843333"><ele>349.5</ele><time>2026-04-03T14:18:38.753Z</time></trkpt><trkpt lat="45.7658483" lon="8.98444"><ele>348.3333333333333</ele><time>2026-04-03T14:18:40.753Z</time></trkpt><trkpt lat="45.7658283" lon="8.9845567"><ele>347.16666666666663</ele><time>2026-04-03T14:18:42.751Z</time></trkpt><trkpt lat="45.7658167" lon="8.9846767"><ele>346.0</ele><time>2026-04-03T14:18:44.752Z</time></trkpt><trkpt lat="45.7658" lon="8.9847917"><ele>346.0</ele><time>2026-04-03T14:18:46.751Z</time></trkpt><trkpt lat="45.76578" lon="8.9849067"><ele>346.0</ele><time>2026-04-03T14:18:48.751Z</time></trkpt><trkpt lat="45.7657617" lon="8.985025"><ele>346.0</ele><time>2026-04-03T14:18:50.751Z</time></trkpt><trkpt lat="45.76574" lon="8.9851417"><ele>346.0</ele><time>2026-04-03T14:18:52.75Z</time></trkpt><trkpt lat="45.7657183" lon="8.9852533"><ele>346.0</ele><time>2026-04-03T14:18:54.751Z</time></trkpt><trkpt lat="45.7656917" lon="8.9853633"><ele>346.0</ele><time>2026-04-03T14:18:56.752Z</time></trkpt><trkpt lat="45.765655" lon="8.985475"><ele>345.3333333333333</ele><time>2026-04-03T14:18:58.75Z</time></trkpt><trkpt lat="45.76563" lon="8.9855933"><ele>344.66666666666663</ele><time>2026-04-03T14:19:00.751Z</time></trkpt><trkpt lat="45.7656033" lon="8.985715"><ele>344.0</ele><time>2026-04-03T14:19:02.751Z</time></trkpt><trkpt lat="45.7655933" lon="8.985845"><ele>343.3333333333333</ele><time>2026-04-03T14:19:04.75Z</time></trkpt><trkpt lat="45.7656033" lon="8.9859717"><ele>342.6666666666667</ele><time>2026-04-03T14:19:06.751Z</time></trkpt><trkpt lat="45.765635" lon="8.9860917"><ele>342.0</ele><time>2026-04-03T14:19:08.753Z</time></trkpt><trkpt lat="45.7656833" lon="8.986195"><ele>342.0</ele><time>2026-04-03T14:19:10.752Z</time></trkpt><trkpt lat="45.76573" lon="8.9862983"><ele>342.0</ele><time>2026-04-03T14:19:12.752Z</time></trkpt><trkpt lat="45.7657783" lon="8.9863933"><ele>342.0</ele><time>2026-04-03T14:19:14.752Z</time></trkpt><trkpt lat="45.7658217" lon="8.98649"><ele>342.0</ele><time>2026-04-03T14:19:16.753Z</time></trkpt><trkpt lat="45.76587" lon="8.9865833"><ele>342.0</ele><time>2026-04-03T14:19:18.752Z</time></trkpt><trkpt lat="45.765915" lon="8.9866767"><ele>342.0</ele><time>2026-04-03T14:19:20.752Z</time></trkpt><trkpt lat="45.765965" lon="8.9867667"><ele>342.0</ele><time>2026-04-03T14:19:22.749Z</time></trkpt><trkpt lat="45.7660067" lon="8.986855"><ele>342.0</ele><time>2026-04-03T14:19:24.751Z</time></trkpt><trkpt lat="45.7660467" lon="8.986945"><ele>342.0</ele><time>2026-04-03T14:19:26.752Z</time></trkpt><trkpt lat="45.7660883" lon="8.9870317"><ele>342.0</ele><time>2026-04-03T14:19:28.75Z</time></trkpt><trkpt lat="45.7661217" lon="8.9871267"><ele>342.0</ele><time>2026-04-03T14:19:30.751Z</time></trkpt><trkpt lat="45.766165" lon="8.9872217"><ele>342.0</ele><time>2026-04-03T14:19:32.752Z</time></trkpt><trkpt lat="45.766205" lon="8.9873183"><ele>342.1666666666667</ele><time>2026-04-03T14:19:34.751Z</time></trkpt><trkpt lat="45.766245" lon="8.9874167"><ele>342.3333333333333</ele><time>2026-04-03T14:19:36.752Z</time></trkpt><trkpt lat="45.766285" lon="8.98751"><ele>342.5</ele><time>2026-04-03T14:19:38.753Z</time></trkpt><trkpt lat="45.76633" lon="8.9875967"><ele>342.66666666666663</ele><time>2026-04-03T14:19:40.751Z</time></trkpt><trkpt lat="45.7663783" lon="8.9876833"><ele>342.8333333333333</ele><time>2026-04-03T14:19:42.749Z</time></trkpt><trkpt lat="45.7664267" lon="8.9877667"><ele>343.0</ele><time>2026-04-03T14:19:44.75Z</time></trkpt><trkpt lat="45.766475" lon="8.9878533"><ele>343.0</ele><time>2026-04-03T14:19:46.75Z</time></trkpt><trkpt lat="45.7665233" lon="8.98795"><ele>343.0</ele><time>2026-04-03T14:19:48.75Z</time></trkpt><trkpt lat="45.766565" lon="8.98805"><ele>343.0</ele><time>2026-04-03T14:19:50.75Z</time></trkpt><trkpt lat="45.7666183" lon="8.9881483"><ele>343.0</ele><time>2026-04-03T14:19:52.75Z</time></trkpt><trkpt lat="45.76667" lon="8.988245"><ele>343.0</ele><time>2026-04-03T14:19:54.749Z</time></trkpt><trkpt lat="45.7667167" lon="8.9883467"><ele>343.0</ele><time>2026-04-03T14:19:56.751Z</time></trkpt><trkpt lat="45.7667617" lon="8.988435"><ele>342.8333333333333</ele><time>2026-04-03T14:19:58.752Z</time></trkpt><trkpt lat="45.7668067" lon="8.9885317"><ele>342.66666666666663</ele><time>2026-04-03T14:20:00.751Z</time></trkpt><trkpt lat="45.7668417" lon="8.9886283"><ele>342.5</ele><time>2026-04-03T14:20:02.752Z</time></trkpt><trkpt lat="45.7668817" lon="8.9887217"><ele>342.3333333333333</ele><time>2026-04-03T14:20:04.749Z</time></trkpt><trkpt lat="45.7669233" lon="8.98881"><ele>342.1666666666667</ele><time>2026-04-03T14:20:06.749Z</time></trkpt><trkpt lat="45.7669667" lon="8.988895"><ele>342.0</ele><time>2026-04-03T14:20:08.749Z</time></trkpt><trkpt lat="45.7670117" lon="8.9889783"><ele>341.8333333333333</ele><time>2026-04-03T14:20:10.749Z</time></trkpt><trkpt lat="45.7670583" lon="8.9890583"><ele>341.6666666666667</ele><time>2026-04-03T14:20:12.749Z</time></trkpt><trkpt lat="45.7671017" lon="8.9891333"><ele>341.5</ele><time>2026-04-03T14:20:14.75Z</time></trkpt><trkpt lat="45.767135" lon="8.9892233"><ele>341.33333333333337</ele><time>2026-04-03T14:20:16.752Z</time></trkpt><trkpt lat="45.767175" lon="8.9893133"><ele>341.1666666666667</ele><time>2026-04-03T14:20:18.75Z</time></trkpt><trkpt lat="45.7672283" lon="8.9894033"><ele>341.0</ele><time>2026-04-03T14:20:20.75Z</time></trkpt><trkpt lat="45.767275" lon="8.9894983"><ele>341.33333333333337</ele><time>2026-04-03T14:20:22.749Z</time></trkpt><trkpt lat="45.76731" lon="8.9895817"><ele>341.6666666666667</ele><time>2026-04-03T14:20:24.75Z</time></trkpt><trkpt lat="45.7673883" lon="8.9896017"><ele>342.0</ele><time>2026-04-03T14:20:27.75Z</time></trkpt><trkpt lat="45.7674517" lon="8.989565"><ele>342.3333333333333</ele><time>2026-04-03T14:20:29.753Z</time></trkpt><trkpt lat="45.76753" lon="8.9895367"><ele>342.66666666666663</ele><time>2026-04-03T14:20:31.751Z</time></trkpt><trkpt lat="45.767605" lon="8.9894967"><ele>343.0</ele><time>2026-04-03T14:20:33.754Z</time></trkpt><trkpt lat="45.767675" lon="8.98945"><ele>343.16666666666663</ele><time>2026-04-03T14:20:35.75Z</time></trkpt><trkpt lat="45.7677483" lon="8.9893833"><ele>343.3333333333333</ele><time>2026-04-03T14:20:37.751Z</time></trkpt><trkpt lat="45.767825" lon="8.989315"><ele>343.5</ele><time>2026-04-03T14:20:39.751Z</time></trkpt><trkpt lat="45.7679" lon="8.9892567"><ele>343.6666666666667</ele><time>2026-04-03T14:20:41.751Z</time></trkpt><trkpt lat="45.7679783" lon="8.98921"><ele>343.83333333333337</ele><time>2026-04-03T14:20:43.749Z</time></trkpt><trkpt lat="45.76805" lon="8.9891483"><ele>344.0</ele><time>2026-04-03T14:20:45.751Z</time></trkpt><trkpt lat="45.768125" lon="8.9890917"><ele>344.0</ele><time>2026-04-03T14:20:47.75Z</time></trkpt><trkpt lat="45.768195" lon="8.9890417"><ele>344.0</ele><time>2026-04-03T14:20:49.751Z</time></trkpt><trkpt lat="45.7682667" lon="8.9889883"><ele>344.0</ele><time>2026-04-03T14:20:51.75Z</time></trkpt><trkpt lat="45.7683433" lon="8.988925"><ele>344.0</ele><time>2026-04-03T14:20:53.751Z</time></trkpt><trkpt lat="45.768415" lon="8.9888683"><ele>344.0</ele><time>2026-04-03T14:20:55.751Z</time></trkpt><trkpt lat="45.76849" lon="8.9888183"><ele>344.0</ele><time>2026-04-03T14:20:57.75Z</time></trkpt><trkpt lat="45.7685667" lon="8.9887733"><ele>343.83333333333337</ele><time>2026-04-03T14:20:59.752Z</time></trkpt><trkpt lat="45.7686467" lon="8.9887217"><ele>343.6666666666667</ele><time>2026-04-03T14:21:01.752Z</time></trkpt><trkpt lat="45.7687233" lon="8.9886717"><ele>343.5</ele><time>2026-04-03T14:21:03.75Z</time></trkpt><trkpt lat="45.7688017" lon="8.9886233"><ele>343.3333333333333</ele><time>2026-04-03T14:21:05.752Z</time></trkpt><trkpt lat="45.768875" lon="8.9885683"><ele>343.16666666666663</ele><time>2026-04-03T14:21:07.753Z</time></trkpt><trkpt lat="45.76895" lon="8.9885217"><ele>343.0</ele><time>2026-04-03T14:21:09.751Z</time></trkpt><trkpt lat="45.7690267" lon="8.9884717"><ele>343.0</ele><time>2026-04-03T14:21:11.75Z</time></trkpt><trkpt lat="45.7690983" lon="8.9884183"><ele>343.0</ele><time>2026-04-03T14:21:13.751Z</time></trkpt><trkpt lat="45.7691667" lon="8.9883667"><ele>343.0</ele><time>2026-04-03T14:21:15.75Z</time></trkpt><trkpt lat="45.769235" lon="8.9883133"><ele>343.0</ele><time>2026-04-03T14:21:17.75Z</time></trkpt><trkpt lat="45.769305" lon="8.9882567"><ele>343.0</ele><time>2026-04-03T14:21:19.751Z</time></trkpt><trkpt lat="45.7693717" lon="8.9882"><ele>343.0</ele><time>2026-04-03T14:21:21.751Z</time></trkpt><trkpt lat="45.769435" lon="8.9881483"><ele>343.66666666666663</ele><time>2026-04-03T14:21:23.752Z</time></trkpt><trkpt lat="45.7695" lon="8.988095"><ele>344.3333333333333</ele><time>2026-04-03T14:21:25.752Z</time></trkpt><trkpt lat="45.769565" lon="8.9880333"><ele>345.0</ele><time>2026-04-03T14:21:27.75Z</time></trkpt><trkpt lat="45.76963" lon="8.9879783"><ele>345.6666666666667</ele><time>2026-04-03T14:21:29.753Z</time></trkpt><trkpt lat="45.7696983" lon="8.9879267"><ele>346.33333333333337</ele><time>2026-04-03T14:21:31.752Z</time></trkpt><trkpt lat="45.769765" lon="8.9878783"><ele>347.0</ele><time>2026-04-03T14:21:33.751Z</time></trkpt><trkpt lat="45.7698317" lon="8.9878283"><ele>347.0</ele><time>2026-04-03T14:21:35.751Z</time></trkpt><trkpt lat="45.7698967" lon="8.9877817"><ele>347.0</ele><time>2026-04-03T14:21:37.751Z</time></trkpt><trkpt lat="45.7699617" lon="8.9877317"><ele>347.0</ele><time>2026-04-03T14:21:39.751Z</time></trkpt><trkpt lat="45.7700283" lon="8.98768"><ele>347.0</ele><time>2026-04-03T14:21:41.751Z</time></trkpt><trkpt lat="45.770095" lon="8.9876333"><ele>347.0</ele><time>2026-04-03T14:21:43.75Z</time></trkpt><trkpt lat="45.7701633" lon="8.9875833"><ele>347.0</ele><time>2026-04-03T14:21:45.75Z</time></trkpt><trkpt lat="45.77023" lon="8.98754"><ele>347.0</ele><time>2026-04-03T14:21:47.75Z</time></trkpt><trkpt lat="45.77032" lon="8.9875133"><ele>346.6666666666667</ele><time>2026-04-03T14:21:50.751Z</time></trkpt><trkpt lat="45.7704067" lon="8.9875083"><ele>346.33333333333337</ele><time>2026-04-03T14:21:53.75Z</time></trkpt><trkpt lat="45.7704933" lon="8.9875117"><ele>346.0</ele><time>2026-04-03T14:21:56.751Z</time></trkpt><trkpt lat="45.7705567" lon="8.9875233"><ele>345.6666666666667</ele><time>2026-04-03T14:21:59.75Z</time></trkpt><trkpt lat="45.7706317" lon="8.9875317"><ele>345.3333333333333</ele><time>2026-04-03T14:22:46.752Z</time></trkpt><trkpt lat="45.7706983" lon="8.9875017"><ele>345.0</ele><time>2026-04-03T14:22:48.751Z</time></trkpt><trkpt lat="45.7707883" lon="8.9875"><ele>345.0</ele><time>2026-04-03T14:22:51.752Z</time></trkpt><trkpt lat="45.7708517" lon="8.9875017"><ele>345.0</ele><time>2026-04-03T14:22:53.751Z</time></trkpt><trkpt lat="45.77092" lon="8.98751"><ele>345.0</ele><time>2026-04-03T14:22:55.752Z</time></trkpt><trkpt lat="45.7709917" lon="8.9875133"><ele>345.0</ele><time>2026-04-03T14:22:57.751Z</time></trkpt><trkpt lat="45.7710717" lon="8.9875083"><ele>345.0</ele><time>2026-04-03T14:22:59.751Z</time></trkpt><trkpt lat="45.7711467" lon="8.9875083"><ele>345.0</ele><time>2026-04-03T14:23:01.751Z</time></trkpt><trkpt lat="45.7712183" lon="8.9875083"><ele>345.0</ele><time>2026-04-03T14:23:03.751Z</time></trkpt><trkpt lat="45.7712917" lon="8.9875067"><ele>345.0</ele><time>2026-04-03T14:23:05.751Z</time></trkpt><trkpt lat="45.7713617" lon="8.9875133"><ele>345.0</ele><time>2026-04-03T14:23:07.751Z</time></trkpt><trkpt lat="45.771425" lon="8.98752"><ele>345.0</ele><time>2026-04-03T14:23:09.753Z</time></trkpt><trkpt lat="45.771495" lon="8.987515"><ele>345.0</ele><time>2026-04-03T14:23:11.75Z</time></trkpt><trkpt lat="45.7715967" lon="8.9875033"><ele>345.0</ele><time>2026-04-03T14:23:14.751Z</time></trkpt><trkpt lat="45.7716617" lon="8.9875133"><ele>345.0</ele><time>2026-04-03T14:23:16.751Z</time></trkpt><trkpt lat="45.771735" lon="8.98752"><ele>345.0</ele><time>2026-04-03T14:23:18.751Z</time></trkpt><trkpt lat="45.7718083" lon="8.98753"><ele>344.8333333333333</ele><time>2026-04-03T14:23:20.753Z</time></trkpt><trkpt lat="45.7718783" lon="8.9875367"><ele>344.6666666666667</ele><time>2026-04-03T14:23:22.754Z</time></trkpt><trkpt lat="45.7719583" lon="8.9875383"><ele>344.5</ele><time>2026-04-03T14:23:24.751Z</time></trkpt><trkpt lat="45.772025" lon="8.9875367"><ele>344.33333333333337</ele><time>2026-04-03T14:23:26.751Z</time></trkpt><trkpt lat="45.7721133" lon="8.98754"><ele>344.1666666666667</ele><time>2026-04-03T14:23:29.751Z</time></trkpt><trkpt lat="45.7722083" lon="8.9875333"><ele>344.0</ele><time>2026-04-03T14:23:32.752Z</time></trkpt><trkpt lat="45.7722767" lon="8.9875267"><ele>344.0</ele><time>2026-04-03T14:23:34.751Z</time></trkpt><trkpt lat="45.77235" lon="8.987535"><ele>344.0</ele><time>2026-04-03T14:23:36.751Z</time></trkpt><trkpt lat="45.7724217" lon="8.9875333"><ele>344.0</ele><time>2026-04-03T14:23:38.751Z</time></trkpt><trkpt lat="45.77249" lon="8.9875383"><ele>344.0</ele><time>2026-04-03T14:23:40.751Z</time></trkpt><trkpt lat="45.7725533" lon="8.9875283"><ele>344.0</ele><time>2026-04-03T14:23:42.751Z</time></trkpt><trkpt lat="45.772635" lon="8.9874633"><ele>344.0</ele><time>2026-04-03T14:23:45.751Z</time></trkpt><trkpt lat="45.772685" lon="8.9873467"><ele>344.7142857142857</ele><time>2026-04-03T14:23:48.751Z</time></trkpt><trkpt lat="45.7727133" lon="8.9872617"><ele>345.42857142857144</ele><time>2026-04-03T14:23:50.751Z</time></trkpt><trkpt lat="45.7727383" lon="8.987175"><ele>346.1428571428571</ele><time>2026-04-03T14:23:52.751Z</time></trkpt><trkpt lat="45.7727667" lon="8.9870867"><ele>346.8571428571429</ele><time>2026-04-03T14:23:54.75Z</time></trkpt><trkpt lat="45.7727983" lon="8.987"><ele>347.57142857142856</ele><time>2026-04-03T14:23:56.751Z</time></trkpt><trkpt lat="45.77284" lon="8.986925"><ele>348.2857142857143</ele><time>2026-04-03T14:23:58.751Z</time></trkpt><trkpt lat="45.77288" lon="8.9868433"><ele>349.0</ele><time>2026-04-03T14:24:00.751Z</time></trkpt><trkpt lat="45.77292" lon="8.9867667"><ele>348.99999999999994</ele><time>2026-04-03T14:24:02.752Z</time></trkpt><trkpt lat="45.7729617" lon="8.9866967"><ele>349.0</ele><time>2026-04-03T14:24:04.751Z</time></trkpt><trkpt lat="45.7730083" lon="8.9866133"><ele>349.0</ele><time>2026-04-03T14:24:06.751Z</time></trkpt><trkpt lat="45.773055" lon="8.9865417"><ele>349.0</ele><time>2026-04-03T14:24:08.752Z</time></trkpt><trkpt lat="45.7731" lon="8.98647"><ele>349.0</ele><time>2026-04-03T14:24:10.752Z</time></trkpt><trkpt lat="45.7731517" lon="8.9864067"><ele>348.99999999999994</ele><time>2026-04-03T14:24:12.752Z</time></trkpt><trkpt lat="45.7732067" lon="8.9863617"><ele>349.0</ele><time>2026-04-03T14:24:14.752Z</time></trkpt><trkpt lat="45.77326" lon="8.9863117"><ele>349.8333333333333</ele><time>2026-04-03T14:24:16.75Z</time></trkpt><trkpt lat="45.773315" lon="8.9862367"><ele>350.66666666666663</ele><time>2026-04-03T14:24:19.753Z</time></trkpt><trkpt lat="45.7734017" lon="8.9862183"><ele>351.5</ele><time>2026-04-03T14:24:22.751Z</time></trkpt><trkpt lat="45.7734933" lon="8.9862183"><ele>352.3333333333333</ele><time>2026-04-03T14:24:24.752Z</time></trkpt><trkpt lat="45.7735667" lon="8.9862283"><ele>353.1666666666667</ele><time>2026-04-03T14:24:26.751Z</time></trkpt><trkpt lat="45.7736367" lon="8.9862467"><ele>354.0</ele><time>2026-04-03T14:24:28.751Z</time></trkpt><trkpt lat="45.7737283" lon="8.9862767"><ele>354.4</ele><time>2026-04-03T14:24:31.752Z</time></trkpt><trkpt lat="45.7738233" lon="8.9862933"><ele>354.79999999999995</ele><time>2026-04-03T14:24:33.75Z</time></trkpt><trkpt lat="45.7739167" lon="8.98633"><ele>355.20000000000005</ele><time>2026-04-03T14:24:35.75Z</time></trkpt><trkpt lat="45.7740017" lon="8.9863617"><ele>355.6</ele><time>2026-04-03T14:24:37.751Z</time></trkpt><trkpt lat="45.7740867" lon="8.9863783"><ele>356.0</ele><time>2026-04-03T14:24:39.752Z</time></trkpt><trkpt lat="45.7741717" lon="8.986385"><ele>356.0</ele><time>2026-04-03T14:24:41.751Z</time></trkpt><trkpt lat="45.77428" lon="8.9864117"><ele>356.0</ele><time>2026-04-03T14:24:44.751Z</time></trkpt><trkpt lat="45.774355" lon="8.98645"><ele>356.0</ele><time>2026-04-03T14:24:46.751Z</time></trkpt><trkpt lat="45.7744383" lon="8.9865067"><ele>356.0</ele><time>2026-04-03T14:24:48.75Z</time></trkpt><trkpt lat="45.7745267" lon="8.9865317"><ele>356.0</ele><time>2026-04-03T14:24:50.751Z</time></trkpt><trkpt lat="45.7746083" lon="8.9865583"><ele>356.83333333333337</ele><time>2026-04-03T14:24:52.751Z</time></trkpt><trkpt lat="45.774695" lon="8.9865767"><ele>357.6666666666667</ele><time>2026-04-03T14:24:54.751Z</time></trkpt><trkpt lat="45.774775" lon="8.9865867"><ele>358.5</ele><time>2026-04-03T14:24:56.751Z</time></trkpt><trkpt lat="45.7748467" lon="8.9865867"><ele>359.3333333333333</ele><time>2026-04-03T14:24:58.752Z</time></trkpt><trkpt lat="45.7749183" lon="8.98659"><ele>360.16666666666663</ele><time>2026-04-03T14:25:00.751Z</time></trkpt><trkpt lat="45.7749983" lon="8.9865817"><ele>361.0</ele><time>2026-04-03T14:25:02.75Z</time></trkpt><trkpt lat="45.7750717" lon="8.9865783"><ele>361.0</ele><time>2026-04-03T14:25:04.752Z</time></trkpt><trkpt lat="45.7751483" lon="8.986575"><ele>361.0</ele><time>2026-04-03T14:25:06.75Z</time></trkpt><trkpt lat="45.7752233" lon="8.9865783"><ele>361.0</ele><time>2026-04-03T14:25:08.752Z</time></trkpt><trkpt lat="45.775305" lon="8.986585"><ele>361.0</ele><time>2026-04-03T14:25:10.751Z</time></trkpt><trkpt lat="45.7753883" lon="8.986595"><ele>361.0</ele><time>2026-04-03T14:25:12.752Z</time></trkpt><trkpt lat="45.7754633" lon="8.9866017"><ele>361.0</ele><time>2026-04-03T14:25:14.751Z</time></trkpt><trkpt lat="45.7755283" lon="8.9866017"><ele>361.5714285714286</ele><time>2026-04-03T14:25:16.751Z</time></trkpt><trkpt lat="45.7755933" lon="8.9866017"><ele>362.1428571428571</ele><time>2026-04-03T14:25:18.752Z</time></trkpt><trkpt lat="45.775685" lon="8.9865967"><ele>362.7142857142857</ele><time>2026-04-03T14:25:21.752Z</time></trkpt><trkpt lat="45.7757533" lon="8.98659"><ele>363.28571428571433</ele><time>2026-04-03T14:25:23.751Z</time></trkpt><trkpt lat="45.77582" lon="8.9865933"><ele>363.8571428571429</ele><time>2026-04-03T14:25:25.751Z</time></trkpt><trkpt lat="45.7758883" lon="8.9866117"><ele>364.42857142857144</ele><time>2026-04-03T14:25:27.751Z</time></trkpt><trkpt lat="45.7759617" lon="8.9866217"><ele>365.0</ele><time>2026-04-03T14:25:29.751Z</time></trkpt><trkpt lat="45.776045" lon="8.9866217"><ele>364.33333333333337</ele><time>2026-04-03T14:25:31.75Z</time></trkpt><trkpt lat="45.7761083" lon="8.986635"><ele>363.6666666666667</ele><time>2026-04-03T14:25:33.75Z</time></trkpt><trkpt lat="45.7762033" lon="8.9866583"><ele>363.0</ele><time>2026-04-03T14:25:36.752Z</time></trkpt><trkpt lat="45.7762783" lon="8.9866817"><ele>362.3333333333333</ele><time>2026-04-03T14:25:38.751Z</time></trkpt><trkpt lat="45.77635" lon="8.986705"><ele>361.66666666666663</ele><time>2026-04-03T14:25:40.751Z</time></trkpt><trkpt lat="45.7764367" lon="8.986745"><ele>361.0</ele><time>2026-04-03T14:25:43.751Z</time></trkpt><trkpt lat="45.7765233" lon="8.986785"><ele>361.0</ele><time>2026-04-03T14:25:46.751Z</time></trkpt><trkpt lat="45.7765833" lon="8.9868267"><ele>361.0</ele><time>2026-04-03T14:25:48.75Z</time></trkpt><trkpt lat="45.7766483" lon="8.98688"><ele>361.0</ele><time>2026-04-03T14:25:50.751Z</time></trkpt><trkpt lat="45.7767067" lon="8.9869283"><ele>361.0</ele><time>2026-04-03T14:25:52.752Z</time></trkpt><trkpt lat="45.776785" lon="8.9869933"><ele>361.0</ele><time>2026-04-03T14:25:55.75Z</time></trkpt><trkpt lat="45.7768667" lon="8.98705"><ele>361.0</ele><time>2026-04-03T14:25:58.751Z</time></trkpt><trkpt lat="45.7769267" lon="8.9871033"><ele>362.3333333333333</ele><time>2026-04-03T14:26:00.751Z</time></trkpt><trkpt lat="45.776985" lon="8.9871517"><ele>363.66666666666663</ele><time>2026-04-03T14:26:02.752Z</time></trkpt><trkpt lat="45.777045" lon="8.9871933"><ele>365.0</ele><time>2026-04-03T14:26:04.751Z</time></trkpt><trkpt lat="45.7771133" lon="8.9872633"><ele>366.3333333333333</ele><time>2026-04-03T14:26:07.753Z</time></trkpt><trkpt lat="45.7771633" lon="8.9873833"><ele>367.6666666666667</ele><time>2026-04-03T14:26:10.75Z</time></trkpt><trkpt lat="45.7771883" lon="8.987475"><ele>369.0</ele><time>2026-04-03T14:26:12.751Z</time></trkpt><trkpt lat="45.7772167" lon="8.987575"><ele>369.0</ele><time>2026-04-03T14:26:14.753Z</time></trkpt><trkpt lat="45.7772417" lon="8.987675"><ele>369.0</ele><time>2026-04-03T14:26:16.751Z</time></trkpt><trkpt lat="45.7772667" lon="8.98777"><ele>369.0</ele><time>2026-04-03T14:26:18.752Z</time></trkpt><trkpt lat="45.77731" lon="8.9878667"><ele>369.0</ele><time>2026-04-03T14:26:20.752Z</time></trkpt><trkpt lat="45.777365" lon="8.98795"><ele>369.0</ele><time>2026-04-03T14:26:22.751Z</time></trkpt><trkpt lat="45.7774283" lon="8.988015"><ele>369.0</ele><time>2026-04-03T14:26:24.751Z</time></trkpt><trkpt lat="45.7774983" lon="8.9880667"><ele>369.0</ele><time>2026-04-03T14:26:26.752Z</time></trkpt><trkpt lat="45.7775767" lon="8.9881133"><ele>369.0</ele><time>2026-04-03T14:26:28.75Z</time></trkpt><trkpt lat="45.777655" lon="8.98816"><ele>369.0</ele><time>2026-04-03T14:26:30.751Z</time></trkpt><trkpt lat="45.777735" lon="8.9882067"><ele>369.0</ele><time>2026-04-03T14:26:32.751Z</time></trkpt><trkpt lat="45.7778117" lon="8.9882483"><ele>369.0</ele><time>2026-04-03T14:26:34.751Z</time></trkpt><trkpt lat="45.77789" lon="8.988295"><ele>369.0</ele><time>2026-04-03T14:26:36.751Z</time></trkpt><trkpt lat="45.777965" lon="8.9883367"><ele>368.3333333333333</ele><time>2026-04-03T14:26:38.752Z</time></trkpt><trkpt lat="45.7780367" lon="8.9883767"><ele>367.6666666666667</ele><time>2026-04-03T14:26:40.751Z</time></trkpt><trkpt lat="45.77811" lon="8.98842"><ele>367.0</ele><time>2026-04-03T14:26:42.751Z</time></trkpt><trkpt lat="45.778175" lon="8.988455"><ele>366.33333333333337</ele><time>2026-04-03T14:26:44.751Z</time></trkpt><trkpt lat="45.77825" lon="8.9884567"><ele>365.6666666666667</ele><time>2026-04-03T14:26:46.751Z</time></trkpt><trkpt lat="45.7783183" lon="8.9884067"><ele>365.0</ele><time>2026-04-03T14:26:48.751Z</time></trkpt><trkpt lat="45.7783783" lon="8.9883467"><ele>367.00000000000006</ele><time>2026-04-03T14:26:50.751Z</time></trkpt><trkpt lat="45.7784367" lon="8.9883033"><ele>369.0</ele><time>2026-04-03T14:26:52.753Z</time></trkpt><trkpt lat="45.77849" lon="8.988255"><ele>371.0</ele><time>2026-04-03T14:26:54.75Z</time></trkpt><trkpt lat="45.7785433" lon="8.9882017"><ele>373.0</ele><time>2026-04-03T14:26:56.751Z</time></trkpt><trkpt lat="45.7786017" lon="8.98815"><ele>375.0</ele><time>2026-04-03T14:26:58.751Z</time></trkpt><trkpt lat="45.77867" lon="8.9880917"><ele>377.00000000000006</ele><time>2026-04-03T14:27:00.751Z</time></trkpt><trkpt lat="45.7787333" lon="8.9880283"><ele>379.0</ele><time>2026-04-03T14:27:02.751Z</time></trkpt><trkpt lat="45.778795" lon="8.9879783"><ele>379.42857142857144</ele><time>2026-04-03T14:27:04.752Z</time></trkpt><trkpt lat="45.77886" lon="8.987945"><ele>379.8571428571429</ele><time>2026-04-03T14:27:06.751Z</time></trkpt><trkpt lat="45.7789233" lon="8.987905"><ele>380.28571428571433</ele><time>2026-04-03T14:27:08.752Z</time></trkpt><trkpt lat="45.7789867" lon="8.9878483"><ele>380.7142857142857</ele><time>2026-04-03T14:27:10.752Z</time></trkpt><trkpt lat="45.77905" lon="8.9878133"><ele>381.1428571428571</ele><time>2026-04-03T14:27:12.753Z</time></trkpt><trkpt lat="45.779115" lon="8.9877817"><ele>381.5714285714286</ele><time>2026-04-03T14:27:14.752Z</time></trkpt><trkpt lat="45.77918" lon="8.9877417"><ele>382.0</ele><time>2026-04-03T14:27:16.751Z</time></trkpt><trkpt lat="45.779235" lon="8.987685"><ele>382.0</ele><time>2026-04-03T14:27:18.752Z</time></trkpt><trkpt lat="45.779295" lon="8.9876217"><ele>382.0</ele><time>2026-04-03T14:27:20.751Z</time></trkpt><trkpt lat="45.7793617" lon="8.9875617"><ele>382.0</ele><time>2026-04-03T14:27:22.751Z</time></trkpt><trkpt lat="45.779435" lon="8.9874733"><ele>382.0</ele><time>2026-04-03T14:27:24.751Z</time></trkpt><trkpt lat="45.779505" lon="8.9873983"><ele>382.0</ele><time>2026-04-03T14:27:26.753Z</time></trkpt><trkpt lat="45.7795633" lon="8.98733"><ele>382.0</ele><time>2026-04-03T14:27:28.75Z</time></trkpt><trkpt lat="45.7796217" lon="8.9872717"><ele>380.7142857142857</ele><time>2026-04-03T14:27:30.751Z</time></trkpt><trkpt lat="45.7796717" lon="8.9872033"><ele>379.4285714285714</ele><time>2026-04-03T14:27:32.751Z</time></trkpt><trkpt lat="45.77974" lon="8.9871383"><ele>378.1428571428571</ele><time>2026-04-03T14:27:34.751Z</time></trkpt><trkpt lat="45.77979" lon="8.9870767"><ele>376.8571428571429</ele><time>2026-04-03T14:27:36.749Z</time></trkpt><trkpt lat="45.7798417" lon="8.9870033"><ele>375.57142857142856</ele><time>2026-04-03T14:27:38.751Z</time></trkpt><trkpt lat="45.7798917" lon="8.9869483"><ele>374.2857142857143</ele><time>2026-04-03T14:27:40.75Z</time></trkpt><trkpt lat="45.779945" lon="8.98689"><ele>373.0</ele><time>2026-04-03T14:27:42.751Z</time></trkpt><trkpt lat="45.78" lon="8.9868267"><ele>373.0</ele><time>2026-04-03T14:27:44.752Z</time></trkpt><trkpt lat="45.7800517" lon="8.98674"><ele>373.0</ele><time>2026-04-03T14:27:46.751Z</time></trkpt><trkpt lat="45.7801" lon="8.98668"><ele>373.0</ele><time>2026-04-03T14:27:48.751Z</time></trkpt><trkpt lat="45.78015" lon="8.9865867"><ele>373.0</ele><time>2026-04-03T14:27:51.751Z</time></trkpt><trkpt lat="45.78021" lon="8.9865517"><ele>373.0</ele><time>2026-04-03T14:27:54.752Z</time></trkpt><trkpt lat="45.7802983" lon="8.9866267"><ele>373.0</ele><time>2026-04-03T14:27:57.752Z</time></trkpt><trkpt lat="45.7803433" lon="8.9867017"><ele>373.8333333333333</ele><time>2026-04-03T14:27:59.752Z</time></trkpt><trkpt lat="45.7803983" lon="8.98676"><ele>374.66666666666663</ele><time>2026-04-03T14:28:01.752Z</time></trkpt><trkpt lat="45.7804617" lon="8.9867467"><ele>375.5</ele><time>2026-04-03T14:28:03.751Z</time></trkpt><trkpt lat="45.7805217" lon="8.9866617"><ele>376.3333333333333</ele><time>2026-04-03T14:28:05.752Z</time></trkpt><trkpt lat="45.780585" lon="8.9865783"><ele>377.1666666666667</ele><time>2026-04-03T14:28:07.75Z</time></trkpt><trkpt lat="45.7806483" lon="8.9865017"><ele>378.0</ele><time>2026-04-03T14:28:09.752Z</time></trkpt><trkpt lat="45.7807167" lon="8.9864383"><ele>378.1666666666667</ele><time>2026-04-03T14:28:11.752Z</time></trkpt><trkpt lat="45.7807867" lon="8.9863717"><ele>378.3333333333333</ele><time>2026-04-03T14:28:13.753Z</time></trkpt><trkpt lat="45.7808533" lon="8.9863133"><ele>378.5</ele><time>2026-04-03T14:28:15.749Z</time></trkpt><trkpt lat="45.780915" lon="8.9862417"><ele>378.66666666666663</ele><time>2026-04-03T14:28:17.75Z</time></trkpt><trkpt lat="45.7809767" lon="8.9861783"><ele>378.8333333333333</ele><time>2026-04-03T14:28:19.751Z</time></trkpt><trkpt lat="45.781045" lon="8.986125"><ele>379.0</ele><time>2026-04-03T14:28:21.75Z</time></trkpt><trkpt lat="45.7811067" lon="8.986085"><ele>380.3333333333333</ele><time>2026-04-03T14:28:23.749Z</time></trkpt><trkpt lat="45.78117" lon="8.9860433"><ele>381.66666666666663</ele><time>2026-04-03T14:28:25.751Z</time></trkpt><trkpt lat="45.7812517" lon="8.98596"><ele>383.0</ele><time>2026-04-03T14:28:28.752Z</time></trkpt><trkpt lat="45.7813117" lon="8.98589"><ele>384.3333333333333</ele><time>2026-04-03T14:28:30.75Z</time></trkpt><trkpt lat="45.7813817" lon="8.98583"><ele>385.6666666666667</ele><time>2026-04-03T14:28:32.75Z</time></trkpt><trkpt lat="45.78145" lon="8.9857583"><ele>387.0</ele><time>2026-04-03T14:28:34.749Z</time></trkpt><trkpt lat="45.7815267" lon="8.9856933"><ele>387.0</ele><time>2026-04-03T14:28:36.751Z</time></trkpt><trkpt lat="45.7816" lon="8.985625"><ele>387.0</ele><time>2026-04-03T14:28:38.751Z</time></trkpt><trkpt lat="45.7816717" lon="8.985565"><ele>387.0</ele><time>2026-04-03T14:28:40.751Z</time></trkpt><trkpt lat="45.7817483" lon="8.985505"><ele>387.0</ele><time>2026-04-03T14:28:42.751Z</time></trkpt><trkpt lat="45.7818233" lon="8.98545"><ele>387.0</ele><time>2026-04-03T14:28:44.751Z</time></trkpt><trkpt lat="45.7819017" lon="8.985385"><ele>387.0</ele><time>2026-04-03T14:28:46.751Z</time></trkpt><trkpt lat="45.7819983" lon="8.9853283"><ele>387.1666666666667</ele><time>2026-04-03T14:28:48.751Z</time></trkpt><trkpt lat="45.7821133" lon="8.9852883"><ele>387.33333333333337</ele><time>2026-04-03T14:28:50.751Z</time></trkpt><trkpt lat="45.7821767" lon="8.985265"><ele>387.5</ele><time>2026-04-03T14:28:51.75Z</time></trkpt><trkpt lat="45.7822383" lon="8.9852333"><ele>387.6666666666667</ele><time>2026-04-03T14:28:52.75Z</time></trkpt><trkpt lat="45.7823433" lon="8.98518"><ele>387.83333333333337</ele><time>2026-04-03T14:28:54.751Z</time></trkpt><trkpt lat="45.78242" lon="8.985155"><ele>388.0</ele><time>2026-04-03T14:28:56.751Z</time></trkpt><trkpt lat="45.7825033" lon="8.9851233"><ele>388.0</ele><time>2026-04-03T14:28:58.751Z</time></trkpt><trkpt lat="45.7826017" lon="8.98511"><ele>388.0</ele><time>2026-04-03T14:29:00.751Z</time></trkpt><trkpt lat="45.782675" lon="8.9850983"><ele>388.0</ele><time>2026-04-03T14:29:02.751Z</time></trkpt><trkpt lat="45.782765" lon="8.9851283"><ele>388.0</ele><time>2026-04-03T14:29:04.75Z</time></trkpt><trkpt lat="45.7828683" lon="8.985165"><ele>388.0</ele><time>2026-04-03T14:29:06.751Z</time></trkpt><trkpt lat="45.7829617" lon="8.9852017"><ele>386.50000000000006</ele><time>2026-04-03T14:29:08.751Z</time></trkpt><trkpt lat="45.7830533" lon="8.9852467"><ele>385.0</ele><time>2026-04-03T14:29:10.75Z</time></trkpt><trkpt lat="45.78313" lon="8.9853017"><ele>383.5</ele><time>2026-04-03T14:29:12.75Z</time></trkpt><trkpt lat="45.7831917" lon="8.9853617"><ele>382.0</ele><time>2026-04-03T14:29:14.751Z</time></trkpt><trkpt lat="45.783265" lon="8.9854133"><ele>380.5</ele><time>2026-04-03T14:29:16.749Z</time></trkpt><trkpt lat="45.7833383" lon="8.9854717"><ele>379.0</ele><time>2026-04-03T14:29:18.751Z</time></trkpt><trkpt lat="45.7834117" lon="8.985535"><ele>379.00000000000006</ele><time>2026-04-03T14:29:20.752Z</time></trkpt><trkpt lat="45.7834717" lon="8.9856067"><ele>379.0</ele><time>2026-04-03T14:29:22.75Z</time></trkpt><trkpt lat="45.7835283" lon="8.9856733"><ele>379.0</ele><time>2026-04-03T14:29:24.75Z</time></trkpt><trkpt lat="45.7835883" lon="8.9857383"><ele>379.0</ele><time>2026-04-03T14:29:26.75Z</time></trkpt><trkpt lat="45.783645" lon="8.9857917"><ele>379.0</ele><time>2026-04-03T14:29:28.751Z</time></trkpt><trkpt lat="45.7837083" lon="8.985845"><ele>379.00000000000006</ele><time>2026-04-03T14:29:30.751Z</time></trkpt><trkpt lat="45.783765" lon="8.98591"><ele>379.0</ele><time>2026-04-03T14:29:32.75Z</time></trkpt><trkpt lat="45.78382" lon="8.9859833"><ele>379.5</ele><time>2026-04-03T14:29:34.751Z</time></trkpt><trkpt lat="45.783875" lon="8.9860533"><ele>380.0</ele><time>2026-04-03T14:29:36.751Z</time></trkpt><trkpt lat="45.78393" lon="8.9861067"><ele>380.5</ele><time>2026-04-03T14:29:38.751Z</time></trkpt><trkpt lat="45.784" lon="8.9861933"><ele>381.0</ele><time>2026-04-03T14:29:41.751Z</time></trkpt><trkpt lat="45.7840667" lon="8.9862683"><ele>381.5</ele><time>2026-04-03T14:29:44.75Z</time></trkpt><trkpt lat="45.7841467" lon="8.9863367"><ele>382.0</ele><time>2026-04-03T14:29:46.751Z</time></trkpt><trkpt lat="45.7842217" lon="8.9864233"><ele>382.0</ele><time>2026-04-03T14:29:48.751Z</time></trkpt><trkpt lat="45.784285" lon="8.986505"><ele>382.0</ele><time>2026-04-03T14:29:50.751Z</time></trkpt><trkpt lat="45.7843433" lon="8.986585"><ele>382.0</ele><time>2026-04-03T14:29:52.751Z</time></trkpt><trkpt lat="45.784405" lon="8.986665"><ele>382.0</ele><time>2026-04-03T14:29:54.752Z</time></trkpt><trkpt lat="45.78447" lon="8.9867417"><ele>382.0</ele><time>2026-04-03T14:29:56.751Z</time></trkpt><trkpt lat="45.7845367" lon="8.98681"><ele>382.0</ele><time>2026-04-03T14:29:58.752Z</time></trkpt><trkpt lat="45.7846033" lon="8.9868733"><ele>380.5714285714286</ele><time>2026-04-03T14:30:00.751Z</time></trkpt><trkpt lat="45.7846667" lon="8.9869233"><ele>379.1428571428571</ele><time>2026-04-03T14:30:03.751Z</time></trkpt><trkpt lat="45.7846817" lon="8.9870167"><ele>377.7142857142857</ele><time>2026-04-03T14:30:07.751Z</time></trkpt><trkpt lat="45.7846933" lon="8.9871283"><ele>376.28571428571433</ele><time>2026-04-03T14:30:11.75Z</time></trkpt><trkpt lat="45.7847317" lon="8.987215"><ele>374.8571428571429</ele><time>2026-04-03T14:30:14.751Z</time></trkpt><trkpt lat="45.7847817" lon="8.987295"><ele>373.42857142857144</ele><time>2026-04-03T14:30:17.751Z</time></trkpt><trkpt lat="45.7848033" lon="8.987385"><ele>372.0</ele><time>2026-04-03T14:30:20.751Z</time></trkpt><trkpt lat="45.7848317" lon="8.987475"><ele>373.6666666666667</ele><time>2026-04-03T14:30:23.75Z</time></trkpt><trkpt lat="45.7848533" lon="8.98758"><ele>375.3333333333333</ele><time>2026-04-03T14:30:26.751Z</time></trkpt><trkpt lat="45.7848833" lon="8.9876667"><ele>377.0</ele><time>2026-04-03T14:30:29.752Z</time></trkpt><trkpt lat="45.7849267" lon="8.9877433"><ele>378.66666666666663</ele><time>2026-04-03T14:30:32.751Z</time></trkpt><trkpt lat="45.7849583" lon="8.9878383"><ele>380.3333333333333</ele><time>2026-04-03T14:30:35.751Z</time></trkpt><trkpt lat="45.784985" lon="8.987955"><ele>382.0</ele><time>2026-04-03T14:30:39.752Z</time></trkpt><trkpt lat="45.7850067" lon="8.988065"><ele>382.0</ele><time>2026-04-03T14:30:43.75Z</time></trkpt><trkpt lat="45.78503" lon="8.9881783"><ele>382.0</ele><time>2026-04-03T14:30:47.75Z</time></trkpt><trkpt lat="45.7850517" lon="8.9882633"><ele>382.0</ele><time>2026-04-03T14:30:50.751Z</time></trkpt><trkpt lat="45.7850767" lon="8.9883717"><ele>382.0</ele><time>2026-04-03T14:30:54.751Z</time></trkpt><trkpt lat="45.7850883" lon="8.9884617"><ele>382.0</ele><time>2026-04-03T14:30:57.75Z</time></trkpt><trkpt lat="45.7851033" lon="8.98857"><ele>382.0</ele><time>2026-04-03T14:31:01.751Z</time></trkpt><trkpt lat="45.7851083" lon="8.9886783"><ele>382.0</ele><time>2026-04-03T14:31:05.752Z</time></trkpt><trkpt lat="45.7851233" lon="8.98877"><ele>382.0</ele><time>2026-04-03T14:31:08.752Z</time></trkpt><trkpt lat="45.7851317" lon="8.9888667"><ele>382.0</ele><time>2026-04-03T14:31:11.751Z</time></trkpt><trkpt lat="45.7851283" lon="8.9889883"><ele>382.0</ele><time>2026-04-03T14:31:15.751Z</time></trkpt><trkpt lat="45.7851367" lon="8.9890817"><ele>382.0</ele><time>2026-04-03T14:31:18.751Z</time></trkpt><trkpt lat="45.7851433" lon="8.9891733"><ele>382.0</ele><time>2026-04-03T14:31:21.75Z</time></trkpt><trkpt lat="45.7851583" lon="8.9892867"><ele>382.0</ele><time>2026-04-03T14:31:25.751Z</time></trkpt><trkpt lat="45.7851733" lon="8.9893883"><ele>382.0</ele><time>2026-04-03T14:31:28.75Z</time></trkpt><trkpt lat="45.7851917" lon="8.9894983"><ele>382.0</ele><time>2026-04-03T14:31:31.751Z</time></trkpt><trkpt lat="45.785205" lon="8.9896017"><ele>382.0</ele><time>2026-04-03T14:31:34.751Z</time></trkpt><trkpt lat="45.7852117" lon="8.98972"><ele>382.0</ele><time>2026-04-03T14:31:38.751Z</time></trkpt><trkpt lat="45.785205" lon="8.9898283"><ele>382.0</ele><time>2026-04-03T14:31:41.751Z</time></trkpt><trkpt lat="45.7851717" lon="8.9899267"><ele>382.0</ele><time>2026-04-03T14:31:44.751Z</time></trkpt><trkpt lat="45.7851367" lon="8.9900283"><ele>382.0</ele><time>2026-04-03T14:31:47.752Z</time></trkpt><trkpt lat="45.785095" lon="8.9901383"><ele>381.3333333333333</ele><time>2026-04-03T14:31:50.751Z</time></trkpt><trkpt lat="45.785035" lon="8.9902483"><ele>380.66666666666663</ele><time>2026-04-03T14:31:53.751Z</time></trkpt><trkpt lat="45.7849833" lon="8.9903183"><ele>380.0</ele><time>2026-04-03T14:31:55.752Z</time></trkpt><trkpt lat="45.784925" lon="8.9903583"><ele>379.3333333333333</ele><time>2026-04-03T14:31:57.751Z</time></trkpt><trkpt lat="45.7848517" lon="8.9904033"><ele>378.6666666666667</ele><time>2026-04-03T14:31:59.753Z</time></trkpt><trkpt lat="45.7847733" lon="8.9904617"><ele>378.0</ele><time>2026-04-03T14:32:01.752Z</time></trkpt><trkpt lat="45.78469" lon="8.9904933"><ele>378.0</ele><time>2026-04-03T14:32:03.75Z</time></trkpt><trkpt lat="45.784605" lon="8.9905233"><ele>378.0</ele><time>2026-04-03T14:32:05.754Z</time></trkpt><trkpt lat="45.7845333" lon="8.9905483"><ele>378.0</ele><time>2026-04-03T14:32:07.752Z</time></trkpt><trkpt lat="45.7844583" lon="8.990615"><ele>378.0</ele><time>2026-04-03T14:32:09.75Z</time></trkpt><trkpt lat="45.784395" lon="8.9907033"><ele>378.0</ele><time>2026-04-03T14:32:11.75Z</time></trkpt><trkpt lat="45.7843383" lon="8.9907917"><ele>378.0</ele><time>2026-04-03T14:32:13.754Z</time></trkpt><trkpt lat="45.7842917" lon="8.9908733"><ele>376.5</ele><time>2026-04-03T14:32:15.75Z</time></trkpt><trkpt lat="45.7842467" lon="8.9909667"><ele>375.0</ele><time>2026-04-03T14:32:17.754Z</time></trkpt><trkpt lat="45.784195" lon="8.9910533"><ele>373.5</ele><time>2026-04-03T14:32:19.752Z</time></trkpt><trkpt lat="45.7841533" lon="8.9911517"><ele>372.0</ele><time>2026-04-03T14:32:21.751Z</time></trkpt><trkpt lat="45.784105" lon="8.9912383"><ele>370.5</ele><time>2026-04-03T14:32:23.751Z</time></trkpt><trkpt lat="45.78406" lon="8.991315"><ele>369.0</ele><time>2026-04-03T14:32:25.751Z</time></trkpt><trkpt lat="45.7840217" lon="8.9913933"><ele>369.0</ele><time>2026-04-03T14:32:27.751Z</time></trkpt><trkpt lat="45.7839917" lon="8.991475"><ele>369.0</ele><time>2026-04-03T14:32:29.751Z</time></trkpt><trkpt lat="45.7839317" lon="8.99157"><ele>369.0</ele><time>2026-04-03T14:32:32.751Z</time></trkpt><trkpt lat="45.7838533" lon="8.9916333"><ele>369.0</ele><time>2026-04-03T14:32:35.751Z</time></trkpt><trkpt lat="45.783785" lon="8.99165"><ele>369.0</ele><time>2026-04-03T14:32:37.751Z</time></trkpt><trkpt lat="45.7837133" lon="8.9916383"><ele>369.0</ele><time>2026-04-03T14:32:39.751Z</time></trkpt><trkpt lat="45.7836567" lon="8.9915783"><ele>369.0</ele><time>2026-04-03T14:32:41.751Z</time></trkpt><trkpt lat="45.7836" lon="8.9915233"><ele>369.0</ele><time>2026-04-03T14:32:43.751Z</time></trkpt><trkpt lat="45.7835433" lon="8.99146"><ele>369.0</ele><time>2026-04-03T14:32:45.752Z</time></trkpt><trkpt lat="45.7834833" lon="8.9913967"><ele>369.0</ele><time>2026-04-03T14:32:47.751Z</time></trkpt><trkpt lat="45.7834233" lon="8.9913317"><ele>369.0</ele><time>2026-04-03T14:32:49.75Z</time></trkpt><trkpt lat="45.783355" lon="8.9913067"><ele>369.0</ele><time>2026-04-03T14:32:51.749Z</time></trkpt><trkpt lat="45.783355" lon="8.9914217"><ele>369.0</ele><time>2026-04-03T14:32:54.751Z</time></trkpt><trkpt lat="45.7834017" lon="8.9915417"><ele>368.79999999999995</ele><time>2026-04-03T14:32:56.751Z</time></trkpt><trkpt lat="45.783475" lon="8.9916367"><ele>368.59999999999997</ele><time>2026-04-03T14:32:58.752Z</time></trkpt><trkpt lat="45.78357" lon="8.991725"><ele>368.4</ele><time>2026-04-03T14:33:00.751Z</time></trkpt><trkpt lat="45.7836683" lon="8.9918083"><ele>368.2</ele><time>2026-04-03T14:33:02.752Z</time></trkpt><trkpt lat="45.7837367" lon="8.9919283"><ele>368.0</ele><time>2026-04-03T14:33:04.752Z</time></trkpt><trkpt lat="45.7837733" lon="8.992005"><ele>368.0</ele><time>2026-04-03T14:33:05.751Z</time></trkpt><trkpt lat="45.7838117" lon="8.99208"><ele>368.0</ele><time>2026-04-03T14:33:06.752Z</time></trkpt><trkpt lat="45.78385" lon="8.99216"><ele>368.0</ele><time>2026-04-03T14:33:07.752Z</time></trkpt><trkpt lat="45.7838883" lon="8.99224"><ele>368.0</ele><time>2026-04-03T14:33:08.75Z</time></trkpt><trkpt lat="45.783925" lon="8.9923183"><ele>368.0</ele><time>2026-04-03T14:33:09.751Z</time></trkpt><trkpt lat="45.7839933" lon="8.9924583"><ele>368.0</ele><time>2026-04-03T14:33:11.751Z</time></trkpt><trkpt lat="45.7840583" lon="8.9925833"><ele>367.1666666666667</ele><time>2026-04-03T14:33:13.751Z</time></trkpt><trkpt lat="45.78411" lon="8.9926817"><ele>366.33333333333337</ele><time>2026-04-03T14:33:15.751Z</time></trkpt><trkpt lat="45.784175" lon="8.99277"><ele>365.5</ele><time>2026-04-03T14:33:17.751Z</time></trkpt><trkpt lat="45.7842333" lon="8.992825"><ele>364.6666666666667</ele><time>2026-04-03T14:33:19.753Z</time></trkpt><trkpt lat="45.7843" lon="8.9928717"><ele>363.8333333333333</ele><time>2026-04-03T14:33:21.75Z</time></trkpt><trkpt lat="45.784375" lon="8.9929267"><ele>363.0</ele><time>2026-04-03T14:33:23.752Z</time></trkpt><trkpt lat="45.7844433" lon="8.9929817"><ele>362.99999999999994</ele><time>2026-04-03T14:33:25.751Z</time></trkpt><trkpt lat="45.7845033" lon="8.9930283"><ele>363.0</ele><time>2026-04-03T14:33:27.751Z</time></trkpt><trkpt lat="45.7845633" lon="8.9930733"><ele>363.0</ele><time>2026-04-03T14:33:29.754Z</time></trkpt><trkpt lat="45.7846217" lon="8.9931217"><ele>363.0</ele><time>2026-04-03T14:33:31.752Z</time></trkpt><trkpt lat="45.7846733" lon="8.993175"><ele>363.0</ele><time>2026-04-03T14:33:33.751Z</time></trkpt><trkpt lat="45.784755" lon="8.99326"><ele>362.99999999999994</ele><time>2026-04-03T14:33:36.751Z</time></trkpt><trkpt lat="45.7848083" lon="8.993325"><ele>363.0</ele><time>2026-04-03T14:33:38.752Z</time></trkpt><trkpt lat="45.784855" lon="8.9933933"><ele>362.1666666666667</ele><time>2026-04-03T14:33:41.751Z</time></trkpt><trkpt lat="45.78493" lon="8.99345"><ele>361.3333333333333</ele><time>2026-04-03T14:33:44.752Z</time></trkpt><trkpt lat="45.78499" lon="8.9934783"><ele>360.5</ele><time>2026-04-03T14:33:46.751Z</time></trkpt><trkpt lat="45.7850667" lon="8.9934933"><ele>359.66666666666663</ele><time>2026-04-03T14:33:48.753Z</time></trkpt><trkpt lat="45.7851517" lon="8.9934667"><ele>358.8333333333333</ele><time>2026-04-03T14:33:50.752Z</time></trkpt><trkpt lat="45.785225" lon="8.9934717"><ele>358.0</ele><time>2026-04-03T14:33:52.751Z</time></trkpt><trkpt lat="45.7852983" lon="8.993485"><ele>358.0</ele><time>2026-04-03T14:33:54.752Z</time></trkpt><trkpt lat="45.7853683" lon="8.993495"><ele>358.0</ele><time>2026-04-03T14:33:56.752Z</time></trkpt><trkpt lat="45.7854433" lon="8.9934817"><ele>358.0</ele><time>2026-04-03T14:33:58.751Z</time></trkpt><trkpt lat="45.785515" lon="8.9934517"><ele>358.0</ele><time>2026-04-03T14:34:00.753Z</time></trkpt><trkpt lat="45.7855967" lon="8.9934283"><ele>358.0</ele><time>2026-04-03T14:34:01.752Z</time></trkpt><trkpt lat="45.7856683" lon="8.9933967"><ele>358.0</ele><time>2026-04-03T14:34:02.752Z</time></trkpt><trkpt lat="45.78577" lon="8.9933283"><ele>357.66666666666663</ele><time>2026-04-03T14:34:04.752Z</time></trkpt><trkpt lat="45.7858333" lon="8.993245"><ele>357.3333333333333</ele><time>2026-04-03T14:34:06.752Z</time></trkpt><trkpt lat="45.7859" lon="8.9931517"><ele>357.0</ele><time>2026-04-03T14:34:08.751Z</time></trkpt><trkpt lat="45.785955" lon="8.99307"><ele>356.6666666666667</ele><time>2026-04-03T14:34:10.751Z</time></trkpt><trkpt lat="45.7860067" lon="8.9929883"><ele>356.33333333333337</ele><time>2026-04-03T14:34:12.751Z</time></trkpt><trkpt lat="45.7860517" lon="8.9929183"><ele>356.0</ele><time>2026-04-03T14:34:14.753Z</time></trkpt><trkpt lat="45.7861117" lon="8.9928467"><ele>354.83333333333337</ele><time>2026-04-03T14:34:16.751Z</time></trkpt><trkpt lat="45.78616" lon="8.9927483"><ele>353.6666666666667</ele><time>2026-04-03T14:34:18.751Z</time></trkpt><trkpt lat="45.786225" lon="8.99268"><ele>352.5</ele><time>2026-04-03T14:34:20.751Z</time></trkpt><trkpt lat="45.786285" lon="8.9926017"><ele>351.3333333333333</ele><time>2026-04-03T14:34:22.751Z</time></trkpt><trkpt lat="45.7863483" lon="8.9925383"><ele>350.16666666666663</ele><time>2026-04-03T14:34:24.751Z</time></trkpt><trkpt lat="45.7864033" lon="8.99248"><ele>349.0</ele><time>2026-04-03T14:34:26.753Z</time></trkpt><trkpt lat="45.78646" lon="8.9924067"><ele>349.0</ele><time>2026-04-03T14:34:28.75Z</time></trkpt><trkpt lat="45.78649" lon="8.9923"><ele>349.0</ele><time>2026-04-03T14:34:30.752Z</time></trkpt><trkpt lat="45.78649" lon="8.9921933"><ele>349.0</ele><time>2026-04-03T14:34:32.751Z</time></trkpt><trkpt lat="45.7864767" lon="8.99208"><ele>349.0</ele><time>2026-04-03T14:34:34.751Z</time></trkpt><trkpt lat="45.7864783" lon="8.9919633"><ele>349.0</ele><time>2026-04-03T14:34:36.752Z</time></trkpt><trkpt lat="45.7865" lon="8.9918633"><ele>349.0</ele><time>2026-04-03T14:34:38.751Z</time></trkpt><trkpt lat="45.7865083" lon="8.9917617"><ele>349.5</ele><time>2026-04-03T14:34:40.752Z</time></trkpt><trkpt lat="45.786525" lon="8.99164"><ele>350.0</ele><time>2026-04-03T14:34:42.751Z</time></trkpt><trkpt lat="45.7865367" lon="8.99153"><ele>350.5</ele><time>2026-04-03T14:34:44.751Z</time></trkpt><trkpt lat="45.786545" lon="8.9914267"><ele>351.0</ele><time>2026-04-03T14:34:46.752Z</time></trkpt><trkpt lat="45.7865633" lon="8.9913167"><ele>351.5</ele><time>2026-04-03T14:34:48.752Z</time></trkpt><trkpt lat="45.7865683" lon="8.9912033"><ele>352.0</ele><time>2026-04-03T14:34:50.752Z</time></trkpt><trkpt lat="45.7865633" lon="8.9910867"><ele>352.0</ele><time>2026-04-03T14:34:52.752Z</time></trkpt><trkpt lat="45.7865433" lon="8.9909733"><ele>352.0</ele><time>2026-04-03T14:34:54.753Z</time></trkpt><trkpt lat="45.786495" lon="8.9908617"><ele>352.0</ele><time>2026-04-03T14:34:56.752Z</time></trkpt><trkpt lat="45.7864517" lon="8.9907433"><ele>352.0</ele><time>2026-04-03T14:34:58.752Z</time></trkpt><trkpt lat="45.7864167" lon="8.9906317"><ele>352.0</ele><time>2026-04-03T14:35:00.754Z</time></trkpt><trkpt lat="45.7863933" lon="8.9905183"><ele>352.0</ele><time>2026-04-03T14:35:02.752Z</time></trkpt><trkpt lat="45.7863767" lon="8.990415"><ele>352.0</ele><time>2026-04-03T14:35:04.752Z</time></trkpt><trkpt lat="45.7863833" lon="8.99032"><ele>352.0</ele><time>2026-04-03T14:35:06.753Z</time></trkpt><trkpt lat="45.7863733" lon="8.9902"><ele>352.0</ele><time>2026-04-03T14:35:09.752Z</time></trkpt><trkpt lat="45.7863383" lon="8.99012"><ele>352.0</ele><time>2026-04-03T14:35:11.751Z</time></trkpt><trkpt lat="45.7862767" lon="8.9900317"><ele>352.0</ele><time>2026-04-03T14:35:14.752Z</time></trkpt><trkpt lat="45.7862133" lon="8.989955"><ele>352.0</ele><time>2026-04-03T14:35:17.751Z</time></trkpt><trkpt lat="45.786175" lon="8.9898467"><ele>351.66666666666663</ele><time>2026-04-03T14:35:20.752Z</time></trkpt><trkpt lat="45.7861567" lon="8.98975"><ele>351.3333333333333</ele><time>2026-04-03T14:35:23.751Z</time></trkpt><trkpt lat="45.78613" lon="8.9896433"><ele>351.0</ele><time>2026-04-03T14:35:26.751Z</time></trkpt><trkpt lat="45.786095" lon="8.989535"><ele>350.6666666666667</ele><time>2026-04-03T14:35:29.751Z</time></trkpt><trkpt lat="45.7860617" lon="8.98942"><ele>350.33333333333337</ele><time>2026-04-03T14:35:32.751Z</time></trkpt><trkpt lat="45.7860367" lon="8.989305"><ele>350.0</ele><time>2026-04-03T14:35:35.752Z</time></trkpt><trkpt lat="45.786035" lon="8.9891917"><ele>350.0</ele><time>2026-04-03T14:35:38.751Z</time></trkpt><trkpt lat="45.7860517" lon="8.9890783"><ele>350.0</ele><time>2026-04-03T14:35:41.752Z</time></trkpt><trkpt lat="45.7860467" lon="8.9889883"><ele>350.0</ele><time>2026-04-03T14:35:43.751Z</time></trkpt><trkpt lat="45.7860383" lon="8.988865"><ele>350.0</ele><time>2026-04-03T14:35:46.751Z</time></trkpt><trkpt lat="45.7860167" lon="8.9887533"><ele>350.0</ele><time>2026-04-03T14:35:49.751Z</time></trkpt><trkpt lat="45.785975" lon="8.9886367"><ele>350.0</ele><time>2026-04-03T14:35:52.752Z</time></trkpt><trkpt lat="45.7859383" lon="8.9885383"><ele>350.33333333333337</ele><time>2026-04-03T14:35:55.751Z</time></trkpt><trkpt lat="45.785915" lon="8.9884317"><ele>350.6666666666667</ele><time>2026-04-03T14:35:58.752Z</time></trkpt><trkpt lat="45.7859417" lon="8.9883383"><ele>351.0</ele><time>2026-04-03T14:36:01.751Z</time></trkpt><trkpt lat="45.78598" lon="8.988235"><ele>351.3333333333333</ele><time>2026-04-03T14:36:04.751Z</time></trkpt><trkpt lat="45.7860033" lon="8.9881417"><ele>351.66666666666663</ele><time>2026-04-03T14:36:07.753Z</time></trkpt><trkpt lat="45.7860383" lon="8.988055"><ele>352.0</ele><time>2026-04-03T14:36:10.751Z</time></trkpt><trkpt lat="45.7860967" lon="8.9879717"><ele>352.0</ele><time>2026-04-03T14:36:13.75Z</time></trkpt><trkpt lat="45.7861583" lon="8.9879517"><ele>352.0</ele><time>2026-04-03T14:36:15.75Z</time></trkpt><trkpt lat="45.7862267" lon="8.9879633"><ele>352.0</ele><time>2026-04-03T14:36:17.751Z</time></trkpt><trkpt lat="45.7862967" lon="8.9879583"><ele>352.0</ele><time>2026-04-03T14:36:19.752Z</time></trkpt><trkpt lat="45.7863883" lon="8.9879433"><ele>352.0</ele><time>2026-04-03T14:36:21.751Z</time></trkpt><trkpt lat="45.78647" lon="8.98797"><ele>352.0</ele><time>2026-04-03T14:36:23.752Z</time></trkpt><trkpt lat="45.7865517" lon="8.987975"><ele>352.0</ele><time>2026-04-03T14:36:25.75Z</time></trkpt><trkpt lat="45.78662" lon="8.9879317"><ele>352.0</ele><time>2026-04-03T14:36:27.751Z</time></trkpt><trkpt lat="45.7866817" lon="8.987905"><ele>352.0</ele><time>2026-04-03T14:36:29.751Z</time></trkpt><trkpt lat="45.7867717" lon="8.9879167"><ele>352.0</ele><time>2026-04-03T14:36:31.752Z</time></trkpt><trkpt lat="45.786875" lon="8.987935"><ele>352.0</ele><time>2026-04-03T14:36:33.752Z</time></trkpt><trkpt lat="45.7869817" lon="8.9879683"><ele>352.0</ele><time>2026-04-03T14:36:35.752Z</time></trkpt><trkpt lat="45.7870867" lon="8.98801"><ele>351.40000000000003</ele><time>2026-04-03T14:36:37.753Z</time></trkpt><trkpt lat="45.7871917" lon="8.9880683"><ele>350.8</ele><time>2026-04-03T14:36:39.753Z</time></trkpt><trkpt lat="45.787295" lon="8.9881067"><ele>350.2</ele><time>2026-04-03T14:36:41.751Z</time></trkpt><trkpt lat="45.7873917" lon="8.98812"><ele>349.6</ele><time>2026-04-03T14:36:43.752Z</time></trkpt><trkpt lat="45.7874783" lon="8.9881317"><ele>349.0</ele><time>2026-04-03T14:36:45.75Z</time></trkpt><trkpt lat="45.7875583" lon="8.9881483"><ele>349.0</ele><time>2026-04-03T14:36:47.75Z</time></trkpt><trkpt lat="45.7876367" lon="8.98817"><ele>349.0</ele><time>2026-04-03T14:36:49.751Z</time></trkpt><trkpt lat="45.7877167" lon="8.9882033"><ele>349.0</ele><time>2026-04-03T14:36:51.751Z</time></trkpt><trkpt lat="45.787805" lon="8.9882417"><ele>349.0</ele><time>2026-04-03T14:36:53.751Z</time></trkpt><trkpt lat="45.7878983" lon="8.988275"><ele>349.0</ele><time>2026-04-03T14:36:55.751Z</time></trkpt><trkpt lat="45.78799" lon="8.9883083"><ele>349.0</ele><time>2026-04-03T14:36:57.751Z</time></trkpt><trkpt lat="45.788085" lon="8.98833"><ele>349.0</ele><time>2026-04-03T14:36:59.752Z</time></trkpt><trkpt lat="45.78818" lon="8.9883517"><ele>349.0</ele><time>2026-04-03T14:37:01.752Z</time></trkpt><trkpt lat="45.78827" lon="8.9883633"><ele>349.0</ele><time>2026-04-03T14:37:03.752Z</time></trkpt><trkpt lat="45.7883667" lon="8.988375"><ele>349.0</ele><time>2026-04-03T14:37:05.751Z</time></trkpt><trkpt lat="45.7884583" lon="8.9883817"><ele>349.0</ele><time>2026-04-03T14:37:07.751Z</time></trkpt><trkpt lat="45.7885483" lon="8.9883917"><ele>349.0</ele><time>2026-04-03T14:37:09.751Z</time></trkpt><trkpt lat="45.7886417" lon="8.9884033"><ele>349.0</ele><time>2026-04-03T14:37:11.751Z</time></trkpt><trkpt lat="45.7887317" lon="8.9884067"><ele>349.0</ele><time>2026-04-03T14:37:13.75Z</time></trkpt><trkpt lat="45.78882" lon="8.9884083"><ele>349.0</ele><time>2026-04-03T14:37:15.751Z</time></trkpt><trkpt lat="45.788905" lon="8.98842"><ele>349.0</ele><time>2026-04-03T14:37:17.751Z</time></trkpt><trkpt lat="45.7889917" lon="8.9884283"><ele>349.0</ele><time>2026-04-03T14:37:19.754Z</time></trkpt><trkpt lat="45.7890833" lon="8.9884367"><ele>349.0</ele><time>2026-04-03T14:37:21.753Z</time></trkpt><trkpt lat="45.7891717" lon="8.9884433"><ele>349.0</ele><time>2026-04-03T14:37:23.752Z</time></trkpt><trkpt lat="45.78926" lon="8.9884517"><ele>349.0</ele><time>2026-04-03T14:37:25.751Z</time></trkpt><trkpt lat="45.7893483" lon="8.98846"><ele>349.0</ele><time>2026-04-03T14:37:27.752Z</time></trkpt><trkpt lat="45.7894417" lon="8.98847"><ele>349.0</ele><time>2026-04-03T14:37:29.752Z</time></trkpt><trkpt lat="45.78953" lon="8.9884767"><ele>349.0</ele><time>2026-04-03T14:37:31.751Z</time></trkpt><trkpt lat="45.789615" lon="8.9884767"><ele>348.99999999999994</ele><time>2026-04-03T14:37:33.752Z</time></trkpt><trkpt lat="45.789695" lon="8.9884817"><ele>349.0</ele><time>2026-04-03T14:37:35.752Z</time></trkpt><trkpt lat="45.78977" lon="8.98849"><ele>349.0</ele><time>2026-04-03T14:37:37.752Z</time></trkpt><trkpt lat="45.7898383" lon="8.988485"><ele>349.0</ele><time>2026-04-03T14:37:39.753Z</time></trkpt><trkpt lat="45.7899067" lon="8.9884683"><ele>349.0</ele><time>2026-04-03T14:37:41.751Z</time></trkpt><trkpt lat="45.7899717" lon="8.9885133"><ele>348.99999999999994</ele><time>2026-04-03T14:37:44.752Z</time></trkpt><trkpt lat="45.789965" lon="8.9886317"><ele>349.0</ele><time>2026-04-03T14:37:47.749Z</time></trkpt><trkpt lat="45.7899533" lon="8.9887317"><ele>349.0</ele><time>2026-04-03T14:37:49.751Z</time></trkpt><trkpt lat="45.7899517" lon="8.988845"><ele>349.0</ele><time>2026-04-03T14:37:51.751Z</time></trkpt><trkpt lat="45.7899517" lon="8.988965"><ele>349.0</ele><time>2026-04-03T14:37:53.751Z</time></trkpt><trkpt lat="45.78995" lon="8.9890833"><ele>349.0</ele><time>2026-04-03T14:37:55.751Z</time></trkpt><trkpt lat="45.78995" lon="8.989205"><ele>349.0</ele><time>2026-04-03T14:37:57.75Z</time></trkpt><trkpt lat="45.7899483" lon="8.989325"><ele>349.0</ele><time>2026-04-03T14:37:59.751Z</time></trkpt><trkpt lat="45.789945" lon="8.9894467"><ele>349.16666666666663</ele><time>2026-04-03T14:38:01.751Z</time></trkpt><trkpt lat="45.78994" lon="8.9895633"><ele>349.3333333333333</ele><time>2026-04-03T14:38:03.751Z</time></trkpt><trkpt lat="45.7899333" lon="8.9896717"><ele>349.5</ele><time>2026-04-03T14:38:05.751Z</time></trkpt><trkpt lat="45.7899417" lon="8.9897683"><ele>349.6666666666667</ele><time>2026-04-03T14:38:07.751Z</time></trkpt><trkpt lat="45.789995" lon="8.9898267"><ele>349.83333333333337</ele><time>2026-04-03T14:38:09.752Z</time></trkpt><trkpt lat="45.7900733" lon="8.9898233"><ele>350.0</ele><time>2026-04-03T14:38:11.751Z</time></trkpt><trkpt lat="45.7901567" lon="8.9898033"><ele>350.1666666666667</ele><time>2026-04-03T14:38:13.751Z</time></trkpt><trkpt lat="45.7902433" lon="8.9897883"><ele>350.33333333333337</ele><time>2026-04-03T14:38:15.751Z</time></trkpt><trkpt lat="45.79033" lon="8.989775"><ele>350.5</ele><time>2026-04-03T14:38:17.75Z</time></trkpt><trkpt lat="45.7904133" lon="8.98977"><ele>350.6666666666667</ele><time>2026-04-03T14:38:19.752Z</time></trkpt><trkpt lat="45.7904967" lon="8.9897583"><ele>350.8333333333333</ele><time>2026-04-03T14:38:21.75Z</time></trkpt><trkpt lat="45.7905767" lon="8.9897517"><ele>351.0</ele><time>2026-04-03T14:38:23.751Z</time></trkpt><trkpt lat="45.79065" lon="8.9897367"><ele>351.0</ele><time>2026-04-03T14:38:25.751Z</time></trkpt><trkpt lat="45.7907217" lon="8.98972"><ele>351.0</ele><time>2026-04-03T14:38:27.75Z</time></trkpt><trkpt lat="45.79079" lon="8.98971"><ele>351.0</ele><time>2026-04-03T14:38:29.75Z</time></trkpt><trkpt lat="45.790865" lon="8.9896967"><ele>351.0</ele><time>2026-04-03T14:38:31.751Z</time></trkpt><trkpt lat="45.7909383" lon="8.9896883"><ele>351.0</ele><time>2026-04-03T14:38:33.749Z</time></trkpt><trkpt lat="45.791015" lon="8.9896833"><ele>351.0</ele><time>2026-04-03T14:38:35.749Z</time></trkpt><trkpt lat="45.7911017" lon="8.9896717"><ele>351.5</ele><time>2026-04-03T14:38:37.749Z</time></trkpt><trkpt lat="45.7911833" lon="8.9896733"><ele>352.0</ele><time>2026-04-03T14:38:39.749Z</time></trkpt><trkpt lat="45.7912567" lon="8.9896933"><ele>352.5</ele><time>2026-04-03T14:38:41.749Z</time></trkpt><trkpt lat="45.79133" lon="8.9897333"><ele>353.0</ele><time>2026-04-03T14:38:43.749Z</time></trkpt><trkpt lat="45.7913967" lon="8.9897883"><ele>353.5</ele><time>2026-04-03T14:38:45.75Z</time></trkpt><trkpt lat="45.7914583" lon="8.9898483"><ele>354.0</ele><time>2026-04-03T14:38:47.75Z</time></trkpt><trkpt lat="45.7915167" lon="8.98991"><ele>354.0</ele><time>2026-04-03T14:38:49.75Z</time></trkpt><trkpt lat="45.7915767" lon="8.9899683"><ele>354.0</ele><time>2026-04-03T14:38:51.751Z</time></trkpt><trkpt lat="45.791635" lon="8.990035"><ele>354.0</ele><time>2026-04-03T14:38:53.75Z</time></trkpt><trkpt lat="45.7916967" lon="8.9901"><ele>354.0</ele><time>2026-04-03T14:38:55.75Z</time></trkpt><trkpt lat="45.7917617" lon="8.99016"><ele>354.0</ele><time>2026-04-03T14:38:57.75Z</time></trkpt><trkpt lat="45.7918217" lon="8.9902233"><ele>354.0</ele><time>2026-04-03T14:38:59.75Z</time></trkpt><trkpt lat="45.7918867" lon="8.9902817"><ele>354.14285714285717</ele><time>2026-04-03T14:39:01.75Z</time></trkpt><trkpt lat="45.7919483" lon="8.9903417"><ele>354.2857142857143</ele><time>2026-04-03T14:39:03.75Z</time></trkpt><trkpt lat="45.792005" lon="8.9903933"><ele>354.42857142857144</ele><time>2026-04-03T14:39:05.752Z</time></trkpt><trkpt lat="45.79206" lon="8.9904483"><ele>354.57142857142856</ele><time>2026-04-03T14:39:07.752Z</time></trkpt><trkpt lat="45.7921183" lon="8.9904983"><ele>354.7142857142857</ele><time>2026-04-03T14:39:09.752Z</time></trkpt><trkpt lat="45.7921783" lon="8.99056"><ele>354.85714285714283</ele><time>2026-04-03T14:39:11.75Z</time></trkpt><trkpt lat="45.7922367" lon="8.9906167"><ele>355.0</ele><time>2026-04-03T14:39:13.75Z</time></trkpt><trkpt lat="45.7922983" lon="8.9906683"><ele>355.0</ele><time>2026-04-03T14:39:15.75Z</time></trkpt><trkpt lat="45.79236" lon="8.9907183"><ele>355.0</ele><time>2026-04-03T14:39:17.75Z</time></trkpt><trkpt lat="45.7924117" lon="8.99078"><ele>355.0</ele><time>2026-04-03T14:39:19.75Z</time></trkpt><trkpt lat="45.792485" lon="8.9907867"><ele>355.0</ele><time>2026-04-03T14:39:22.75Z</time></trkpt><trkpt lat="45.7925" lon="8.9906617"><ele>355.0</ele><time>2026-04-03T14:39:25.752Z</time></trkpt><trkpt lat="45.7924967" lon="8.9905483"><ele>355.0</ele><time>2026-04-03T14:39:27.752Z</time></trkpt><trkpt lat="45.7924833" lon="8.9903667"><ele>355.0</ele><time>2026-04-03T14:39:30.751Z</time></trkpt><trkpt lat="45.7924733" lon="8.9902433"><ele>355.0</ele><time>2026-04-03T14:39:32.752Z</time></trkpt><trkpt lat="45.7924683" lon="8.9901167"><ele>355.0</ele><time>2026-04-03T14:39:34.751Z</time></trkpt><trkpt lat="45.7924617" lon="8.9899917"><ele>355.0</ele><time>2026-04-03T14:39:36.75Z</time></trkpt><trkpt lat="45.7924467" lon="8.989865"><ele>355.0</ele><time>2026-04-03T14:39:38.751Z</time></trkpt><trkpt lat="45.7924167" lon="8.989755"><ele>355.0</ele><time>2026-04-03T14:39:40.75Z</time></trkpt><trkpt lat="45.792385" lon="8.989655"><ele>354.8333333333333</ele><time>2026-04-03T14:39:42.751Z</time></trkpt><trkpt lat="45.7923667" lon="8.9895583"><ele>354.66666666666663</ele><time>2026-04-03T14:39:44.751Z</time></trkpt><trkpt lat="45.7923883" lon="8.9894467"><ele>354.5</ele><time>2026-04-03T14:39:46.751Z</time></trkpt><trkpt lat="45.7924367" lon="8.9893567"><ele>354.3333333333333</ele><time>2026-04-03T14:39:48.75Z</time></trkpt><trkpt lat="45.792495" lon="8.9892783"><ele>354.1666666666667</ele><time>2026-04-03T14:39:50.751Z</time></trkpt><trkpt lat="45.7925633" lon="8.9891983"><ele>354.0</ele><time>2026-04-03T14:39:52.75Z</time></trkpt><trkpt lat="45.7926267" lon="8.98912"><ele>353.8333333333333</ele><time>2026-04-03T14:39:54.75Z</time></trkpt><trkpt lat="45.792695" lon="8.9890367"><ele>353.6666666666667</ele><time>2026-04-03T14:39:56.751Z</time></trkpt><trkpt lat="45.79276" lon="8.9889683"><ele>353.5</ele><time>2026-04-03T14:39:58.75Z</time></trkpt><trkpt lat="45.792825" lon="8.9889067"><ele>353.33333333333337</ele><time>2026-04-03T14:40:00.75Z</time></trkpt><trkpt lat="45.792885" lon="8.9888333"><ele>353.1666666666667</ele><time>2026-04-03T14:40:02.751Z</time></trkpt><trkpt lat="45.7929367" lon="8.9887583"><ele>353.0</ele><time>2026-04-03T14:40:04.75Z</time></trkpt><trkpt lat="45.7929933" lon="8.9886817"><ele>353.0</ele><time>2026-04-03T14:40:06.751Z</time></trkpt><trkpt lat="45.7930583" lon="8.98861"><ele>353.0</ele><time>2026-04-03T14:40:08.751Z</time></trkpt><trkpt lat="45.7931217" lon="8.9885383"><ele>353.0</ele><time>2026-04-03T14:40:10.75Z</time></trkpt><trkpt lat="45.79318" lon="8.9884533"><ele>353.0</ele><time>2026-04-03T14:40:12.75Z</time></trkpt><trkpt lat="45.793235" lon="8.9883783"><ele>353.0</ele><time>2026-04-03T14:40:14.75Z</time></trkpt><trkpt lat="45.7932933" lon="8.9883083"><ele>353.0</ele><time>2026-04-03T14:40:16.749Z</time></trkpt><trkpt lat="45.7933583" lon="8.9882417"><ele>353.5</ele><time>2026-04-03T14:40:18.749Z</time></trkpt><trkpt lat="45.7934317" lon="8.988165"><ele>354.0</ele><time>2026-04-03T14:40:20.751Z</time></trkpt><trkpt lat="45.793495" lon="8.988095"><ele>354.5</ele><time>2026-04-03T14:40:22.75Z</time></trkpt><trkpt lat="45.79355" lon="8.9880117"><ele>355.0</ele><time>2026-04-03T14:40:24.752Z</time></trkpt><trkpt lat="45.7936117" lon="8.987935"><ele>355.5</ele><time>2026-04-03T14:40:26.751Z</time></trkpt><trkpt lat="45.7936783" lon="8.98786"><ele>356.0</ele><time>2026-04-03T14:40:28.75Z</time></trkpt><trkpt lat="45.7937417" lon="8.9877817"><ele>356.33333333333337</ele><time>2026-04-03T14:40:30.749Z</time></trkpt><trkpt lat="45.7938033" lon="8.9877133"><ele>356.6666666666667</ele><time>2026-04-03T14:40:32.75Z</time></trkpt><trkpt lat="45.79387" lon="8.987645"><ele>357.0</ele><time>2026-04-03T14:40:34.749Z</time></trkpt><trkpt lat="45.7939333" lon="8.9875683"><ele>357.3333333333333</ele><time>2026-04-03T14:40:36.749Z</time></trkpt><trkpt lat="45.7939967" lon="8.9874917"><ele>357.66666666666663</ele><time>2026-04-03T14:40:38.75Z</time></trkpt><trkpt lat="45.7940633" lon="8.98742"><ele>358.0</ele><time>2026-04-03T14:40:40.75Z</time></trkpt><trkpt lat="45.79413" lon="8.9873567"><ele>358.0</ele><time>2026-04-03T14:40:42.75Z</time></trkpt><trkpt lat="45.794195" lon="8.9872867"><ele>358.0</ele><time>2026-04-03T14:40:44.75Z</time></trkpt><trkpt lat="45.7942417" lon="8.9871917"><ele>358.0</ele><time>2026-04-03T14:40:46.749Z</time></trkpt><trkpt lat="45.7942967" lon="8.9871"><ele>358.0</ele><time>2026-04-03T14:40:48.75Z</time></trkpt><trkpt lat="45.7943467" lon="8.987015"><ele>358.0</ele><time>2026-04-03T14:40:50.751Z</time></trkpt><trkpt lat="45.7943967" lon="8.9869267"><ele>358.0</ele><time>2026-04-03T14:40:52.75Z</time></trkpt><trkpt lat="45.7944417" lon="8.9868333"><ele>358.14285714285717</ele><time>2026-04-03T14:40:54.75Z</time></trkpt><trkpt lat="45.7944933" lon="8.9867533"><ele>358.2857142857143</ele><time>2026-04-03T14:40:56.751Z</time></trkpt><trkpt lat="45.794545" lon="8.9866933"><ele>358.42857142857144</ele><time>2026-04-03T14:40:58.751Z</time></trkpt><trkpt lat="45.7945867" lon="8.986615"><ele>358.57142857142856</ele><time>2026-04-03T14:41:00.75Z</time></trkpt><trkpt lat="45.7946317" lon="8.98654"><ele>358.7142857142857</ele><time>2026-04-03T14:41:02.751Z</time></trkpt><trkpt lat="45.7946767" lon="8.986455"><ele>358.8571428571429</ele><time>2026-04-03T14:41:04.751Z</time></trkpt><trkpt lat="45.7947267" lon="8.9863733"><ele>359.0</ele><time>2026-04-03T14:41:06.75Z</time></trkpt><trkpt lat="45.79477" lon="8.9862833"><ele>359.0</ele><time>2026-04-03T14:41:08.75Z</time></trkpt><trkpt lat="45.7948183" lon="8.9862017"><ele>359.0</ele><time>2026-04-03T14:41:10.75Z</time></trkpt><trkpt lat="45.7948583" lon="8.9861233"><ele>359.0</ele><time>2026-04-03T14:41:12.749Z</time></trkpt><trkpt lat="45.794905" lon="8.9860183"><ele>359.0</ele><time>2026-04-03T14:41:14.751Z</time></trkpt><trkpt lat="45.794935" lon="8.9859383"><ele>359.0</ele><time>2026-04-03T14:41:16.749Z</time></trkpt><trkpt lat="45.79496" lon="8.9858533"><ele>359.0</ele><time>2026-04-03T14:41:20.75Z</time></trkpt><trkpt lat="45.7950133" lon="8.9857783"><ele>359.0</ele><time>2026-04-03T14:41:24.75Z</time></trkpt><trkpt lat="45.7950517" lon="8.9856717"><ele>359.14285714285717</ele><time>2026-04-03T14:41:27.749Z</time></trkpt><trkpt lat="45.7950833" lon="8.9855833"><ele>359.28571428571433</ele><time>2026-04-03T14:41:29.749Z</time></trkpt><trkpt lat="45.7951017" lon="8.985485"><ele>359.42857142857144</ele><time>2026-04-03T14:41:31.75Z</time></trkpt><trkpt lat="45.79513" lon="8.9854017"><ele>359.57142857142856</ele><time>2026-04-03T14:41:33.749Z</time></trkpt><trkpt lat="45.7951967" lon="8.9853817"><ele>359.7142857142857</ele><time>2026-04-03T14:41:35.75Z</time></trkpt><trkpt lat="45.7952633" lon="8.9853783"><ele>359.85714285714283</ele><time>2026-04-03T14:41:37.751Z</time></trkpt><trkpt lat="45.795335" lon="8.9853633"><ele>360.0</ele><time>2026-04-03T14:41:39.751Z</time></trkpt><trkpt lat="45.7954017" lon="8.9853633"><ele>360.0</ele><time>2026-04-03T14:41:41.75Z</time></trkpt><trkpt lat="45.7954733" lon="8.9853667"><ele>360.0</ele><time>2026-04-03T14:41:43.751Z</time></trkpt><trkpt lat="45.7955883" lon="8.9853483"><ele>360.0</ele><time>2026-04-03T14:41:46.751Z</time></trkpt><trkpt lat="45.7956667" lon="8.9853417"><ele>360.0</ele><time>2026-04-03T14:41:48.751Z</time></trkpt><trkpt lat="45.7957433" lon="8.98533"><ele>360.0</ele><time>2026-04-03T14:41:50.751Z</time></trkpt><trkpt lat="45.795815" lon="8.9853233"><ele>360.0</ele><time>2026-04-03T14:41:52.751Z</time></trkpt><trkpt lat="45.7958883" lon="8.9853083"><ele>360.0</ele><time>2026-04-03T14:41:54.751Z</time></trkpt><trkpt lat="45.7959683" lon="8.9852717"><ele>360.0</ele><time>2026-04-03T14:41:56.751Z</time></trkpt><trkpt lat="45.7960517" lon="8.98524"><ele>360.0</ele><time>2026-04-03T14:41:58.75Z</time></trkpt><trkpt lat="45.7961333" lon="8.9852183"><ele>360.0</ele><time>2026-04-03T14:42:00.751Z</time></trkpt><trkpt lat="45.7962117" lon="8.9852"><ele>360.0</ele><time>2026-04-03T14:42:02.751Z</time></trkpt><trkpt lat="45.7962917" lon="8.9851783"><ele>360.0</ele><time>2026-04-03T14:42:04.75Z</time></trkpt><trkpt lat="45.7963683" lon="8.9851683"><ele>359.3333333333333</ele><time>2026-04-03T14:42:06.751Z</time></trkpt><trkpt lat="45.7964517" lon="8.98515"><ele>358.6666666666667</ele><time>2026-04-03T14:42:08.752Z</time></trkpt><trkpt lat="45.79653" lon="8.9851383"><ele>358.0</ele><time>2026-04-03T14:42:10.75Z</time></trkpt><trkpt lat="45.79661" lon="8.9851317"><ele>357.33333333333337</ele><time>2026-04-03T14:42:12.75Z</time></trkpt><trkpt lat="45.7966833" lon="8.9851117"><ele>356.6666666666667</ele><time>2026-04-03T14:42:14.751Z</time></trkpt><trkpt lat="45.7967583" lon="8.9850883"><ele>356.0</ele><time>2026-04-03T14:42:16.75Z</time></trkpt><trkpt lat="45.796825" lon="8.9850883"><ele>356.1666666666667</ele><time>2026-04-03T14:42:18.751Z</time></trkpt><trkpt lat="45.7968883" lon="8.9851667"><ele>356.33333333333337</ele><time>2026-04-03T14:42:21.751Z</time></trkpt><trkpt lat="45.7969033" lon="8.9852933"><ele>356.5</ele><time>2026-04-03T14:42:24.75Z</time></trkpt><trkpt lat="45.79691" lon="8.9853933"><ele>356.6666666666667</ele><time>2026-04-03T14:42:26.75Z</time></trkpt><trkpt lat="45.7969233" lon="8.98555"><ele>356.8333333333333</ele><time>2026-04-03T14:42:29.751Z</time></trkpt><trkpt lat="45.796955" lon="8.9856467"><ele>357.0</ele><time>2026-04-03T14:42:31.751Z</time></trkpt><trkpt lat="45.797" lon="8.985735"><ele>357.0</ele><time>2026-04-03T14:42:33.749Z</time></trkpt><trkpt lat="45.797035" lon="8.9858283"><ele>357.0</ele><time>2026-04-03T14:42:35.751Z</time></trkpt><trkpt lat="45.7970667" lon="8.9859233"><ele>357.0</ele><time>2026-04-03T14:42:37.749Z</time></trkpt><trkpt lat="45.797105" lon="8.98601"><ele>357.0</ele><time>2026-04-03T14:42:39.75Z</time></trkpt><trkpt lat="45.7971383" lon="8.9861"><ele>357.0</ele><time>2026-04-03T14:42:41.751Z</time></trkpt><trkpt lat="45.7971683" lon="8.9861933"><ele>357.0</ele><time>2026-04-03T14:42:43.75Z</time></trkpt><trkpt lat="45.7972" lon="8.9862917"><ele>357.0</ele><time>2026-04-03T14:42:45.752Z</time></trkpt><trkpt lat="45.7972217" lon="8.9863917"><ele>357.2857142857143</ele><time>2026-04-03T14:42:47.749Z</time></trkpt><trkpt lat="45.7972483" lon="8.9864917"><ele>357.57142857142856</ele><time>2026-04-03T14:42:49.75Z</time></trkpt><trkpt lat="45.7972767" lon="8.986585"><ele>357.8571428571429</ele><time>2026-04-03T14:42:51.75Z</time></trkpt><trkpt lat="45.7973033" lon="8.9866833"><ele>358.1428571428571</ele><time>2026-04-03T14:42:53.75Z</time></trkpt><trkpt lat="45.7973317" lon="8.9867767"><ele>358.42857142857144</ele><time>2026-04-03T14:42:55.75Z</time></trkpt><trkpt lat="45.7973633" lon="8.98686"><ele>358.7142857142857</ele><time>2026-04-03T14:42:57.75Z</time></trkpt><trkpt lat="45.797405" lon="8.9869383"><ele>359.0</ele><time>2026-04-03T14:42:59.75Z</time></trkpt><trkpt lat="45.7974683" lon="8.9870267"><ele>359.42857142857144</ele><time>2026-04-03T14:43:02.75Z</time></trkpt><trkpt lat="45.7975483" lon="8.98705"><ele>359.8571428571429</ele><time>2026-04-03T14:43:05.751Z</time></trkpt><trkpt lat="45.7976067" lon="8.9870117"><ele>360.2857142857143</ele><time>2026-04-03T14:43:09.75Z</time></trkpt><trkpt lat="45.79767" lon="8.9869867"><ele>360.7142857142857</ele><time>2026-04-03T14:43:12.751Z</time></trkpt><trkpt lat="45.79776" lon="8.9869583"><ele>361.1428571428571</ele><time>2026-04-03T14:43:15.751Z</time></trkpt><trkpt lat="45.7978267" lon="8.9869583"><ele>361.57142857142856</ele><time>2026-04-03T14:43:17.752Z</time></trkpt><trkpt lat="45.7978917" lon="8.9869467"><ele>362.0</ele><time>2026-04-03T14:43:19.751Z</time></trkpt><trkpt lat="45.797975" lon="8.9869317"><ele>362.5</ele><time>2026-04-03T14:43:22.751Z</time></trkpt><trkpt lat="45.7980383" lon="8.986885"><ele>363.0</ele><time>2026-04-03T14:43:24.751Z</time></trkpt><trkpt lat="45.798105" lon="8.9868367"><ele>363.5</ele><time>2026-04-03T14:43:26.752Z</time></trkpt><trkpt lat="45.7981733" lon="8.9867817"><ele>364.0</ele><time>2026-04-03T14:43:28.75Z</time></trkpt><trkpt lat="45.7982433" lon="8.9867217"><ele>364.5</ele><time>2026-04-03T14:43:30.749Z</time></trkpt><trkpt lat="45.7983133" lon="8.98667"><ele>365.0</ele><time>2026-04-03T14:43:32.75Z</time></trkpt><trkpt lat="45.798385" lon="8.98662"><ele>365.00000000000006</ele><time>2026-04-03T14:43:34.751Z</time></trkpt><trkpt lat="45.798455" lon="8.986575"><ele>365.0</ele><time>2026-04-03T14:43:36.75Z</time></trkpt><trkpt lat="45.7985183" lon="8.98653"><ele>365.0</ele><time>2026-04-03T14:43:38.751Z</time></trkpt><trkpt lat="45.79857" lon="8.9864733"><ele>365.0</ele><time>2026-04-03T14:43:40.75Z</time></trkpt><trkpt lat="45.7986217" lon="8.98641"><ele>365.0</ele><time>2026-04-03T14:43:42.751Z</time></trkpt><trkpt lat="45.7986833" lon="8.9863467"><ele>365.00000000000006</ele><time>2026-04-03T14:43:44.751Z</time></trkpt><trkpt lat="45.7987367" lon="8.9862817"><ele>365.0</ele><time>2026-04-03T14:43:46.75Z</time></trkpt><trkpt lat="45.7987883" lon="8.9862183"><ele>365.00000000000006</ele><time>2026-04-03T14:43:48.751Z</time></trkpt><trkpt lat="45.7988483" lon="8.9861583"><ele>365.0</ele><time>2026-04-03T14:43:50.751Z</time></trkpt><trkpt lat="45.798905" lon="8.9860833"><ele>365.0</ele><time>2026-04-03T14:43:52.751Z</time></trkpt><trkpt lat="45.79896" lon="8.986025"><ele>365.0</ele><time>2026-04-03T14:43:54.75Z</time></trkpt><trkpt lat="45.7990183" lon="8.9859667"><ele>365.0</ele><time>2026-04-03T14:43:56.751Z</time></trkpt><trkpt lat="45.7990817" lon="8.9859183"><ele>365.00000000000006</ele><time>2026-04-03T14:43:58.751Z</time></trkpt><trkpt lat="45.7991467" lon="8.985865"><ele>365.0</ele><time>2026-04-03T14:44:00.751Z</time></trkpt><trkpt lat="45.7991983" lon="8.9858"><ele>365.00000000000006</ele><time>2026-04-03T14:44:02.752Z</time></trkpt><trkpt lat="45.7992533" lon="8.985725"><ele>365.0</ele><time>2026-04-03T14:44:04.751Z</time></trkpt><trkpt lat="45.7992883" lon="8.985635"><ele>365.0</ele><time>2026-04-03T14:44:06.751Z</time></trkpt><trkpt lat="45.7993117" lon="8.985535"><ele>365.0</ele><time>2026-04-03T14:44:08.752Z</time></trkpt><trkpt lat="45.79933" lon="8.985445"><ele>365.0</ele><time>2026-04-03T14:44:10.75Z</time></trkpt><trkpt lat="45.7993633" lon="8.9853583"><ele>365.00000000000006</ele><time>2026-04-03T14:44:12.75Z</time></trkpt><trkpt lat="45.7993983" lon="8.9852633"><ele>365.0</ele><time>2026-04-03T14:44:14.752Z</time></trkpt><trkpt lat="45.799435" lon="8.9851767"><ele>365.00000000000006</ele><time>2026-04-03T14:44:16.751Z</time></trkpt><trkpt lat="45.7994733" lon="8.9850983"><ele>365.0</ele><time>2026-04-03T14:44:18.751Z</time></trkpt><trkpt lat="45.799505" lon="8.98501"><ele>365.0</ele><time>2026-04-03T14:44:20.752Z</time></trkpt><trkpt lat="45.799535" lon="8.9849233"><ele>365.0</ele><time>2026-04-03T14:44:22.75Z</time></trkpt><trkpt lat="45.799565" lon="8.9848433"><ele>365.0</ele><time>2026-04-03T14:44:24.75Z</time></trkpt><trkpt lat="45.7995967" lon="8.9847633"><ele>365.00000000000006</ele><time>2026-04-03T14:44:26.752Z</time></trkpt><trkpt lat="45.79965" lon="8.98466"><ele>365.0</ele><time>2026-04-03T14:44:29.751Z</time></trkpt><trkpt lat="45.7997083" lon="8.984555"><ele>365.0</ele><time>2026-04-03T14:44:32.751Z</time></trkpt><trkpt lat="45.799755" lon="8.98446"><ele>365.0</ele><time>2026-04-03T14:44:35.752Z</time></trkpt><trkpt lat="45.7997783" lon="8.9843433"><ele>365.0</ele><time>2026-04-03T14:44:38.751Z</time></trkpt><trkpt lat="45.7998167" lon="8.984255"><ele>365.0</ele><time>2026-04-03T14:44:41.751Z</time></trkpt><trkpt lat="45.7998467" lon="8.9841417"><ele>365.0</ele><time>2026-04-03T14:44:44.751Z</time></trkpt><trkpt lat="45.7998933" lon="8.984045"><ele>365.0</ele><time>2026-04-03T14:44:47.751Z</time></trkpt><trkpt lat="45.7999317" lon="8.983945"><ele>365.6666666666667</ele><time>2026-04-03T14:44:50.751Z</time></trkpt><trkpt lat="45.7999717" lon="8.9838367"><ele>366.33333333333337</ele><time>2026-04-03T14:44:53.752Z</time></trkpt><trkpt lat="45.7999817" lon="8.9837183"><ele>367.0</ele><time>2026-04-03T14:44:56.753Z</time></trkpt><trkpt lat="45.7999933" lon="8.98361"><ele>367.6666666666667</ele><time>2026-04-03T14:44:59.752Z</time></trkpt><trkpt lat="45.79999" lon="8.9835117"><ele>368.3333333333333</ele><time>2026-04-03T14:45:02.753Z</time></trkpt><trkpt lat="45.799965" lon="8.9834067"><ele>369.0</ele><time>2026-04-03T14:45:05.751Z</time></trkpt><trkpt lat="45.79994" lon="8.9832767"><ele>369.3333333333333</ele><time>2026-04-03T14:45:08.753Z</time></trkpt><trkpt lat="45.7999217" lon="8.9831867"><ele>369.6666666666667</ele><time>2026-04-03T14:45:10.751Z</time></trkpt><trkpt lat="45.7999017" lon="8.9830983"><ele>370.0</ele><time>2026-04-03T14:45:12.751Z</time></trkpt><trkpt lat="45.79988" lon="8.9829717"><ele>370.33333333333337</ele><time>2026-04-03T14:45:15.752Z</time></trkpt><trkpt lat="45.7998483" lon="8.982845"><ele>370.6666666666667</ele><time>2026-04-03T14:45:18.751Z</time></trkpt><trkpt lat="45.7998117" lon="8.9827283"><ele>371.0</ele><time>2026-04-03T14:45:21.751Z</time></trkpt><trkpt lat="45.7997933" lon="8.9826417"><ele>371.0</ele><time>2026-04-03T14:45:23.751Z</time></trkpt><trkpt lat="45.7997683" lon="8.98252"><ele>371.0</ele><time>2026-04-03T14:45:26.751Z</time></trkpt><trkpt lat="45.7997367" lon="8.9823967"><ele>371.0</ele><time>2026-04-03T14:45:29.75Z</time></trkpt><trkpt lat="45.79971" lon="8.98227"><ele>371.0</ele><time>2026-04-03T14:45:32.752Z</time></trkpt><trkpt lat="45.7996983" lon="8.98218"><ele>371.0</ele><time>2026-04-03T14:45:34.752Z</time></trkpt><trkpt lat="45.7996933" lon="8.9820883"><ele>371.0</ele><time>2026-04-03T14:45:36.752Z</time></trkpt><trkpt lat="45.7996867" lon="8.9819533"><ele>371.0</ele><time>2026-04-03T14:45:39.751Z</time></trkpt><trkpt lat="45.7996717" lon="8.9818233"><ele>371.0</ele><time>2026-04-03T14:45:42.752Z</time></trkpt><trkpt lat="45.7996433" lon="8.9816967"><ele>371.0</ele><time>2026-04-03T14:45:45.751Z</time></trkpt><trkpt lat="45.7996167" lon="8.98159"><ele>371.0</ele><time>2026-04-03T14:45:48.751Z</time></trkpt><trkpt lat="45.7995883" lon="8.9815033"><ele>371.0</ele><time>2026-04-03T14:45:51.751Z</time></trkpt><trkpt lat="45.799545" lon="8.98143"><ele>371.0</ele><time>2026-04-03T14:45:55.751Z</time></trkpt><trkpt lat="45.7994967" lon="8.9813517"><ele>371.1666666666667</ele><time>2026-04-03T14:45:59.752Z</time></trkpt><trkpt lat="45.79943" lon="8.9812933"><ele>371.33333333333337</ele><time>2026-04-03T14:46:04.75Z</time></trkpt><trkpt lat="45.799365" lon="8.9812267"><ele>371.5</ele><time>2026-04-03T14:46:08.752Z</time></trkpt><trkpt lat="45.7993183" lon="8.9811317"><ele>371.6666666666667</ele><time>2026-04-03T14:46:12.751Z</time></trkpt><trkpt lat="45.7992767" lon="8.9810283"><ele>371.8333333333333</ele><time>2026-04-03T14:46:16.751Z</time></trkpt><trkpt lat="45.7992367" lon="8.9809467"><ele>372.0</ele><time>2026-04-03T14:46:19.751Z</time></trkpt><trkpt lat="45.7992017" lon="8.98086"><ele>374.6666666666667</ele><time>2026-04-03T14:46:22.751Z</time></trkpt><trkpt lat="45.79915" lon="8.980745"><ele>377.33333333333337</ele><time>2026-04-03T14:46:25.751Z</time></trkpt><trkpt lat="45.79912" lon="8.9806383"><ele>380.0</ele><time>2026-04-03T14:46:28.753Z</time></trkpt><trkpt lat="45.7990633" lon="8.9805367"><ele>382.6666666666667</ele><time>2026-04-03T14:46:31.752Z</time></trkpt><trkpt lat="45.7990267" lon="8.98046"><ele>385.33333333333337</ele><time>2026-04-03T14:46:33.751Z</time></trkpt><trkpt lat="45.798985" lon="8.9803917"><ele>388.0</ele><time>2026-04-03T14:46:35.751Z</time></trkpt><trkpt lat="45.79894" lon="8.9803167"><ele>388.0</ele><time>2026-04-03T14:46:37.751Z</time></trkpt><trkpt lat="45.7988883" lon="8.9802617"><ele>388.0</ele><time>2026-04-03T14:46:39.751Z</time></trkpt><trkpt lat="45.7988283" lon="8.980195"><ele>388.0</ele><time>2026-04-03T14:46:42.752Z</time></trkpt><trkpt lat="45.79876" lon="8.9801317"><ele>388.0</ele><time>2026-04-03T14:46:45.752Z</time></trkpt><trkpt lat="45.7986917" lon="8.9800567"><ele>388.0</ele><time>2026-04-03T14:46:48.752Z</time></trkpt><trkpt lat="45.798635" lon="8.9800067"><ele>388.0</ele><time>2026-04-03T14:46:50.753Z</time></trkpt><trkpt lat="45.7985733" lon="8.97996"><ele>388.0</ele><time>2026-04-03T14:46:52.752Z</time></trkpt><trkpt lat="45.7985217" lon="8.9799"><ele>387.7142857142857</ele><time>2026-04-03T14:46:54.752Z</time></trkpt><trkpt lat="45.7984717" lon="8.9798417"><ele>387.42857142857144</ele><time>2026-04-03T14:46:56.754Z</time></trkpt><trkpt lat="45.7984217" lon="8.9797783"><ele>387.14285714285717</ele><time>2026-04-03T14:46:58.753Z</time></trkpt><trkpt lat="45.79844" lon="8.979685"><ele>386.8571428571429</ele><time>2026-04-03T14:47:01.752Z</time></trkpt><trkpt lat="45.7985117" lon="8.97968"><ele>386.57142857142856</ele><time>2026-04-03T14:47:04.752Z</time></trkpt><trkpt lat="45.79858" lon="8.9796817"><ele>386.28571428571433</ele><time>2026-04-03T14:47:07.752Z</time></trkpt><trkpt lat="45.7986483" lon="8.97967"><ele>386.0</ele><time>2026-04-03T14:47:10.752Z</time></trkpt><trkpt lat="45.7987167" lon="8.9796367"><ele>385.8333333333333</ele><time>2026-04-03T14:47:13.752Z</time></trkpt><trkpt lat="45.7987733" lon="8.979575"><ele>385.66666666666663</ele><time>2026-04-03T14:47:16.752Z</time></trkpt><trkpt lat="45.7988267" lon="8.9794933"><ele>385.5</ele><time>2026-04-03T14:47:19.754Z</time></trkpt><trkpt lat="45.798885" lon="8.9793967"><ele>385.33333333333337</ele><time>2026-04-03T14:47:22.751Z</time></trkpt><trkpt lat="45.7989617" lon="8.9793233"><ele>385.1666666666667</ele><time>2026-04-03T14:47:25.752Z</time></trkpt><trkpt lat="45.79902" lon="8.9792683"><ele>385.0</ele><time>2026-04-03T14:47:27.752Z</time></trkpt><trkpt lat="45.799055" lon="8.979165"><ele>385.00000000000006</ele><time>2026-04-03T14:47:30.754Z</time></trkpt><trkpt lat="45.7990167" lon="8.97907"><ele>385.0</ele><time>2026-04-03T14:47:33.751Z</time></trkpt><trkpt lat="45.7989567" lon="8.97897"><ele>385.0</ele><time>2026-04-03T14:47:37.752Z</time></trkpt><trkpt lat="45.7988967" lon="8.9788917"><ele>385.0</ele><time>2026-04-03T14:47:40.752Z</time></trkpt><trkpt lat="45.7988617" lon="8.9788117"><ele>385.00000000000006</ele><time>2026-04-03T14:47:44.751Z</time></trkpt><trkpt lat="45.7988167" lon="8.9787417"><ele>385.0</ele><time>2026-04-03T14:47:47.752Z</time></trkpt><trkpt lat="45.79878" lon="8.9786567"><ele>385.00000000000006</ele><time>2026-04-03T14:47:50.752Z</time></trkpt><trkpt lat="45.7987317" lon="8.97856"><ele>385.0</ele><time>2026-04-03T14:47:53.751Z</time></trkpt><trkpt lat="45.79868" lon="8.97847"><ele>385.0</ele><time>2026-04-03T14:47:56.752Z</time></trkpt><trkpt lat="45.79864" lon="8.9783967"><ele>385.0</ele><time>2026-04-03T14:47:58.751Z</time></trkpt><trkpt lat="45.7986117" lon="8.9783033"><ele>385.00000000000006</ele><time>2026-04-03T14:48:01.751Z</time></trkpt><trkpt lat="45.7985733" lon="8.9782017"><ele>385.0</ele><time>2026-04-03T14:48:05.752Z</time></trkpt><trkpt lat="45.79855" lon="8.9781"><ele>385.33333333333337</ele><time>2026-04-03T14:48:09.751Z</time></trkpt><trkpt lat="45.7985083" lon="8.9779983"><ele>385.6666666666667</ele><time>2026-04-03T14:48:12.754Z</time></trkpt><trkpt lat="45.79846" lon="8.9778967"><ele>386.0</ele><time>2026-04-03T14:48:15.749Z</time></trkpt><trkpt lat="45.7984133" lon="8.9778283"><ele>386.33333333333337</ele><time>2026-04-03T14:48:17.751Z</time></trkpt><trkpt lat="45.79837" lon="8.9777483"><ele>386.6666666666667</ele><time>2026-04-03T14:48:19.751Z</time></trkpt><trkpt lat="45.7983167" lon="8.9776567"><ele>387.0</ele><time>2026-04-03T14:48:21.751Z</time></trkpt><trkpt lat="45.7982667" lon="8.9775567"><ele>387.6666666666667</ele><time>2026-04-03T14:48:23.75Z</time></trkpt><trkpt lat="45.7982367" lon="8.9774667"><ele>388.33333333333337</ele><time>2026-04-03T14:48:25.75Z</time></trkpt><trkpt lat="45.7981933" lon="8.97739"><ele>389.0</ele><time>2026-04-03T14:48:27.751Z</time></trkpt><trkpt lat="45.7981333" lon="8.9773183"><ele>389.6666666666667</ele><time>2026-04-03T14:48:29.751Z</time></trkpt><trkpt lat="45.7980533" lon="8.9772333"><ele>390.33333333333337</ele><time>2026-04-03T14:48:31.75Z</time></trkpt><trkpt lat="45.7979667" lon="8.9771617"><ele>391.0</ele><time>2026-04-03T14:48:33.751Z</time></trkpt><trkpt lat="45.7978583" lon="8.9771167"><ele>391.00000000000006</ele><time>2026-04-03T14:48:35.751Z</time></trkpt><trkpt lat="45.7977967" lon="8.9770933"><ele>391.0</ele><time>2026-04-03T14:48:36.751Z</time></trkpt><trkpt lat="45.7977017" lon="8.9770167"><ele>391.0</ele><time>2026-04-03T14:48:38.752Z</time></trkpt><trkpt lat="45.79763" lon="8.9769267"><ele>391.0</ele><time>2026-04-03T14:48:40.75Z</time></trkpt><trkpt lat="45.7975567" lon="8.976895"><ele>391.00000000000006</ele><time>2026-04-03T14:48:43.751Z</time></trkpt><trkpt lat="45.7974917" lon="8.9769633"><ele>391.0</ele><time>2026-04-03T14:48:45.75Z</time></trkpt><trkpt lat="45.7974183" lon="8.9770267"><ele>390.83333333333337</ele><time>2026-04-03T14:48:48.75Z</time></trkpt><trkpt lat="45.79735" lon="8.977085"><ele>390.6666666666667</ele><time>2026-04-03T14:48:51.752Z</time></trkpt><trkpt lat="45.7972767" lon="8.9771567"><ele>390.5</ele><time>2026-04-03T14:48:54.751Z</time></trkpt><trkpt lat="45.7972217" lon="8.9772317"><ele>390.33333333333337</ele><time>2026-04-03T14:48:58.751Z</time></trkpt><trkpt lat="45.79717" lon="8.9773367"><ele>390.1666666666667</ele><time>2026-04-03T14:49:01.75Z</time></trkpt><trkpt lat="45.7971217" lon="8.9774283"><ele>390.0</ele><time>2026-04-03T14:49:03.75Z</time></trkpt><trkpt lat="45.7970717" lon="8.9775"><ele>390.42857142857144</ele><time>2026-04-03T14:49:05.75Z</time></trkpt><trkpt lat="45.7970117" lon="8.9775817"><ele>390.85714285714283</ele><time>2026-04-03T14:49:07.75Z</time></trkpt><trkpt lat="45.7969533" lon="8.9776533"><ele>391.28571428571433</ele><time>2026-04-03T14:49:09.752Z</time></trkpt><trkpt lat="45.796905" lon="8.97772"><ele>391.7142857142857</ele><time>2026-04-03T14:49:11.752Z</time></trkpt><trkpt lat="45.796835" lon="8.977775"><ele>392.14285714285717</ele><time>2026-04-03T14:49:14.752Z</time></trkpt><trkpt lat="45.7967933" lon="8.977845"><ele>392.5714285714286</ele><time>2026-04-03T14:49:16.752Z</time></trkpt><trkpt lat="45.796735" lon="8.9778983"><ele>393.0</ele><time>2026-04-03T14:49:18.752Z</time></trkpt><trkpt lat="45.79668" lon="8.9779833"><ele>390.0</ele><time>2026-04-03T14:49:20.752Z</time></trkpt><trkpt lat="45.7966567" lon="8.9781067"><ele>387.0</ele><time>2026-04-03T14:49:22.751Z</time></trkpt><trkpt lat="45.796625" lon="8.9782417"><ele>384.0</ele><time>2026-04-03T14:49:24.752Z</time></trkpt><trkpt lat="45.7966033" lon="8.978375"><ele>381.0</ele><time>2026-04-03T14:49:26.753Z</time></trkpt><trkpt lat="45.7965983" lon="8.9785283"><ele>378.0</ele><time>2026-04-03T14:49:28.752Z</time></trkpt><trkpt lat="45.7965917" lon="8.9786683"><ele>377.4</ele><time>2026-04-03T14:49:30.751Z</time></trkpt><trkpt lat="45.7965933" lon="8.9788333"><ele>376.79999999999995</ele><time>2026-04-03T14:49:32.752Z</time></trkpt><trkpt lat="45.7965883" lon="8.97899"><ele>376.2</ele><time>2026-04-03T14:49:34.751Z</time></trkpt><trkpt lat="45.796565" lon="8.9791267"><ele>375.6</ele><time>2026-04-03T14:49:36.75Z</time></trkpt><trkpt lat="45.79655" lon="8.9792583"><ele>375.0</ele><time>2026-04-03T14:49:38.751Z</time></trkpt><trkpt lat="45.7965367" lon="8.9793917"><ele>374.3333333333333</ele><time>2026-04-03T14:49:40.754Z</time></trkpt><trkpt lat="45.7965017" lon="8.9794983"><ele>373.6666666666667</ele><time>2026-04-03T14:49:42.752Z</time></trkpt><trkpt lat="45.7964133" lon="8.9795667"><ele>373.0</ele><time>2026-04-03T14:49:44.75Z</time></trkpt><trkpt lat="45.796295" lon="8.979585"><ele>372.33333333333337</ele><time>2026-04-03T14:49:46.751Z</time></trkpt><trkpt lat="45.7962317" lon="8.9796"><ele>371.6666666666667</ele><time>2026-04-03T14:49:47.751Z</time></trkpt><trkpt lat="45.7961683" lon="8.979615"><ele>371.0</ele><time>2026-04-03T14:49:48.749Z</time></trkpt><trkpt lat="45.7960433" lon="8.9796433"><ele>369.7142857142857</ele><time>2026-04-03T14:49:50.751Z</time></trkpt><trkpt lat="45.7959783" lon="8.9796517"><ele>368.42857142857144</ele><time>2026-04-03T14:49:51.751Z</time></trkpt><trkpt lat="45.7959117" lon="8.97966"><ele>367.1428571428571</ele><time>2026-04-03T14:49:52.75Z</time></trkpt><trkpt lat="45.7958433" lon="8.97967"><ele>365.8571428571429</ele><time>2026-04-03T14:49:53.751Z</time></trkpt><trkpt lat="45.795775" lon="8.97968"><ele>364.57142857142856</ele><time>2026-04-03T14:49:54.75Z</time></trkpt><trkpt lat="45.7957067" lon="8.97969"><ele>363.2857142857143</ele><time>2026-04-03T14:49:55.75Z</time></trkpt><trkpt lat="45.7956367" lon="8.979695"><ele>362.0</ele><time>2026-04-03T14:49:56.752Z</time></trkpt><trkpt lat="45.7955667" lon="8.9796883"><ele>362.0</ele><time>2026-04-03T14:49:57.751Z</time></trkpt><trkpt lat="45.7955017" lon="8.9796867"><ele>362.0</ele><time>2026-04-03T14:49:58.751Z</time></trkpt><trkpt lat="45.7953817" lon="8.9796717"><ele>362.0</ele><time>2026-04-03T14:50:00.751Z</time></trkpt><trkpt lat="45.79527" lon="8.9796467"><ele>362.0</ele><time>2026-04-03T14:50:02.751Z</time></trkpt><trkpt lat="45.795165" lon="8.97962"><ele>362.0</ele><time>2026-04-03T14:50:04.752Z</time></trkpt><trkpt lat="45.795065" lon="8.9796083"><ele>362.5</ele><time>2026-04-03T14:50:06.751Z</time></trkpt><trkpt lat="45.7949783" lon="8.9796"><ele>363.0</ele><time>2026-04-03T14:50:08.751Z</time></trkpt><trkpt lat="45.794905" lon="8.9795767"><ele>363.5</ele><time>2026-04-03T14:50:10.75Z</time></trkpt><trkpt lat="45.7948783" lon="8.9794733"><ele>364.0</ele><time>2026-04-03T14:50:13.75Z</time></trkpt><trkpt lat="45.79486" lon="8.9793217"><ele>364.5</ele><time>2026-04-03T14:50:17.752Z</time></trkpt><trkpt lat="45.7948667" lon="8.97923"><ele>365.0</ele><time>2026-04-03T14:50:20.752Z</time></trkpt><trkpt lat="45.7948517" lon="8.9791267"><ele>365.83333333333337</ele><time>2026-04-03T14:50:23.75Z</time></trkpt><trkpt lat="45.79487" lon="8.979"><ele>366.6666666666667</ele><time>2026-04-03T14:50:26.753Z</time></trkpt><trkpt lat="45.794905" lon="8.9788933"><ele>367.5</ele><time>2026-04-03T14:50:29.752Z</time></trkpt><trkpt lat="45.79493" lon="8.9787933"><ele>368.3333333333333</ele><time>2026-04-03T14:50:32.752Z</time></trkpt><trkpt lat="45.7949617" lon="8.9786883"><ele>369.16666666666663</ele><time>2026-04-03T14:50:35.751Z</time></trkpt><trkpt lat="45.7949883" lon="8.97859"><ele>370.0</ele><time>2026-04-03T14:50:38.752Z</time></trkpt><trkpt lat="45.7950117" lon="8.9784967"><ele>369.99999999999994</ele><time>2026-04-03T14:50:42.752Z</time></trkpt><trkpt lat="45.7949983" lon="8.9783933"><ele>370.0</ele><time>2026-04-03T14:50:46.752Z</time></trkpt><trkpt lat="45.79498" lon="8.97829"><ele>370.0</ele><time>2026-04-03T14:50:50.751Z</time></trkpt><trkpt lat="45.7949483" lon="8.978205"><ele>370.0</ele><time>2026-04-03T14:50:54.749Z</time></trkpt><trkpt lat="45.7949067" lon="8.9781367"><ele>370.0</ele><time>2026-04-03T14:50:58.751Z</time></trkpt><trkpt lat="45.794865" lon="8.978055"><ele>369.99999999999994</ele><time>2026-04-03T14:51:02.753Z</time></trkpt><trkpt lat="45.7948183" lon="8.9779467"><ele>370.0</ele><time>2026-04-03T14:51:07.751Z</time></trkpt><trkpt lat="45.79479" lon="8.9778383"><ele>370.85714285714283</ele><time>2026-04-03T14:51:12.75Z</time></trkpt><trkpt lat="45.7947533" lon="8.9777467"><ele>371.7142857142857</ele><time>2026-04-03T14:51:16.752Z</time></trkpt><trkpt lat="45.7947133" lon="8.977655"><ele>372.57142857142856</ele><time>2026-04-03T14:51:20.752Z</time></trkpt><trkpt lat="45.7946683" lon="8.9775483"><ele>373.42857142857144</ele><time>2026-04-03T14:51:24.751Z</time></trkpt><trkpt lat="45.7946317" lon="8.97746"><ele>374.2857142857143</ele><time>2026-04-03T14:51:27.753Z</time></trkpt><trkpt lat="45.7945933" lon="8.9773867"><ele>375.1428571428571</ele><time>2026-04-03T14:51:30.753Z</time></trkpt><trkpt lat="45.794585" lon="8.9772883"><ele>376.0</ele><time>2026-04-03T14:51:34.75Z</time></trkpt><trkpt lat="45.7945583" lon="8.9771783"><ele>376.3333333333333</ele><time>2026-04-03T14:51:37.752Z</time></trkpt><trkpt lat="45.7945767" lon="8.9770567"><ele>376.66666666666663</ele><time>2026-04-03T14:51:40.751Z</time></trkpt><trkpt lat="45.7946233" lon="8.97699"><ele>377.0</ele><time>2026-04-03T14:51:42.753Z</time></trkpt><trkpt lat="45.794665" lon="8.9768933"><ele>377.3333333333333</ele><time>2026-04-03T14:51:44.751Z</time></trkpt><trkpt lat="45.7947117" lon="8.9767817"><ele>377.6666666666667</ele><time>2026-04-03T14:51:46.751Z</time></trkpt><trkpt lat="45.7947483" lon="8.9766883"><ele>378.0</ele><time>2026-04-03T14:51:48.751Z</time></trkpt><trkpt lat="45.7947933" lon="8.9766"><ele>378.0</ele><time>2026-04-03T14:51:50.75Z</time></trkpt><trkpt lat="45.7948383" lon="8.9764917"><ele>378.0</ele><time>2026-04-03T14:51:52.751Z</time></trkpt><trkpt lat="45.7948867" lon="8.9763983"><ele>378.0</ele><time>2026-04-03T14:51:54.751Z</time></trkpt><trkpt lat="45.7949283" lon="8.9763033"><ele>378.0</ele><time>2026-04-03T14:51:56.751Z</time></trkpt><trkpt lat="45.79498" lon="8.9762333"><ele>378.0</ele><time>2026-04-03T14:51:58.75Z</time></trkpt><trkpt lat="45.795035" lon="8.9761667"><ele>378.0</ele><time>2026-04-03T14:52:00.751Z</time></trkpt><trkpt lat="45.7950883" lon="8.9761117"><ele>378.0</ele><time>2026-04-03T14:52:02.751Z</time></trkpt><trkpt lat="45.7951417" lon="8.97603"><ele>378.0</ele><time>2026-04-03T14:52:04.751Z</time></trkpt><trkpt lat="45.79519" lon="8.9759433"><ele>378.0</ele><time>2026-04-03T14:52:06.75Z</time></trkpt><trkpt lat="45.79523" lon="8.975855"><ele>378.0</ele><time>2026-04-03T14:52:08.752Z</time></trkpt><trkpt lat="45.795255" lon="8.97576"><ele>378.0</ele><time>2026-04-03T14:52:10.753Z</time></trkpt><trkpt lat="45.7952767" lon="8.9756583"><ele>378.0</ele><time>2026-04-03T14:52:12.752Z</time></trkpt><trkpt lat="45.7952917" lon="8.9755667"><ele>378.0</ele><time>2026-04-03T14:52:14.75Z</time></trkpt><trkpt lat="45.7953317" lon="8.97546"><ele>376.8333333333333</ele><time>2026-04-03T14:52:16.751Z</time></trkpt><trkpt lat="45.7953667" lon="8.9753717"><ele>375.6666666666667</ele><time>2026-04-03T14:52:18.751Z</time></trkpt><trkpt lat="45.795405" lon="8.9752983"><ele>374.5</ele><time>2026-04-03T14:52:20.752Z</time></trkpt><trkpt lat="45.7954417" lon="8.9751983"><ele>373.33333333333337</ele><time>2026-04-03T14:52:22.751Z</time></trkpt><trkpt lat="45.79547" lon="8.9750767"><ele>372.1666666666667</ele><time>2026-04-03T14:52:25.752Z</time></trkpt><trkpt lat="45.79549" lon="8.9749733"><ele>371.0</ele><time>2026-04-03T14:52:27.752Z</time></trkpt><trkpt lat="45.7955117" lon="8.9748733"><ele>371.0</ele><time>2026-04-03T14:52:29.752Z</time></trkpt><trkpt lat="45.7955283" lon="8.9747733"><ele>371.0</ele><time>2026-04-03T14:52:31.753Z</time></trkpt><trkpt lat="45.79555" lon="8.9746533"><ele>371.0</ele><time>2026-04-03T14:52:34.752Z</time></trkpt><trkpt lat="45.7955633" lon="8.9745333"><ele>371.0</ele><time>2026-04-03T14:52:37.752Z</time></trkpt><trkpt lat="45.795575" lon="8.9744117"><ele>371.0</ele><time>2026-04-03T14:52:40.752Z</time></trkpt><trkpt lat="45.7956083" lon="8.974295"><ele>371.0</ele><time>2026-04-03T14:52:43.751Z</time></trkpt><trkpt lat="45.795635" lon="8.9742117"><ele>371.33333333333337</ele><time>2026-04-03T14:52:45.75Z</time></trkpt><trkpt lat="45.795675" lon="8.974135"><ele>371.6666666666667</ele><time>2026-04-03T14:52:47.751Z</time></trkpt><trkpt lat="45.7957133" lon="8.9740483"><ele>372.0</ele><time>2026-04-03T14:52:49.751Z</time></trkpt><trkpt lat="45.795735" lon="8.9739217"><ele>372.3333333333333</ele><time>2026-04-03T14:52:52.753Z</time></trkpt><trkpt lat="45.7957467" lon="8.9738067"><ele>372.66666666666663</ele><time>2026-04-03T14:52:54.751Z</time></trkpt><trkpt lat="45.795765" lon="8.973715"><ele>373.0</ele><time>2026-04-03T14:52:56.752Z</time></trkpt><trkpt lat="45.7958033" lon="8.9735983"><ele>373.0</ele><time>2026-04-03T14:52:59.752Z</time></trkpt><trkpt lat="45.7958183" lon="8.973505"><ele>373.0</ele><time>2026-04-03T14:53:01.752Z</time></trkpt><trkpt lat="45.795795" lon="8.973395"><ele>373.0</ele><time>2026-04-03T14:53:03.751Z</time></trkpt><trkpt lat="45.7958167" lon="8.97327"><ele>373.0</ele><time>2026-04-03T14:53:06.751Z</time></trkpt><trkpt lat="45.7958317" lon="8.9731717"><ele>373.0</ele><time>2026-04-03T14:53:08.751Z</time></trkpt><trkpt lat="45.79583" lon="8.9730783"><ele>373.0</ele><time>2026-04-03T14:53:10.751Z</time></trkpt><trkpt lat="45.7958533" lon="8.9729583"><ele>374.3333333333333</ele><time>2026-04-03T14:53:13.75Z</time></trkpt><trkpt lat="45.79588" lon="8.9728717"><ele>375.66666666666663</ele><time>2026-04-03T14:53:15.751Z</time></trkpt><trkpt lat="45.79589" lon="8.9727567"><ele>377.0</ele><time>2026-04-03T14:53:17.751Z</time></trkpt><trkpt lat="45.7958767" lon="8.9726133"><ele>378.3333333333333</ele><time>2026-04-03T14:53:19.752Z</time></trkpt><trkpt lat="45.7958917" lon="8.97249"><ele>379.6666666666667</ele><time>2026-04-03T14:53:21.751Z</time></trkpt><trkpt lat="45.79592" lon="8.9723633"><ele>381.0</ele><time>2026-04-03T14:53:23.753Z</time></trkpt><trkpt lat="45.7959417" lon="8.97224"><ele>381.0</ele><time>2026-04-03T14:53:25.751Z</time></trkpt><trkpt lat="45.79598" lon="8.9721267"><ele>381.0</ele><time>2026-04-03T14:53:27.75Z</time></trkpt><trkpt lat="45.7960167" lon="8.9720017"><ele>381.0</ele><time>2026-04-03T14:53:29.75Z</time></trkpt><trkpt lat="45.7960517" lon="8.971865"><ele>381.0</ele><time>2026-04-03T14:53:31.752Z</time></trkpt><trkpt lat="45.796075" lon="8.97175"><ele>381.0</ele><time>2026-04-03T14:53:33.75Z</time></trkpt><trkpt lat="45.7960733" lon="8.9716333"><ele>381.0</ele><time>2026-04-03T14:53:35.75Z</time></trkpt><trkpt lat="45.7960533" lon="8.97151"><ele>381.0</ele><time>2026-04-03T14:53:37.751Z</time></trkpt><trkpt lat="45.7960517" lon="8.9713917"><ele>381.0</ele><time>2026-04-03T14:53:39.751Z</time></trkpt><trkpt lat="45.7960567" lon="8.97128"><ele>381.0</ele><time>2026-04-03T14:53:41.752Z</time></trkpt><trkpt lat="45.7960483" lon="8.9711683"><ele>381.0</ele><time>2026-04-03T14:53:43.751Z</time></trkpt><trkpt lat="45.79605" lon="8.971035"><ele>381.0</ele><time>2026-04-03T14:53:45.753Z</time></trkpt><trkpt lat="45.7960433" lon="8.9709033"><ele>381.0</ele><time>2026-04-03T14:53:47.751Z</time></trkpt><trkpt lat="45.7960433" lon="8.970785"><ele>381.0</ele><time>2026-04-03T14:53:49.751Z</time></trkpt><trkpt lat="45.796045" lon="8.9706617"><ele>381.0</ele><time>2026-04-03T14:53:51.751Z</time></trkpt><trkpt lat="45.7960617" lon="8.9705633"><ele>381.0</ele><time>2026-04-03T14:53:53.751Z</time></trkpt><trkpt lat="45.7961117" lon="8.9704533"><ele>381.0</ele><time>2026-04-03T14:53:56.751Z</time></trkpt><trkpt lat="45.7961517" lon="8.970375"><ele>381.0</ele><time>2026-04-03T14:53:58.751Z</time></trkpt><trkpt lat="45.7961983" lon="8.9702983"><ele>381.0</ele><time>2026-04-03T14:54:00.75Z</time></trkpt><trkpt lat="45.7962583" lon="8.9702533"><ele>381.0</ele><time>2026-04-03T14:54:02.752Z</time></trkpt><trkpt lat="45.79632" lon="8.970215"><ele>381.0</ele><time>2026-04-03T14:54:04.751Z</time></trkpt><trkpt lat="45.7963883" lon="8.9701867"><ele>381.0</ele><time>2026-04-03T14:54:06.75Z</time></trkpt><trkpt lat="45.7964433" lon="8.97014"><ele>381.0</ele><time>2026-04-03T14:54:08.751Z</time></trkpt><trkpt lat="45.7964683" lon="8.9699633"><ele>381.0</ele><time>2026-04-03T14:54:18.751Z</time></trkpt><trkpt lat="45.79647" lon="8.96987"><ele>381.0</ele><time>2026-04-03T14:54:21.752Z</time></trkpt><trkpt lat="45.7964667" lon="8.9697583"><ele>380.57142857142856</ele><time>2026-04-03T14:54:24.751Z</time></trkpt><trkpt lat="45.7964567" lon="8.9696617"><ele>380.14285714285717</ele><time>2026-04-03T14:54:26.751Z</time></trkpt><trkpt lat="45.7964433" lon="8.96955"><ele>379.7142857142857</ele><time>2026-04-03T14:54:28.75Z</time></trkpt><trkpt lat="45.7964317" lon="8.96946"><ele>379.2857142857143</ele><time>2026-04-03T14:54:30.751Z</time></trkpt><trkpt lat="45.7964133" lon="8.9693417"><ele>378.8571428571429</ele><time>2026-04-03T14:54:33.75Z</time></trkpt><trkpt lat="45.79639" lon="8.9692267"><ele>378.42857142857144</ele><time>2026-04-03T14:54:36.751Z</time></trkpt><trkpt lat="45.7963667" lon="8.96914"><ele>378.0</ele><time>2026-04-03T14:54:39.752Z</time></trkpt><trkpt lat="45.796345" lon="8.969035"><ele>377.6666666666667</ele><time>2026-04-03T14:54:43.75Z</time></trkpt><trkpt lat="45.7963617" lon="8.96893"><ele>377.3333333333333</ele><time>2026-04-03T14:54:46.751Z</time></trkpt><trkpt lat="45.7963717" lon="8.9688033"><ele>377.0</ele><time>2026-04-03T14:54:49.751Z</time></trkpt><trkpt lat="45.796385" lon="8.9686683"><ele>376.66666666666663</ele><time>2026-04-03T14:54:52.753Z</time></trkpt><trkpt lat="45.7963917" lon="8.9685783"><ele>376.3333333333333</ele><time>2026-04-03T14:54:54.751Z</time></trkpt><trkpt lat="45.796405" lon="8.96848"><ele>376.0</ele><time>2026-04-03T14:54:56.752Z</time></trkpt><trkpt lat="45.7964217" lon="8.96835"><ele>377.0</ele><time>2026-04-03T14:54:59.752Z</time></trkpt><trkpt lat="45.7964417" lon="8.9682217"><ele>378.0</ele><time>2026-04-03T14:55:02.751Z</time></trkpt><trkpt lat="45.796475" lon="8.968095"><ele>379.0</ele><time>2026-04-03T14:55:05.751Z</time></trkpt><trkpt lat="45.796495" lon="8.9680083"><ele>380.0</ele><time>2026-04-03T14:55:07.75Z</time></trkpt><trkpt lat="45.7965167" lon="8.96791"><ele>381.0</ele><time>2026-04-03T14:55:09.752Z</time></trkpt><trkpt lat="45.7965433" lon="8.967825"><ele>382.0</ele><time>2026-04-03T14:55:11.751Z</time></trkpt><trkpt lat="45.7965733" lon="8.9677"><ele>382.0</ele><time>2026-04-03T14:55:14.751Z</time></trkpt><trkpt lat="45.7966117" lon="8.967585"><ele>382.0</ele><time>2026-04-03T14:55:17.751Z</time></trkpt><trkpt lat="45.7966483" lon="8.9675067"><ele>382.0</ele><time>2026-04-03T14:55:19.752Z</time></trkpt><trkpt lat="45.796695" lon="8.9674067"><ele>382.0</ele><time>2026-04-03T14:55:22.75Z</time></trkpt><trkpt lat="45.7967117" lon="8.9672783"><ele>382.0</ele><time>2026-04-03T14:55:25.751Z</time></trkpt><trkpt lat="45.796745" lon="8.9671917"><ele>382.0</ele><time>2026-04-03T14:55:27.752Z</time></trkpt><trkpt lat="45.79679" lon="8.96707"><ele>381.66666666666663</ele><time>2026-04-03T14:55:30.751Z</time></trkpt><trkpt lat="45.7968183" lon="8.9669767"><ele>381.3333333333333</ele><time>2026-04-03T14:55:32.751Z</time></trkpt><trkpt lat="45.7968633" lon="8.9668817"><ele>381.0</ele><time>2026-04-03T14:55:34.751Z</time></trkpt><trkpt lat="45.7968917" lon="8.9667767"><ele>380.6666666666667</ele><time>2026-04-03T14:55:36.751Z</time></trkpt><trkpt lat="45.7969583" lon="8.9666783"><ele>380.33333333333337</ele><time>2026-04-03T14:55:39.751Z</time></trkpt><trkpt lat="45.7970133" lon="8.9666017"><ele>380.0</ele><time>2026-04-03T14:55:41.751Z</time></trkpt><trkpt lat="45.797065" lon="8.9665383"><ele>380.0</ele><time>2026-04-03T14:55:43.752Z</time></trkpt><trkpt lat="45.7971183" lon="8.9664683"><ele>380.0</ele><time>2026-04-03T14:55:45.75Z</time></trkpt><trkpt lat="45.797175" lon="8.9663967"><ele>380.0</ele><time>2026-04-03T14:55:47.751Z</time></trkpt><trkpt lat="45.7972333" lon="8.9663083"><ele>380.0</ele><time>2026-04-03T14:55:49.751Z</time></trkpt><trkpt lat="45.7973" lon="8.96623"><ele>380.0</ele><time>2026-04-03T14:55:51.753Z</time></trkpt><trkpt lat="45.79735" lon="8.9661567"><ele>380.0</ele><time>2026-04-03T14:55:53.753Z</time></trkpt><trkpt lat="45.7973967" lon="8.9660783"><ele>380.0</ele><time>2026-04-03T14:55:55.751Z</time></trkpt><trkpt lat="45.7974583" lon="8.966005"><ele>380.0</ele><time>2026-04-03T14:55:57.75Z</time></trkpt><trkpt lat="45.797515" lon="8.96593"><ele>380.0</ele><time>2026-04-03T14:55:59.749Z</time></trkpt><trkpt lat="45.7975633" lon="8.96587"><ele>380.0</ele><time>2026-04-03T14:56:01.75Z</time></trkpt><trkpt lat="45.797625" lon="8.9658017"><ele>380.0</ele><time>2026-04-03T14:56:03.75Z</time></trkpt><trkpt lat="45.79768" lon="8.9657217"><ele>380.0</ele><time>2026-04-03T14:56:05.752Z</time></trkpt><trkpt lat="45.79774" lon="8.965595"><ele>379.8571428571429</ele><time>2026-04-03T14:56:08.75Z</time></trkpt><trkpt lat="45.7977717" lon="8.96548"><ele>379.7142857142857</ele><time>2026-04-03T14:56:10.749Z</time></trkpt><trkpt lat="45.7978033" lon="8.9653917"><ele>379.57142857142856</ele><time>2026-04-03T14:56:12.75Z</time></trkpt><trkpt lat="45.7978283" lon="8.9652933"><ele>379.42857142857144</ele><time>2026-04-03T14:56:14.751Z</time></trkpt><trkpt lat="45.7978617" lon="8.9652067"><ele>379.2857142857143</ele><time>2026-04-03T14:56:16.75Z</time></trkpt><trkpt lat="45.797885" lon="8.96512"><ele>379.14285714285717</ele><time>2026-04-03T14:56:18.75Z</time></trkpt><trkpt lat="45.7978983" lon="8.9650233"><ele>379.0</ele><time>2026-04-03T14:56:20.755Z</time></trkpt><trkpt lat="45.7979167" lon="8.964935"><ele>379.5714285714286</ele><time>2026-04-03T14:56:22.75Z</time></trkpt><trkpt lat="45.79793" lon="8.9648383"><ele>380.14285714285717</ele><time>2026-04-03T14:56:24.751Z</time></trkpt><trkpt lat="45.7979467" lon="8.964745"><ele>380.7142857142857</ele><time>2026-04-03T14:56:26.751Z</time></trkpt><trkpt lat="45.7979533" lon="8.9646483"><ele>381.28571428571433</ele><time>2026-04-03T14:56:28.75Z</time></trkpt><trkpt lat="45.797955" lon="8.9645433"><ele>381.85714285714283</ele><time>2026-04-03T14:56:30.749Z</time></trkpt><trkpt lat="45.7979767" lon="8.964455"><ele>382.42857142857144</ele><time>2026-04-03T14:56:32.751Z</time></trkpt><trkpt lat="45.7979967" lon="8.9643667"><ele>383.0</ele><time>2026-04-03T14:56:34.75Z</time></trkpt><trkpt lat="45.7980133" lon="8.96424"><ele>382.83333333333337</ele><time>2026-04-03T14:56:37.75Z</time></trkpt><trkpt lat="45.798035" lon="8.9641533"><ele>382.6666666666667</ele><time>2026-04-03T14:56:39.751Z</time></trkpt><trkpt lat="45.798055" lon="8.964065"><ele>382.5</ele><time>2026-04-03T14:56:41.751Z</time></trkpt><trkpt lat="45.7980733" lon="8.96397"><ele>382.3333333333333</ele><time>2026-04-03T14:56:43.749Z</time></trkpt><trkpt lat="45.7980983" lon="8.963845"><ele>382.16666666666663</ele><time>2026-04-03T14:56:46.751Z</time></trkpt><trkpt lat="45.7981183" lon="8.9637133"><ele>382.0</ele><time>2026-04-03T14:56:49.753Z</time></trkpt><trkpt lat="45.7981183" lon="8.9636033"><ele>382.0</ele><time>2026-04-03T14:56:51.751Z</time></trkpt><trkpt lat="45.7981283" lon="8.9635033"><ele>382.0</ele><time>2026-04-03T14:56:53.752Z</time></trkpt><trkpt lat="45.798135" lon="8.963405"><ele>382.0</ele><time>2026-04-03T14:56:55.751Z</time></trkpt><trkpt lat="45.7981467" lon="8.9633083"><ele>382.0</ele><time>2026-04-03T14:56:57.751Z</time></trkpt><trkpt lat="45.7981767" lon="8.963185"><ele>382.0</ele><time>2026-04-03T14:57:00.751Z</time></trkpt><trkpt lat="45.7981867" lon="8.9630817"><ele>382.0</ele><time>2026-04-03T14:57:02.751Z</time></trkpt><trkpt lat="45.7982033" lon="8.9629767"><ele>382.0</ele><time>2026-04-03T14:57:04.75Z</time></trkpt><trkpt lat="45.7982367" lon="8.9628583"><ele>382.5</ele><time>2026-04-03T14:57:07.751Z</time></trkpt><trkpt lat="45.7982683" lon="8.9627267"><ele>383.0</ele><time>2026-04-03T14:57:10.753Z</time></trkpt><trkpt lat="45.7983" lon="8.9625933"><ele>383.5</ele><time>2026-04-03T14:57:13.751Z</time></trkpt><trkpt lat="45.7983333" lon="8.9625017"><ele>384.0</ele><time>2026-04-03T14:57:15.752Z</time></trkpt><trkpt lat="45.7983583" lon="8.9624083"><ele>384.50000000000006</ele><time>2026-04-03T14:57:17.752Z</time></trkpt><trkpt lat="45.7983767" lon="8.9622983"><ele>385.0</ele><time>2026-04-03T14:57:19.75Z</time></trkpt><trkpt lat="45.7983817" lon="8.9621833"><ele>385.00000000000006</ele><time>2026-04-03T14:57:21.752Z</time></trkpt><trkpt lat="45.7984067" lon="8.962075"><ele>385.0</ele><time>2026-04-03T14:57:23.751Z</time></trkpt><trkpt lat="45.7984333" lon="8.9619517"><ele>385.0</ele><time>2026-04-03T14:57:25.752Z</time></trkpt><trkpt lat="45.7984567" lon="8.96184"><ele>385.0</ele><time>2026-04-03T14:57:27.75Z</time></trkpt><trkpt lat="45.7984783" lon="8.9617367"><ele>385.00000000000006</ele><time>2026-04-03T14:57:29.751Z</time></trkpt><trkpt lat="45.7984783" lon="8.9616267"><ele>385.0</ele><time>2026-04-03T14:57:31.752Z</time></trkpt><trkpt lat="45.7984933" lon="8.9615283"><ele>385.00000000000006</ele><time>2026-04-03T14:57:33.75Z</time></trkpt><trkpt lat="45.7985117" lon="8.9614317"><ele>385.0</ele><time>2026-04-03T14:57:35.751Z</time></trkpt><trkpt lat="45.7985117" lon="8.9613183"><ele>385.0</ele><time>2026-04-03T14:57:37.751Z</time></trkpt><trkpt lat="45.7984983" lon="8.9611983"><ele>385.0</ele><time>2026-04-03T14:57:39.751Z</time></trkpt><trkpt lat="45.7984733" lon="8.9611133"><ele>385.00000000000006</ele><time>2026-04-03T14:57:41.75Z</time></trkpt><trkpt lat="45.7984367" lon="8.9610283"><ele>385.0</ele><time>2026-04-03T14:57:43.75Z</time></trkpt><trkpt lat="45.7984133" lon="8.9609017"><ele>384.83333333333337</ele><time>2026-04-03T14:57:46.752Z</time></trkpt><trkpt lat="45.7983983" lon="8.9608"><ele>384.6666666666667</ele><time>2026-04-03T14:57:49.751Z</time></trkpt><trkpt lat="45.79833" lon="8.9607367"><ele>384.5</ele><time>2026-04-03T14:57:53.751Z</time></trkpt><trkpt lat="45.7982367" lon="8.9606817"><ele>384.33333333333337</ele><time>2026-04-03T14:57:59.752Z</time></trkpt><trkpt lat="45.7981667" lon="8.9606733"><ele>384.1666666666667</ele><time>2026-04-03T14:58:02.751Z</time></trkpt><trkpt lat="45.7980983" lon="8.960675"><ele>384.0</ele><time>2026-04-03T14:58:05.751Z</time></trkpt><trkpt lat="45.7980367" lon="8.9606533"><ele>383.99999999999994</ele><time>2026-04-03T14:58:08.752Z</time></trkpt><trkpt lat="45.7979633" lon="8.96064"><ele>384.0</ele><time>2026-04-03T14:58:12.752Z</time></trkpt><trkpt lat="45.7978983" lon="8.9606467"><ele>384.0</ele><time>2026-04-03T14:58:15.752Z</time></trkpt><trkpt lat="45.797825" lon="8.9606583"><ele>384.0</ele><time>2026-04-03T14:58:19.753Z</time></trkpt><trkpt lat="45.7977533" lon="8.96066"><ele>384.0</ele><time>2026-04-03T14:58:23.752Z</time></trkpt><trkpt lat="45.79769" lon="8.9606717"><ele>383.99999999999994</ele><time>2026-04-03T14:58:26.752Z</time></trkpt><trkpt lat="45.7976117" lon="8.9606533"><ele>384.0</ele><time>2026-04-03T14:58:29.752Z</time></trkpt><trkpt lat="45.7975367" lon="8.9606783"><ele>385.1428571428571</ele><time>2026-04-03T14:58:32.751Z</time></trkpt><trkpt lat="45.7974683" lon="8.9606883"><ele>386.2857142857143</ele><time>2026-04-03T14:58:35.752Z</time></trkpt><trkpt lat="45.7973883" lon="8.9606967"><ele>387.42857142857144</ele><time>2026-04-03T14:58:38.752Z</time></trkpt><trkpt lat="45.797325" lon="8.9607067"><ele>388.57142857142856</ele><time>2026-04-03T14:58:40.751Z</time></trkpt><trkpt lat="45.7972467" lon="8.9607233"><ele>389.7142857142857</ele><time>2026-04-03T14:58:43.751Z</time></trkpt><trkpt lat="45.7971783" lon="8.9607417"><ele>390.85714285714283</ele><time>2026-04-03T14:58:45.752Z</time></trkpt><trkpt lat="45.7971083" lon="8.9607467"><ele>392.0</ele><time>2026-04-03T14:58:47.751Z</time></trkpt><trkpt lat="45.79702" lon="8.9607717"><ele>391.99999999999994</ele><time>2026-04-03T14:58:50.751Z</time></trkpt><trkpt lat="45.79694" lon="8.9607967"><ele>392.0</ele><time>2026-04-03T14:58:53.753Z</time></trkpt><trkpt lat="45.7968583" lon="8.9608267"><ele>392.0</ele><time>2026-04-03T14:58:57.751Z</time></trkpt><trkpt lat="45.7967783" lon="8.9608617"><ele>392.0</ele><time>2026-04-03T14:59:00.751Z</time></trkpt><trkpt lat="45.7966867" lon="8.9609017"><ele>391.99999999999994</ele><time>2026-04-03T14:59:03.75Z</time></trkpt><trkpt lat="45.7966" lon="8.9609183"><ele>392.0</ele><time>2026-04-03T14:59:06.752Z</time></trkpt><trkpt lat="45.7965283" lon="8.96095"><ele>391.85714285714283</ele><time>2026-04-03T14:59:08.752Z</time></trkpt><trkpt lat="45.796465" lon="8.961005"><ele>391.7142857142857</ele><time>2026-04-03T14:59:10.751Z</time></trkpt><trkpt lat="45.7964117" lon="8.9610683"><ele>391.57142857142856</ele><time>2026-04-03T14:59:12.751Z</time></trkpt><trkpt lat="45.7963567" lon="8.9611417"><ele>391.42857142857144</ele><time>2026-04-03T14:59:14.752Z</time></trkpt><trkpt lat="45.796305" lon="8.961205"><ele>391.2857142857143</ele><time>2026-04-03T14:59:16.752Z</time></trkpt><trkpt lat="45.7962467" lon="8.9612733"><ele>391.1428571428571</ele><time>2026-04-03T14:59:18.752Z</time></trkpt><trkpt lat="45.7961767" lon="8.9613417"><ele>391.0</ele><time>2026-04-03T14:59:21.752Z</time></trkpt><trkpt lat="45.7960983" lon="8.9613867"><ele>390.99999999999994</ele><time>2026-04-03T14:59:24.751Z</time></trkpt><trkpt lat="45.796035" lon="8.9613683"><ele>391.0</ele><time>2026-04-03T14:59:26.751Z</time></trkpt><trkpt lat="45.79599" lon="8.961305"><ele>391.0</ele><time>2026-04-03T14:59:28.751Z</time></trkpt><trkpt lat="45.795945" lon="8.9611967"><ele>391.0</ele><time>2026-04-03T14:59:31.751Z</time></trkpt><trkpt lat="45.7958817" lon="8.9610917"><ele>391.0</ele><time>2026-04-03T14:59:34.752Z</time></trkpt><trkpt lat="45.7958433" lon="8.9610167"><ele>390.99999999999994</ele><time>2026-04-03T14:59:36.753Z</time></trkpt><trkpt lat="45.7958083" lon="8.9609383"><ele>391.0</ele><time>2026-04-03T14:59:38.752Z</time></trkpt><trkpt lat="45.7957633" lon="8.9608717"><ele>390.6666666666667</ele><time>2026-04-03T14:59:40.752Z</time></trkpt><trkpt lat="45.7957017" lon="8.96082"><ele>390.33333333333337</ele><time>2026-04-03T14:59:42.752Z</time></trkpt><trkpt lat="45.7956233" lon="8.960825"><ele>390.0</ele><time>2026-04-03T14:59:44.753Z</time></trkpt><trkpt lat="45.7955517" lon="8.960885"><ele>389.66666666666663</ele><time>2026-04-03T14:59:46.75Z</time></trkpt><trkpt lat="45.795485" lon="8.960955"><ele>389.3333333333333</ele><time>2026-04-03T14:59:48.752Z</time></trkpt><trkpt lat="45.7954117" lon="8.9610233"><ele>389.0</ele><time>2026-04-03T14:59:50.752Z</time></trkpt><trkpt lat="45.7953417" lon="8.961085"><ele>388.99999999999994</ele><time>2026-04-03T14:59:52.75Z</time></trkpt><trkpt lat="45.795275" lon="8.9611567"><ele>389.0</ele><time>2026-04-03T14:59:54.751Z</time></trkpt><trkpt lat="45.795215" lon="8.9612217"><ele>389.0</ele><time>2026-04-03T14:59:56.751Z</time></trkpt><trkpt lat="45.7951617" lon="8.9612733"><ele>389.0</ele><time>2026-04-03T14:59:58.751Z</time></trkpt><trkpt lat="45.7950817" lon="8.9613033"><ele>388.99999999999994</ele><time>2026-04-03T15:00:01.753Z</time></trkpt><trkpt lat="45.79502" lon="8.96133"><ele>389.0</ele><time>2026-04-03T15:00:03.752Z</time></trkpt><trkpt lat="45.7949233" lon="8.9614133"><ele>388.8333333333333</ele><time>2026-04-03T15:00:06.754Z</time></trkpt><trkpt lat="45.79487" lon="8.9615017"><ele>388.66666666666663</ele><time>2026-04-03T15:00:08.752Z</time></trkpt><trkpt lat="45.7948117" lon="8.9615833"><ele>388.5</ele><time>2026-04-03T15:00:10.753Z</time></trkpt><trkpt lat="45.7947433" lon="8.9616517"><ele>388.33333333333337</ele><time>2026-04-03T15:00:12.752Z</time></trkpt><trkpt lat="45.7946817" lon="8.961715"><ele>388.1666666666667</ele><time>2026-04-03T15:00:14.751Z</time></trkpt><trkpt lat="45.794625" lon="8.961795"><ele>388.0</ele><time>2026-04-03T15:00:16.751Z</time></trkpt><trkpt lat="45.7945683" lon="8.9618717"><ele>387.79999999999995</ele><time>2026-04-03T15:00:18.753Z</time></trkpt><trkpt lat="45.7945083" lon="8.96195"><ele>387.6</ele><time>2026-04-03T15:00:20.751Z</time></trkpt><trkpt lat="45.7944467" lon="8.9620233"><ele>387.4</ele><time>2026-04-03T15:00:22.751Z</time></trkpt><trkpt lat="45.7943817" lon="8.962095"><ele>387.20000000000005</ele><time>2026-04-03T15:00:24.752Z</time></trkpt><trkpt lat="45.7943133" lon="8.9621617"><ele>387.0</ele><time>2026-04-03T15:00:26.752Z</time></trkpt><trkpt lat="45.7942" lon="8.96232"><ele>387.0</ele><time>2026-04-03T15:00:29.141Z</time></trkpt><trkpt lat="45.7941133" lon="8.9623833"><ele>387.0</ele><time>2026-04-03T15:00:32.751Z</time></trkpt><trkpt lat="45.7940483" lon="8.96247"><ele>387.0</ele><time>2026-04-03T15:00:34.752Z</time></trkpt><trkpt lat="45.7939883" lon="8.962565"><ele>387.0</ele><time>2026-04-03T15:00:36.752Z</time></trkpt><trkpt lat="45.7939233" lon="8.9626533"><ele>387.0</ele><time>2026-04-03T15:00:38.753Z</time></trkpt><trkpt lat="45.7938583" lon="8.9627367"><ele>386.8</ele><time>2026-04-03T15:00:40.755Z</time></trkpt><trkpt lat="45.7937983" lon="8.962825"><ele>386.6</ele><time>2026-04-03T15:00:42.753Z</time></trkpt><trkpt lat="45.793735" lon="8.9629033"><ele>386.40000000000003</ele><time>2026-04-03T15:00:44.753Z</time></trkpt><trkpt lat="45.7936733" lon="8.962975"><ele>386.20000000000005</ele><time>2026-04-03T15:00:46.752Z</time></trkpt><trkpt lat="45.7935833" lon="8.9630933"><ele>386.0</ele><time>2026-04-03T15:00:49.753Z</time></trkpt><trkpt lat="45.7935217" lon="8.9631733"><ele>385.8333333333333</ele><time>2026-04-03T15:00:51.753Z</time></trkpt><trkpt lat="45.79346" lon="8.96326"><ele>385.66666666666663</ele><time>2026-04-03T15:00:53.753Z</time></trkpt><trkpt lat="45.7933983" lon="8.9633483"><ele>385.5</ele><time>2026-04-03T15:00:55.752Z</time></trkpt><trkpt lat="45.79333" lon="8.9634317"><ele>385.33333333333337</ele><time>2026-04-03T15:00:57.751Z</time></trkpt><trkpt lat="45.7932633" lon="8.963515"><ele>385.1666666666667</ele><time>2026-04-03T15:00:59.753Z</time></trkpt><trkpt lat="45.7931967" lon="8.9635967"><ele>385.0</ele><time>2026-04-03T15:01:01.752Z</time></trkpt><trkpt lat="45.79312" lon="8.9636617"><ele>385.00000000000006</ele><time>2026-04-03T15:01:03.752Z</time></trkpt><trkpt lat="45.793035" lon="8.9636833"><ele>385.0</ele><time>2026-04-03T15:01:05.752Z</time></trkpt><trkpt lat="45.79295" lon="8.9636617"><ele>385.0</ele><time>2026-04-03T15:01:07.752Z</time></trkpt><trkpt lat="45.7928733" lon="8.963615"><ele>385.0</ele><time>2026-04-03T15:01:09.753Z</time></trkpt><trkpt lat="45.7927967" lon="8.96357"><ele>385.00000000000006</ele><time>2026-04-03T15:01:11.753Z</time></trkpt><trkpt lat="45.7927283" lon="8.963525"><ele>385.0</ele><time>2026-04-03T15:01:13.753Z</time></trkpt><trkpt lat="45.792665" lon="8.963485"><ele>385.6666666666667</ele><time>2026-04-03T15:01:15.752Z</time></trkpt><trkpt lat="45.7926017" lon="8.96345"><ele>386.33333333333337</ele><time>2026-04-03T15:01:17.752Z</time></trkpt><trkpt lat="45.79252" lon="8.9634333"><ele>387.0</ele><time>2026-04-03T15:01:20.752Z</time></trkpt><trkpt lat="45.7924717" lon="8.9635233"><ele>387.66666666666663</ele><time>2026-04-03T15:01:23.751Z</time></trkpt><trkpt lat="45.7924467" lon="8.96363"><ele>388.3333333333333</ele><time>2026-04-03T15:01:25.751Z</time></trkpt><trkpt lat="45.792425" lon="8.9637217"><ele>389.0</ele><time>2026-04-03T15:01:27.751Z</time></trkpt><trkpt lat="45.792405" lon="8.963845"><ele>388.99999999999994</ele><time>2026-04-03T15:01:30.751Z</time></trkpt><trkpt lat="45.7923683" lon="8.9639417"><ele>389.0</ele><time>2026-04-03T15:01:32.751Z</time></trkpt><trkpt lat="45.7923267" lon="8.964045"><ele>389.0</ele><time>2026-04-03T15:01:34.75Z</time></trkpt><trkpt lat="45.7922883" lon="8.9641483"><ele>389.0</ele><time>2026-04-03T15:01:36.752Z</time></trkpt><trkpt lat="45.792255" lon="8.96425"><ele>388.99999999999994</ele><time>2026-04-03T15:01:38.752Z</time></trkpt><trkpt lat="45.7922183" lon="8.9643483"><ele>389.0</ele><time>2026-04-03T15:01:40.751Z</time></trkpt><trkpt lat="45.7921833" lon="8.96444"><ele>388.42857142857144</ele><time>2026-04-03T15:01:42.751Z</time></trkpt><trkpt lat="45.7921483" lon="8.9645283"><ele>387.85714285714283</ele><time>2026-04-03T15:01:44.752Z</time></trkpt><trkpt lat="45.7921067" lon="8.9646167"><ele>387.2857142857143</ele><time>2026-04-03T15:01:46.751Z</time></trkpt><trkpt lat="45.792075" lon="8.9647033"><ele>386.7142857142857</ele><time>2026-04-03T15:01:48.751Z</time></trkpt><trkpt lat="45.7920433" lon="8.9647917"><ele>386.1428571428571</ele><time>2026-04-03T15:01:50.751Z</time></trkpt><trkpt lat="45.79201" lon="8.9648817"><ele>385.57142857142856</ele><time>2026-04-03T15:01:52.75Z</time></trkpt><trkpt lat="45.7919733" lon="8.96497"><ele>385.0</ele><time>2026-04-03T15:01:54.751Z</time></trkpt><trkpt lat="45.7919333" lon="8.9650583"><ele>384.6</ele><time>2026-04-03T15:01:56.75Z</time></trkpt><trkpt lat="45.7918833" lon="8.96516"><ele>384.2</ele><time>2026-04-03T15:01:58.752Z</time></trkpt><trkpt lat="45.7918367" lon="8.96527"><ele>383.79999999999995</ele><time>2026-04-03T15:02:00.752Z</time></trkpt><trkpt lat="45.7917783" lon="8.9653967"><ele>383.4</ele><time>2026-04-03T15:02:02.754Z</time></trkpt><trkpt lat="45.7917317" lon="8.9655217"><ele>383.0</ele><time>2026-04-03T15:02:04.752Z</time></trkpt><trkpt lat="45.7917" lon="8.965645"><ele>383.83333333333337</ele><time>2026-04-03T15:02:06.753Z</time></trkpt><trkpt lat="45.7916767" lon="8.9657417"><ele>384.6666666666667</ele><time>2026-04-03T15:02:08.751Z</time></trkpt><trkpt lat="45.79164" lon="8.9658467"><ele>385.5</ele><time>2026-04-03T15:02:10.751Z</time></trkpt><trkpt lat="45.7916" lon="8.9659617"><ele>386.33333333333337</ele><time>2026-04-03T15:02:12.751Z</time></trkpt><trkpt lat="45.79156" lon="8.9660733"><ele>387.1666666666667</ele><time>2026-04-03T15:02:14.75Z</time></trkpt><trkpt lat="45.79152" lon="8.966185"><ele>388.0</ele><time>2026-04-03T15:02:16.75Z</time></trkpt><trkpt lat="45.7914817" lon="8.9662933"><ele>388.0</ele><time>2026-04-03T15:02:18.75Z</time></trkpt><trkpt lat="45.7914383" lon="8.9664133"><ele>388.0</ele><time>2026-04-03T15:02:20.751Z</time></trkpt><trkpt lat="45.7913933" lon="8.966535"><ele>388.0</ele><time>2026-04-03T15:02:22.751Z</time></trkpt><trkpt lat="45.791345" lon="8.966665"><ele>388.0</ele><time>2026-04-03T15:02:24.75Z</time></trkpt><trkpt lat="45.7912883" lon="8.9667983"><ele>388.0</ele><time>2026-04-03T15:02:26.751Z</time></trkpt><trkpt lat="45.79123" lon="8.9669333"><ele>387.79999999999995</ele><time>2026-04-03T15:02:28.751Z</time></trkpt><trkpt lat="45.79117" lon="8.9670583"><ele>387.6</ele><time>2026-04-03T15:02:30.752Z</time></trkpt><trkpt lat="45.7911167" lon="8.9671917"><ele>387.4</ele><time>2026-04-03T15:02:32.751Z</time></trkpt><trkpt lat="45.7910667" lon="8.9673317"><ele>387.20000000000005</ele><time>2026-04-03T15:02:34.75Z</time></trkpt><trkpt lat="45.79105" lon="8.9674267"><ele>387.0</ele><time>2026-04-03T15:02:35.752Z</time></trkpt><trkpt lat="45.7910117" lon="8.9675817"><ele>387.8</ele><time>2026-04-03T15:02:37.751Z</time></trkpt><trkpt lat="45.7909717" lon="8.96772"><ele>388.6</ele><time>2026-04-03T15:02:39.751Z</time></trkpt><trkpt lat="45.790935" lon="8.96786"><ele>389.40000000000003</ele><time>2026-04-03T15:02:41.75Z</time></trkpt><trkpt lat="45.79089" lon="8.9680033"><ele>390.20000000000005</ele><time>2026-04-03T15:02:43.75Z</time></trkpt><trkpt lat="45.7908467" lon="8.9681417"><ele>391.0</ele><time>2026-04-03T15:02:45.75Z</time></trkpt><trkpt lat="45.7908033" lon="8.9682767"><ele>390.0</ele><time>2026-04-03T15:02:47.749Z</time></trkpt><trkpt lat="45.79077" lon="8.9684067"><ele>389.0</ele><time>2026-04-03T15:02:49.751Z</time></trkpt><trkpt lat="45.7907333" lon="8.96855"><ele>388.0</ele><time>2026-04-03T15:02:51.75Z</time></trkpt><trkpt lat="45.7907117" lon="8.96872"><ele>387.0</ele><time>2026-04-03T15:02:53.75Z</time></trkpt><trkpt lat="45.7906967" lon="8.9688817"><ele>386.0</ele><time>2026-04-03T15:02:55.75Z</time></trkpt><trkpt lat="45.79068" lon="8.9690367"><ele>386.0</ele><time>2026-04-03T15:02:57.751Z</time></trkpt><trkpt lat="45.7906583" lon="8.9691783"><ele>386.0</ele><time>2026-04-03T15:02:59.751Z</time></trkpt><trkpt lat="45.7906317" lon="8.9693017"><ele>386.0</ele><time>2026-04-03T15:03:01.751Z</time></trkpt><trkpt lat="45.7906117" lon="8.969435"><ele>386.0</ele><time>2026-04-03T15:03:03.752Z</time></trkpt><trkpt lat="45.79061" lon="8.9695733"><ele>386.0</ele><time>2026-04-03T15:03:05.751Z</time></trkpt><trkpt lat="45.790625" lon="8.9697083"><ele>385.66666666666663</ele><time>2026-04-03T15:03:07.752Z</time></trkpt><trkpt lat="45.790655" lon="8.9698367"><ele>385.3333333333333</ele><time>2026-04-03T15:03:09.75Z</time></trkpt><trkpt lat="45.790695" lon="8.9699267"><ele>385.0</ele><time>2026-04-03T15:03:11.753Z</time></trkpt><trkpt lat="45.7907167" lon="8.9700267"><ele>384.66666666666663</ele><time>2026-04-03T15:03:13.75Z</time></trkpt><trkpt lat="45.7907033" lon="8.97014"><ele>384.3333333333333</ele><time>2026-04-03T15:03:15.751Z</time></trkpt><trkpt lat="45.79069" lon="8.9702533"><ele>384.0</ele><time>2026-04-03T15:03:17.751Z</time></trkpt><trkpt lat="45.7906833" lon="8.9703717"><ele>383.3333333333333</ele><time>2026-04-03T15:03:19.752Z</time></trkpt><trkpt lat="45.7906817" lon="8.9704817"><ele>382.6666666666667</ele><time>2026-04-03T15:03:21.753Z</time></trkpt><trkpt lat="45.790685" lon="8.9705983"><ele>382.0</ele><time>2026-04-03T15:03:23.753Z</time></trkpt><trkpt lat="45.79068" lon="8.9707083"><ele>381.33333333333337</ele><time>2026-04-03T15:03:25.753Z</time></trkpt><trkpt lat="45.7906383" lon="8.9708017"><ele>380.6666666666667</ele><time>2026-04-03T15:03:28.753Z</time></trkpt><trkpt lat="45.790565" lon="8.9708033"><ele>380.0</ele><time>2026-04-03T15:03:31.752Z</time></trkpt><trkpt lat="45.7905033" lon="8.9708917"><ele>380.0</ele><time>2026-04-03T15:03:34.752Z</time></trkpt><trkpt lat="45.7905" lon="8.9709933"><ele>380.0</ele><time>2026-04-03T15:03:36.753Z</time></trkpt><trkpt lat="45.7905117" lon="8.9711117"><ele>380.0</ele><time>2026-04-03T15:03:38.752Z</time></trkpt><trkpt lat="45.7905167" lon="8.97122"><ele>380.0</ele><time>2026-04-03T15:03:40.752Z</time></trkpt><trkpt lat="45.7905333" lon="8.97131"><ele>380.0</ele><time>2026-04-03T15:03:42.75Z</time></trkpt><trkpt lat="45.7905817" lon="8.971375"><ele>380.0</ele><time>2026-04-03T15:03:49.751Z</time></trkpt><trkpt lat="45.790645" lon="8.9714033"><ele>380.0</ele><time>2026-04-03T15:03:56.752Z</time></trkpt><trkpt lat="45.7906867" lon="8.97148"><ele>380.0</ele><time>2026-04-03T15:04:00.751Z</time></trkpt><trkpt lat="45.79068" lon="8.9715833"><ele>380.0</ele><time>2026-04-03T15:04:03.751Z</time></trkpt><trkpt lat="45.7906717" lon="8.971675"><ele>380.0</ele><time>2026-04-03T15:04:05.752Z</time></trkpt><trkpt lat="45.7906667" lon="8.9717817"><ele>380.0</ele><time>2026-04-03T15:04:07.751Z</time></trkpt><trkpt lat="45.79066" lon="8.9718833"><ele>380.0</ele><time>2026-04-03T15:04:09.751Z</time></trkpt><trkpt lat="45.790655" lon="8.971985"><ele>380.0</ele><time>2026-04-03T15:04:11.751Z</time></trkpt><trkpt lat="45.7906483" lon="8.972095"><ele>380.0</ele><time>2026-04-03T15:04:13.751Z</time></trkpt><trkpt lat="45.7906433" lon="8.9722017"><ele>380.1666666666667</ele><time>2026-04-03T15:04:15.751Z</time></trkpt><trkpt lat="45.79064" lon="8.9722983"><ele>380.33333333333337</ele><time>2026-04-03T15:04:17.751Z</time></trkpt><trkpt lat="45.7906317" lon="8.9723983"><ele>380.5</ele><time>2026-04-03T15:04:19.752Z</time></trkpt><trkpt lat="45.7906433" lon="8.972505"><ele>380.6666666666667</ele><time>2026-04-03T15:04:21.752Z</time></trkpt><trkpt lat="45.79065" lon="8.9726117"><ele>380.8333333333333</ele><time>2026-04-03T15:04:23.751Z</time></trkpt><trkpt lat="45.7906617" lon="8.972725"><ele>381.0</ele><time>2026-04-03T15:04:25.751Z</time></trkpt><trkpt lat="45.7906683" lon="8.9728467"><ele>381.4</ele><time>2026-04-03T15:04:27.752Z</time></trkpt><trkpt lat="45.7906717" lon="8.9729617"><ele>381.8</ele><time>2026-04-03T15:04:29.753Z</time></trkpt><trkpt lat="45.7906817" lon="8.97308"><ele>382.2</ele><time>2026-04-03T15:04:31.751Z</time></trkpt><trkpt lat="45.7906883" lon="8.973205"><ele>382.59999999999997</ele><time>2026-04-03T15:04:33.753Z</time></trkpt><trkpt lat="45.7907" lon="8.9733383"><ele>383.0</ele><time>2026-04-03T15:04:35.751Z</time></trkpt><trkpt lat="45.790715" lon="8.97349"><ele>383.4</ele><time>2026-04-03T15:04:37.753Z</time></trkpt><trkpt lat="45.7907417" lon="8.9736533"><ele>383.79999999999995</ele><time>2026-04-03T15:04:39.753Z</time></trkpt><trkpt lat="45.7907717" lon="8.973825"><ele>384.2</ele><time>2026-04-03T15:04:41.751Z</time></trkpt><trkpt lat="45.7907967" lon="8.9740033"><ele>384.6</ele><time>2026-04-03T15:04:43.752Z</time></trkpt><trkpt lat="45.7908083" lon="8.9740933"><ele>385.0</ele><time>2026-04-03T15:04:44.751Z</time></trkpt><trkpt lat="45.7908183" lon="8.9741883"><ele>383.7142857142857</ele><time>2026-04-03T15:04:45.75Z</time></trkpt><trkpt lat="45.790825" lon="8.9742817"><ele>382.42857142857144</ele><time>2026-04-03T15:04:46.751Z</time></trkpt><trkpt lat="45.790825" lon="8.9743783"><ele>381.1428571428571</ele><time>2026-04-03T15:04:47.753Z</time></trkpt><trkpt lat="45.7908217" lon="8.97448"><ele>379.8571428571429</ele><time>2026-04-03T15:04:48.752Z</time></trkpt><trkpt lat="45.7908217" lon="8.9745833"><ele>378.57142857142856</ele><time>2026-04-03T15:04:49.75Z</time></trkpt><trkpt lat="45.7908217" lon="8.974685"><ele>377.2857142857143</ele><time>2026-04-03T15:04:50.751Z</time></trkpt><trkpt lat="45.7908233" lon="8.97479"><ele>376.0</ele><time>2026-04-03T15:04:51.751Z</time></trkpt><trkpt lat="45.7908217" lon="8.9748967"><ele>376.0</ele><time>2026-04-03T15:04:52.753Z</time></trkpt><trkpt lat="45.7908183" lon="8.9750083"><ele>376.0</ele><time>2026-04-03T15:04:53.751Z</time></trkpt><trkpt lat="45.79081" lon="8.9752383"><ele>376.0</ele><time>2026-04-03T15:04:55.751Z</time></trkpt><trkpt lat="45.7908017" lon="8.975355"><ele>376.0</ele><time>2026-04-03T15:04:56.752Z</time></trkpt><trkpt lat="45.790795" lon="8.9754667"><ele>376.0</ele><time>2026-04-03T15:04:57.751Z</time></trkpt><trkpt lat="45.79079" lon="8.9755767"><ele>375.2857142857143</ele><time>2026-04-03T15:04:58.75Z</time></trkpt><trkpt lat="45.790785" lon="8.9756817"><ele>374.57142857142856</ele><time>2026-04-03T15:04:59.754Z</time></trkpt><trkpt lat="45.7907833" lon="8.975785"><ele>373.8571428571429</ele><time>2026-04-03T15:05:00.751Z</time></trkpt><trkpt lat="45.79078" lon="8.97589"><ele>373.1428571428571</ele><time>2026-04-03T15:05:01.752Z</time></trkpt><trkpt lat="45.7907783" lon="8.975995"><ele>372.42857142857144</ele><time>2026-04-03T15:05:02.752Z</time></trkpt><trkpt lat="45.7907733" lon="8.9761"><ele>371.7142857142857</ele><time>2026-04-03T15:05:03.751Z</time></trkpt><trkpt lat="45.79077" lon="8.9762067"><ele>371.0</ele><time>2026-04-03T15:05:04.751Z</time></trkpt><trkpt lat="45.7907583" lon="8.976315"><ele>370.6666666666667</ele><time>2026-04-03T15:05:05.753Z</time></trkpt><trkpt lat="45.7907417" lon="8.9764233"><ele>370.33333333333337</ele><time>2026-04-03T15:05:06.752Z</time></trkpt><trkpt lat="45.7907233" lon="8.976535"><ele>370.0</ele><time>2026-04-03T15:05:07.751Z</time></trkpt><trkpt lat="45.7907017" lon="8.9766467"><ele>369.6666666666667</ele><time>2026-04-03T15:05:08.753Z</time></trkpt><trkpt lat="45.79068" lon="8.9767483"><ele>369.3333333333333</ele><time>2026-04-03T15:05:09.752Z</time></trkpt><trkpt lat="45.790655" lon="8.9768517"><ele>369.0</ele><time>2026-04-03T15:05:10.751Z</time></trkpt><trkpt lat="45.7906233" lon="8.9769567"><ele>369.0</ele><time>2026-04-03T15:05:11.751Z</time></trkpt><trkpt lat="45.790595" lon="8.9770633"><ele>369.0</ele><time>2026-04-03T15:05:12.751Z</time></trkpt><trkpt lat="45.7905617" lon="8.9771633"><ele>369.0</ele><time>2026-04-03T15:05:13.751Z</time></trkpt><trkpt lat="45.790535" lon="8.977265"><ele>369.0</ele><time>2026-04-03T15:05:14.75Z</time></trkpt><trkpt lat="45.7905117" lon="8.97737"><ele>369.0</ele><time>2026-04-03T15:05:15.751Z</time></trkpt><trkpt lat="45.790485" lon="8.9774667"><ele>369.0</ele><time>2026-04-03T15:05:16.75Z</time></trkpt><trkpt lat="45.7904583" lon="8.97756"><ele>369.0</ele><time>2026-04-03T15:05:17.751Z</time></trkpt><trkpt lat="45.7904333" lon="8.9776567"><ele>369.0</ele><time>2026-04-03T15:05:18.751Z</time></trkpt><trkpt lat="45.7904083" lon="8.97775"><ele>369.0</ele><time>2026-04-03T15:05:19.751Z</time></trkpt><trkpt lat="45.7903883" lon="8.9778517"><ele>369.0</ele><time>2026-04-03T15:05:20.753Z</time></trkpt><trkpt lat="45.790365" lon="8.97795"><ele>369.0</ele><time>2026-04-03T15:05:21.751Z</time></trkpt><trkpt lat="45.7903417" lon="8.9780383"><ele>369.0</ele><time>2026-04-03T15:05:22.751Z</time></trkpt><trkpt lat="45.7902917" lon="8.9781283"><ele>369.0</ele><time>2026-04-03T15:05:24.75Z</time></trkpt><trkpt lat="45.79024" lon="8.97807"><ele>369.0</ele><time>2026-04-03T15:05:26.751Z</time></trkpt><trkpt lat="45.7901917" lon="8.977985"><ele>369.0</ele><time>2026-04-03T15:05:29.752Z</time></trkpt><trkpt lat="45.7901383" lon="8.9778967"><ele>369.0</ele><time>2026-04-03T15:05:32.753Z</time></trkpt><trkpt lat="45.7900867" lon="8.9777833"><ele>369.0</ele><time>2026-04-03T15:05:35.752Z</time></trkpt><trkpt lat="45.7900317" lon="8.97769"><ele>369.0</ele><time>2026-04-03T15:05:38.751Z</time></trkpt><trkpt lat="45.7899817" lon="8.9776017"><ele>369.0</ele><time>2026-04-03T15:05:42.75Z</time></trkpt><trkpt lat="45.7899283" lon="8.9775283"><ele>369.57142857142856</ele><time>2026-04-03T15:05:46.751Z</time></trkpt><trkpt lat="45.7898667" lon="8.9774833"><ele>370.1428571428571</ele><time>2026-04-03T15:05:49.751Z</time></trkpt><trkpt lat="45.7898033" lon="8.9774483"><ele>370.7142857142857</ele><time>2026-04-03T15:05:52.751Z</time></trkpt><trkpt lat="45.789745" lon="8.9775317"><ele>371.2857142857143</ele><time>2026-04-03T15:05:55.751Z</time></trkpt><trkpt lat="45.7896983" lon="8.9776"><ele>371.8571428571429</ele><time>2026-04-03T15:05:57.755Z</time></trkpt><trkpt lat="45.789655" lon="8.97769"><ele>372.42857142857144</ele><time>2026-04-03T15:05:59.752Z</time></trkpt><trkpt lat="45.7896117" lon="8.97778"><ele>373.0</ele><time>2026-04-03T15:06:01.752Z</time></trkpt><trkpt lat="45.789565" lon="8.9778883"><ele>373.0</ele><time>2026-04-03T15:06:03.75Z</time></trkpt><trkpt lat="45.7895167" lon="8.978"><ele>373.0</ele><time>2026-04-03T15:06:05.75Z</time></trkpt><trkpt lat="45.789465" lon="8.9781117"><ele>373.0</ele><time>2026-04-03T15:06:07.753Z</time></trkpt><trkpt lat="45.789415" lon="8.97822"><ele>373.0</ele><time>2026-04-03T15:06:09.751Z</time></trkpt><trkpt lat="45.7893717" lon="8.978325"><ele>373.0</ele><time>2026-04-03T15:06:11.751Z</time></trkpt><trkpt lat="45.789325" lon="8.97844"><ele>372.16666666666663</ele><time>2026-04-03T15:06:13.754Z</time></trkpt><trkpt lat="45.78929" lon="8.978535"><ele>371.3333333333333</ele><time>2026-04-03T15:06:15.751Z</time></trkpt><trkpt lat="45.7892583" lon="8.9786317"><ele>370.5</ele><time>2026-04-03T15:06:17.752Z</time></trkpt><trkpt lat="45.7892117" lon="8.9787367"><ele>369.6666666666667</ele><time>2026-04-03T15:06:19.751Z</time></trkpt><trkpt lat="45.7891617" lon="8.9788467"><ele>368.83333333333337</ele><time>2026-04-03T15:06:21.751Z</time></trkpt><trkpt lat="45.7891033" lon="8.9789633"><ele>368.0</ele><time>2026-04-03T15:06:23.751Z</time></trkpt><trkpt lat="45.7890417" lon="8.9790867"><ele>367.4</ele><time>2026-04-03T15:06:25.752Z</time></trkpt><trkpt lat="45.7889767" lon="8.979205"><ele>366.79999999999995</ele><time>2026-04-03T15:06:27.751Z</time></trkpt><trkpt lat="45.7889233" lon="8.9793017"><ele>366.2</ele><time>2026-04-03T15:06:29.751Z</time></trkpt><trkpt lat="45.7888617" lon="8.9794267"><ele>365.6</ele><time>2026-04-03T15:06:31.751Z</time></trkpt><trkpt lat="45.788815" lon="8.979525"><ele>365.0</ele><time>2026-04-03T15:06:33.751Z</time></trkpt><trkpt lat="45.7887583" lon="8.9796467"><ele>365.0</ele><time>2026-04-03T15:06:35.752Z</time></trkpt><trkpt lat="45.7887017" lon="8.9797683"><ele>365.0</ele><time>2026-04-03T15:06:37.752Z</time></trkpt><trkpt lat="45.7886317" lon="8.97989"><ele>365.0</ele><time>2026-04-03T15:06:39.751Z</time></trkpt><trkpt lat="45.78857" lon="8.9800083"><ele>365.0</ele><time>2026-04-03T15:06:41.751Z</time></trkpt><trkpt lat="45.7885117" lon="8.9801417"><ele>365.0</ele><time>2026-04-03T15:06:43.751Z</time></trkpt><trkpt lat="45.7884467" lon="8.9802733"><ele>366.2</ele><time>2026-04-03T15:06:45.753Z</time></trkpt><trkpt lat="45.78841" lon="8.9803467"><ele>367.4</ele><time>2026-04-03T15:06:46.751Z</time></trkpt><trkpt lat="45.7883417" lon="8.9805"><ele>368.6</ele><time>2026-04-03T15:06:48.751Z</time></trkpt><trkpt lat="45.7883033" lon="8.9805833"><ele>369.8</ele><time>2026-04-03T15:06:49.752Z</time></trkpt><trkpt lat="45.788245" lon="8.9807217"><ele>371.0</ele><time>2026-04-03T15:06:51.75Z</time></trkpt><trkpt lat="45.78819" lon="8.9808617"><ele>371.0</ele><time>2026-04-03T15:06:53.751Z</time></trkpt><trkpt lat="45.788145" lon="8.980965"><ele>371.0</ele><time>2026-04-03T15:06:55.753Z</time></trkpt><trkpt lat="45.78809" lon="8.9811067"><ele>371.0</ele><time>2026-04-03T15:06:57.752Z</time></trkpt><trkpt lat="45.7880317" lon="8.9812483"><ele>371.0</ele><time>2026-04-03T15:06:59.751Z</time></trkpt><trkpt lat="45.7879783" lon="8.9813833"><ele>371.0</ele><time>2026-04-03T15:07:01.751Z</time></trkpt><trkpt lat="45.7879233" lon="8.9815017"><ele>371.0</ele><time>2026-04-03T15:07:03.751Z</time></trkpt><trkpt lat="45.78786" lon="8.9816333"><ele>371.0</ele><time>2026-04-03T15:07:05.751Z</time></trkpt><trkpt lat="45.7877883" lon="8.9817683"><ele>371.0</ele><time>2026-04-03T15:07:07.751Z</time></trkpt><trkpt lat="45.7877117" lon="8.9818967"><ele>371.0</ele><time>2026-04-03T15:07:09.751Z</time></trkpt><trkpt lat="45.787635" lon="8.982025"><ele>371.0</ele><time>2026-04-03T15:07:11.751Z</time></trkpt><trkpt lat="45.7875717" lon="8.982155"><ele>371.0</ele><time>2026-04-03T15:07:13.752Z</time></trkpt><trkpt lat="45.7875083" lon="8.9822683"><ele>371.0</ele><time>2026-04-03T15:07:15.752Z</time></trkpt><trkpt lat="45.7874317" lon="8.9823817"><ele>371.0</ele><time>2026-04-03T15:07:17.752Z</time></trkpt><trkpt lat="45.78734" lon="8.98247"><ele>371.0</ele><time>2026-04-03T15:07:19.751Z</time></trkpt><trkpt lat="45.7872467" lon="8.9825533"><ele>371.0</ele><time>2026-04-03T15:07:21.752Z</time></trkpt><trkpt lat="45.7871567" lon="8.9826367"><ele>371.0</ele><time>2026-04-03T15:07:23.751Z</time></trkpt><trkpt lat="45.7870767" lon="8.9827117"><ele>371.0</ele><time>2026-04-03T15:07:25.751Z</time></trkpt><trkpt lat="45.7869667" lon="8.9827867"><ele>371.0</ele><time>2026-04-03T15:07:27.752Z</time></trkpt><trkpt lat="45.78685" lon="8.9828533"><ele>370.0</ele><time>2026-04-03T15:07:29.751Z</time></trkpt><trkpt lat="45.78679" lon="8.9828933"><ele>369.0</ele><time>2026-04-03T15:07:30.751Z</time></trkpt><trkpt lat="45.786675" lon="8.982965"><ele>368.0</ele><time>2026-04-03T15:07:32.752Z</time></trkpt><trkpt lat="45.7865617" lon="8.983015"><ele>367.0</ele><time>2026-04-03T15:07:34.751Z</time></trkpt><trkpt lat="45.7864483" lon="8.9830767"><ele>366.0</ele><time>2026-04-03T15:07:36.751Z</time></trkpt><trkpt lat="45.7863333" lon="8.9831317"><ele>366.0</ele><time>2026-04-03T15:07:38.752Z</time></trkpt><trkpt lat="45.7862783" lon="8.9831783"><ele>366.0</ele><time>2026-04-03T15:07:39.752Z</time></trkpt><trkpt lat="45.7861667" lon="8.98323"><ele>366.0</ele><time>2026-04-03T15:07:41.751Z</time></trkpt><trkpt lat="45.7860567" lon="8.98327"><ele>366.0</ele><time>2026-04-03T15:07:43.752Z</time></trkpt><trkpt lat="45.7859533" lon="8.9833167"><ele>366.0</ele><time>2026-04-03T15:07:45.751Z</time></trkpt><trkpt lat="45.78585" lon="8.9833483"><ele>364.4</ele><time>2026-04-03T15:07:47.751Z</time></trkpt><trkpt lat="45.7857467" lon="8.9833817"><ele>362.8</ele><time>2026-04-03T15:07:49.751Z</time></trkpt><trkpt lat="45.7856467" lon="8.98341"><ele>361.2</ele><time>2026-04-03T15:07:51.752Z</time></trkpt><trkpt lat="45.7855583" lon="8.9834367"><ele>359.59999999999997</ele><time>2026-04-03T15:07:53.752Z</time></trkpt><trkpt lat="45.7854667" lon="8.9834617"><ele>358.0</ele><time>2026-04-03T15:07:55.751Z</time></trkpt><trkpt lat="45.7853783" lon="8.9835217"><ele>358.0</ele><time>2026-04-03T15:07:57.751Z</time></trkpt><trkpt lat="45.7852883" lon="8.9835683"><ele>358.0</ele><time>2026-04-03T15:07:59.751Z</time></trkpt><trkpt lat="45.7851917" lon="8.9836117"><ele>358.0</ele><time>2026-04-03T15:08:01.751Z</time></trkpt><trkpt lat="45.7850883" lon="8.98365"><ele>358.0</ele><time>2026-04-03T15:08:03.751Z</time></trkpt><trkpt lat="45.784995" lon="8.983685"><ele>358.0</ele><time>2026-04-03T15:08:05.751Z</time></trkpt><trkpt lat="45.784895" lon="8.9837233"><ele>358.79999999999995</ele><time>2026-04-03T15:08:07.751Z</time></trkpt><trkpt lat="45.7847983" lon="8.983765"><ele>359.6</ele><time>2026-04-03T15:08:09.752Z</time></trkpt><trkpt lat="45.7847" lon="8.9838067"><ele>360.4</ele><time>2026-04-03T15:08:11.752Z</time></trkpt><trkpt lat="45.7846017" lon="8.983845"><ele>361.20000000000005</ele><time>2026-04-03T15:08:13.752Z</time></trkpt><trkpt lat="45.784515" lon="8.9838967"><ele>362.0</ele><time>2026-04-03T15:08:15.752Z</time></trkpt><trkpt lat="45.784425" lon="8.9839417"><ele>363.5</ele><time>2026-04-03T15:08:17.752Z</time></trkpt><trkpt lat="45.784345" lon="8.9839583"><ele>365.0</ele><time>2026-04-03T15:08:19.752Z</time></trkpt><trkpt lat="45.7842533" lon="8.983995"><ele>366.5</ele><time>2026-04-03T15:08:21.751Z</time></trkpt><trkpt lat="45.7841817" lon="8.984"><ele>368.0</ele><time>2026-04-03T15:08:23.753Z</time></trkpt><trkpt lat="45.78411" lon="8.9840183"><ele>369.5</ele><time>2026-04-03T15:08:25.751Z</time></trkpt><trkpt lat="45.7840167" lon="8.984045"><ele>371.0</ele><time>2026-04-03T15:08:27.751Z</time></trkpt><trkpt lat="45.7839283" lon="8.9840833"><ele>371.0</ele><time>2026-04-03T15:08:29.751Z</time></trkpt><trkpt lat="45.7838433" lon="8.98412"><ele>371.0</ele><time>2026-04-03T15:08:31.753Z</time></trkpt><trkpt lat="45.7837617" lon="8.9841683"><ele>371.0</ele><time>2026-04-03T15:08:33.751Z</time></trkpt><trkpt lat="45.783665" lon="8.9841867"><ele>371.0</ele><time>2026-04-03T15:08:35.752Z</time></trkpt><trkpt lat="45.7835817" lon="8.98423"><ele>371.0</ele><time>2026-04-03T15:08:37.751Z</time></trkpt><trkpt lat="45.78349" lon="8.9842667"><ele>371.6666666666667</ele><time>2026-04-03T15:08:39.751Z</time></trkpt><trkpt lat="45.7833917" lon="8.9843017"><ele>372.33333333333337</ele><time>2026-04-03T15:08:41.751Z</time></trkpt><trkpt lat="45.7833" lon="8.9843367"><ele>373.0</ele><time>2026-04-03T15:08:43.752Z</time></trkpt><trkpt lat="45.7832217" lon="8.984385"><ele>373.6666666666667</ele><time>2026-04-03T15:08:45.75Z</time></trkpt><trkpt lat="45.7831567" lon="8.984395"><ele>374.3333333333333</ele><time>2026-04-03T15:08:47.751Z</time></trkpt><trkpt lat="45.7831217" lon="8.9842933"><ele>375.0</ele><time>2026-04-03T15:08:51.751Z</time></trkpt><trkpt lat="45.7830833" lon="8.9841867"><ele>375.42857142857144</ele><time>2026-04-03T15:08:56.752Z</time></trkpt><trkpt lat="45.78303" lon="8.9841383"><ele>375.85714285714283</ele><time>2026-04-03T15:09:01.752Z</time></trkpt><trkpt lat="45.78298" lon="8.9840817"><ele>376.2857142857143</ele><time>2026-04-03T15:09:05.751Z</time></trkpt><trkpt lat="45.7829267" lon="8.9840117"><ele>376.7142857142857</ele><time>2026-04-03T15:09:08.751Z</time></trkpt><trkpt lat="45.782895" lon="8.98391"><ele>377.1428571428571</ele><time>2026-04-03T15:09:11.751Z</time></trkpt><trkpt lat="45.782865" lon="8.9838183"><ele>377.57142857142856</ele><time>2026-04-03T15:09:15.751Z</time></trkpt><trkpt lat="45.7828383" lon="8.9837183"><ele>378.0</ele><time>2026-04-03T15:09:20.751Z</time></trkpt><trkpt lat="45.7828033" lon="8.98364"><ele>378.0</ele><time>2026-04-03T15:09:23.753Z</time></trkpt><trkpt lat="45.7827683" lon="8.98356"><ele>378.0</ele><time>2026-04-03T15:09:26.752Z</time></trkpt><trkpt lat="45.7827283" lon="8.98346"><ele>378.0</ele><time>2026-04-03T15:09:30.752Z</time></trkpt><trkpt lat="45.7826967" lon="8.98336"><ele>378.0</ele><time>2026-04-03T15:09:35.752Z</time></trkpt><trkpt lat="45.7826567" lon="8.9832717"><ele>378.0</ele><time>2026-04-03T15:09:39.751Z</time></trkpt><trkpt lat="45.7826183" lon="8.983195"><ele>378.0</ele><time>2026-04-03T15:09:42.752Z</time></trkpt><trkpt lat="45.7825733" lon="8.983115"><ele>378.0</ele><time>2026-04-03T15:09:45.751Z</time></trkpt><trkpt lat="45.782535" lon="8.9830183"><ele>379.0</ele><time>2026-04-03T15:09:48.751Z</time></trkpt><trkpt lat="45.7825017" lon="8.9829233"><ele>380.0</ele><time>2026-04-03T15:09:51.751Z</time></trkpt><trkpt lat="45.782455" lon="8.9828483"><ele>381.0</ele><time>2026-04-03T15:09:55.75Z</time></trkpt><trkpt lat="45.7824" lon="8.9827983"><ele>382.0</ele><time>2026-04-03T15:09:58.75Z</time></trkpt><trkpt lat="45.78233" lon="8.9827367"><ele>383.0</ele><time>2026-04-03T15:10:01.752Z</time></trkpt><trkpt lat="45.782255" lon="8.9826783"><ele>384.0</ele><time>2026-04-03T15:10:04.751Z</time></trkpt><trkpt lat="45.7821917" lon="8.9826167"><ele>383.99999999999994</ele><time>2026-04-03T15:10:07.751Z</time></trkpt><trkpt lat="45.782135" lon="8.9825567"><ele>384.0</ele><time>2026-04-03T15:10:10.751Z</time></trkpt><trkpt lat="45.7821333" lon="8.9824417"><ele>384.0</ele><time>2026-04-03T15:10:14.751Z</time></trkpt><trkpt lat="45.7821417" lon="8.9823517"><ele>384.0</ele><time>2026-04-03T15:10:17.752Z</time></trkpt><trkpt lat="45.7821817" lon="8.98226"><ele>384.0</ele><time>2026-04-03T15:10:21.752Z</time></trkpt><trkpt lat="45.7822233" lon="8.98217"><ele>383.99999999999994</ele><time>2026-04-03T15:10:26.753Z</time></trkpt><trkpt lat="45.7822233" lon="8.9820733"><ele>384.0</ele><time>2026-04-03T15:10:30.753Z</time></trkpt><trkpt lat="45.782195" lon="8.98198"><ele>384.71428571428567</ele><time>2026-04-03T15:10:35.752Z</time></trkpt><trkpt lat="45.782165" lon="8.9818983"><ele>385.42857142857144</ele><time>2026-04-03T15:10:39.752Z</time></trkpt><trkpt lat="45.7821433" lon="8.9818083"><ele>386.1428571428571</ele><time>2026-04-03T15:10:43.751Z</time></trkpt><trkpt lat="45.78212" lon="8.9817233"><ele>386.85714285714283</ele><time>2026-04-03T15:10:47.753Z</time></trkpt><trkpt lat="45.7820817" lon="8.98165"><ele>387.57142857142856</ele><time>2026-04-03T15:10:51.752Z</time></trkpt><trkpt lat="45.78204" lon="8.9815583"><ele>388.2857142857143</ele><time>2026-04-03T15:10:56.752Z</time></trkpt><trkpt lat="45.7819867" lon="8.9815083"><ele>389.0</ele><time>2026-04-03T15:11:00.751Z</time></trkpt><trkpt lat="45.7819317" lon="8.9814417"><ele>389.42857142857144</ele><time>2026-04-03T15:11:05.751Z</time></trkpt><trkpt lat="45.7818633" lon="8.9814117"><ele>389.85714285714283</ele><time>2026-04-03T15:11:09.751Z</time></trkpt><trkpt lat="45.7817983" lon="8.981375"><ele>390.2857142857143</ele><time>2026-04-03T15:11:13.751Z</time></trkpt><trkpt lat="45.7817417" lon="8.9813167"><ele>390.7142857142857</ele><time>2026-04-03T15:11:17.752Z</time></trkpt><trkpt lat="45.78169" lon="8.9812583"><ele>391.1428571428571</ele><time>2026-04-03T15:11:21.751Z</time></trkpt><trkpt lat="45.781615" lon="8.981205"><ele>391.57142857142856</ele><time>2026-04-03T15:11:25.751Z</time></trkpt><trkpt lat="45.7815533" lon="8.9811783"><ele>392.0</ele><time>2026-04-03T15:11:28.751Z</time></trkpt><trkpt lat="45.7814767" lon="8.9811467"><ele>393.3333333333333</ele><time>2026-04-03T15:11:33.752Z</time></trkpt><trkpt lat="45.7813983" lon="8.9811"><ele>394.66666666666663</ele><time>2026-04-03T15:11:37.752Z</time></trkpt><trkpt lat="45.78134" lon="8.9810517"><ele>396.0</ele><time>2026-04-03T15:11:40.754Z</time></trkpt><trkpt lat="45.781265" lon="8.9810133"><ele>397.33333333333337</ele><time>2026-04-03T15:11:43.751Z</time></trkpt><trkpt lat="45.7811867" lon="8.98101"><ele>398.6666666666667</ele><time>2026-04-03T15:11:46.751Z</time></trkpt><trkpt lat="45.7811083" lon="8.9810017"><ele>400.0</ele><time>2026-04-03T15:11:49.751Z</time></trkpt><trkpt lat="45.7810283" lon="8.9809933"><ele>401.1666666666667</ele><time>2026-04-03T15:11:52.752Z</time></trkpt><trkpt lat="45.78095" lon="8.9809717"><ele>402.33333333333337</ele><time>2026-04-03T15:11:55.75Z</time></trkpt><trkpt lat="45.780875" lon="8.9809517"><ele>403.5</ele><time>2026-04-03T15:11:58.752Z</time></trkpt><trkpt lat="45.7808" lon="8.98093"><ele>404.66666666666663</ele><time>2026-04-03T15:12:01.753Z</time></trkpt><trkpt lat="45.7807317" lon="8.9809217"><ele>405.8333333333333</ele><time>2026-04-03T15:12:04.753Z</time></trkpt><trkpt lat="45.780665" lon="8.9809117"><ele>407.0</ele><time>2026-04-03T15:12:07.751Z</time></trkpt><trkpt lat="45.7805933" lon="8.980855"><ele>406.42857142857144</ele><time>2026-04-03T15:12:11.752Z</time></trkpt><trkpt lat="45.7805617" lon="8.980765"><ele>405.8571428571429</ele><time>2026-04-03T15:12:15.752Z</time></trkpt><trkpt lat="45.7805533" lon="8.9806583"><ele>405.28571428571433</ele><time>2026-04-03T15:12:18.751Z</time></trkpt><trkpt lat="45.7805633" lon="8.9805583"><ele>404.7142857142857</ele><time>2026-04-03T15:12:21.752Z</time></trkpt><trkpt lat="45.7806017" lon="8.98046"><ele>404.1428571428571</ele><time>2026-04-03T15:12:24.751Z</time></trkpt><trkpt lat="45.7806283" lon="8.9803517"><ele>403.5714285714286</ele><time>2026-04-03T15:12:28.751Z</time></trkpt><trkpt lat="45.780565" lon="8.9803367"><ele>403.0</ele><time>2026-04-03T15:12:35.751Z</time></trkpt><trkpt lat="45.780505" lon="8.9804183"><ele>403.0</ele><time>2026-04-03T15:12:39.751Z</time></trkpt><trkpt lat="45.7804483" lon="8.9804717"><ele>403.0</ele><time>2026-04-03T15:12:43.752Z</time></trkpt><trkpt lat="45.7803833" lon="8.9805183"><ele>403.0</ele><time>2026-04-03T15:12:47.752Z</time></trkpt><trkpt lat="45.7803067" lon="8.98053"><ele>403.0</ele><time>2026-04-03T15:12:52.751Z</time></trkpt><trkpt lat="45.7802367" lon="8.9805017"><ele>403.0</ele><time>2026-04-03T15:12:56.754Z</time></trkpt><trkpt lat="45.78017" lon="8.9804933"><ele>403.0</ele><time>2026-04-03T15:12:59.751Z</time></trkpt><trkpt lat="45.7800967" lon="8.9804667"><ele>403.0</ele><time>2026-04-03T15:13:02.751Z</time></trkpt><trkpt lat="45.7800167" lon="8.980435"><ele>403.6666666666667</ele><time>2026-04-03T15:13:05.752Z</time></trkpt><trkpt lat="45.7799483" lon="8.980355"><ele>404.33333333333337</ele><time>2026-04-03T15:13:08.751Z</time></trkpt><trkpt lat="45.7799" lon="8.9802717"><ele>405.0</ele><time>2026-04-03T15:13:11.751Z</time></trkpt><trkpt lat="45.7798267" lon="8.9802533"><ele>405.66666666666663</ele><time>2026-04-03T15:13:15.751Z</time></trkpt><trkpt lat="45.77978" lon="8.9803267"><ele>406.3333333333333</ele><time>2026-04-03T15:13:18.752Z</time></trkpt><trkpt lat="45.77974" lon="8.98043"><ele>407.0</ele><time>2026-04-03T15:13:21.753Z</time></trkpt><trkpt lat="45.7796883" lon="8.980525"><ele>406.99999999999994</ele><time>2026-04-03T15:13:24.751Z</time></trkpt><trkpt lat="45.7796267" lon="8.98061"><ele>407.0</ele><time>2026-04-03T15:13:27.751Z</time></trkpt><trkpt lat="45.7795767" lon="8.980715"><ele>407.0</ele><time>2026-04-03T15:13:30.752Z</time></trkpt><trkpt lat="45.7795367" lon="8.9807933"><ele>407.0</ele><time>2026-04-03T15:13:32.751Z</time></trkpt><trkpt lat="45.7794867" lon="8.98087"><ele>406.99999999999994</ele><time>2026-04-03T15:13:34.752Z</time></trkpt><trkpt lat="45.77944" lon="8.98096"><ele>407.0</ele><time>2026-04-03T15:13:36.751Z</time></trkpt><trkpt lat="45.7794017" lon="8.9810633"><ele>406.28571428571433</ele><time>2026-04-03T15:13:38.752Z</time></trkpt><trkpt lat="45.7793533" lon="8.98114"><ele>405.57142857142856</ele><time>2026-04-03T15:13:40.751Z</time></trkpt><trkpt lat="45.779325" lon="8.981225"><ele>404.8571428571429</ele><time>2026-04-03T15:13:42.751Z</time></trkpt><trkpt lat="45.7792733" lon="8.98133"><ele>404.14285714285717</ele><time>2026-04-03T15:13:45.751Z</time></trkpt><trkpt lat="45.779225" lon="8.981415"><ele>403.42857142857144</ele><time>2026-04-03T15:13:47.751Z</time></trkpt><trkpt lat="45.7791717" lon="8.9814767"><ele>402.7142857142857</ele><time>2026-04-03T15:13:49.751Z</time></trkpt><trkpt lat="45.7791017" lon="8.9815117"><ele>402.0</ele><time>2026-04-03T15:13:51.751Z</time></trkpt><trkpt lat="45.7790367" lon="8.9815317"><ele>401.7142857142857</ele><time>2026-04-03T15:13:53.751Z</time></trkpt><trkpt lat="45.7789617" lon="8.981555"><ele>401.42857142857144</ele><time>2026-04-03T15:13:55.751Z</time></trkpt><trkpt lat="45.7789" lon="8.981585"><ele>401.14285714285717</ele><time>2026-04-03T15:13:57.752Z</time></trkpt><trkpt lat="45.778835" lon="8.981595"><ele>400.8571428571429</ele><time>2026-04-03T15:14:00.751Z</time></trkpt><trkpt lat="45.778765" lon="8.9816"><ele>400.57142857142856</ele><time>2026-04-03T15:14:03.752Z</time></trkpt><trkpt lat="45.778695" lon="8.9816283"><ele>400.28571428571433</ele><time>2026-04-03T15:14:06.752Z</time></trkpt><trkpt lat="45.7786233" lon="8.9816533"><ele>400.0</ele><time>2026-04-03T15:14:09.752Z</time></trkpt><trkpt lat="45.7785483" lon="8.98165"><ele>400.00000000000006</ele><time>2026-04-03T15:14:12.752Z</time></trkpt><trkpt lat="45.778475" lon="8.9816167"><ele>400.0</ele><time>2026-04-03T15:14:16.752Z</time></trkpt><trkpt lat="45.7784117" lon="8.98158"><ele>400.0</ele><time>2026-04-03T15:14:20.751Z</time></trkpt><trkpt lat="45.778335" lon="8.98154"><ele>400.0</ele><time>2026-04-03T15:14:25.751Z</time></trkpt><trkpt lat="45.77827" lon="8.98147"><ele>400.00000000000006</ele><time>2026-04-03T15:14:29.751Z</time></trkpt><trkpt lat="45.7782183" lon="8.9813917"><ele>400.0</ele><time>2026-04-03T15:14:33.752Z</time></trkpt><trkpt lat="45.778185" lon="8.9813017"><ele>400.00000000000006</ele><time>2026-04-03T15:14:36.75Z</time></trkpt><trkpt lat="45.77818" lon="8.9811983"><ele>400.0</ele><time>2026-04-03T15:14:40.752Z</time></trkpt><trkpt lat="45.7781817" lon="8.981095"><ele>400.0</ele><time>2026-04-03T15:14:44.751Z</time></trkpt><trkpt lat="45.7781917" lon="8.9809867"><ele>400.0</ele><time>2026-04-03T15:14:48.752Z</time></trkpt><trkpt lat="45.7782" lon="8.9808733"><ele>400.0</ele><time>2026-04-03T15:14:52.751Z</time></trkpt><trkpt lat="45.7781883" lon="8.9807817"><ele>400.00000000000006</ele><time>2026-04-03T15:14:56.751Z</time></trkpt><trkpt lat="45.7782167" lon="8.98068"><ele>400.0</ele><time>2026-04-03T15:15:00.75Z</time></trkpt><trkpt lat="45.7782567" lon="8.9806033"><ele>400.42857142857144</ele><time>2026-04-03T15:15:03.75Z</time></trkpt><trkpt lat="45.77829" lon="8.980515"><ele>400.8571428571429</ele><time>2026-04-03T15:15:06.751Z</time></trkpt><trkpt lat="45.7783233" lon="8.9804083"><ele>401.28571428571433</ele><time>2026-04-03T15:15:10.751Z</time></trkpt><trkpt lat="45.7783567" lon="8.98033"><ele>401.7142857142857</ele><time>2026-04-03T15:15:13.752Z</time></trkpt><trkpt lat="45.77839" lon="8.9802533"><ele>402.1428571428571</ele><time>2026-04-03T15:15:16.753Z</time></trkpt><trkpt lat="45.778415" lon="8.9801667"><ele>402.5714285714286</ele><time>2026-04-03T15:15:19.753Z</time></trkpt><trkpt lat="45.778445" lon="8.9800833"><ele>403.0</ele><time>2026-04-03T15:15:22.751Z</time></trkpt><trkpt lat="45.7784867" lon="8.97999"><ele>403.6666666666667</ele><time>2026-04-03T15:15:26.751Z</time></trkpt><trkpt lat="45.77852" lon="8.9799133"><ele>404.33333333333337</ele><time>2026-04-03T15:15:29.751Z</time></trkpt><trkpt lat="45.778565" lon="8.9798117"><ele>405.0</ele><time>2026-04-03T15:15:33.751Z</time></trkpt><trkpt lat="45.77861" lon="8.9797117"><ele>405.66666666666663</ele><time>2026-04-03T15:15:37.751Z</time></trkpt><trkpt lat="45.7786567" lon="8.9796117"><ele>406.3333333333333</ele><time>2026-04-03T15:15:41.75Z</time></trkpt><trkpt lat="45.778695" lon="8.9795383"><ele>407.0</ele><time>2026-04-03T15:15:44.753Z</time></trkpt><trkpt lat="45.7787467" lon="8.9794533"><ele>406.99999999999994</ele><time>2026-04-03T15:15:48.753Z</time></trkpt><trkpt lat="45.7787817" lon="8.9793533"><ele>407.0</ele><time>2026-04-03T15:15:52.753Z</time></trkpt><trkpt lat="45.7788317" lon="8.9792567"><ele>407.0</ele><time>2026-04-03T15:15:56.752Z</time></trkpt><trkpt lat="45.778895" lon="8.9791983"><ele>407.0</ele><time>2026-04-03T15:16:00.752Z</time></trkpt><trkpt lat="45.7789467" lon="8.9791133"><ele>406.99999999999994</ele><time>2026-04-03T15:16:04.752Z</time></trkpt><trkpt lat="45.7790017" lon="8.9790467"><ele>407.0</ele><time>2026-04-03T15:16:08.752Z</time></trkpt><trkpt lat="45.7790367" lon="8.978955"><ele>407.66666666666663</ele><time>2026-04-03T15:16:12.752Z</time></trkpt><trkpt lat="45.77906" lon="8.9788533"><ele>408.3333333333333</ele><time>2026-04-03T15:16:16.751Z</time></trkpt><trkpt lat="45.7790933" lon="8.9787467"><ele>409.0</ele><time>2026-04-03T15:16:20.753Z</time></trkpt><trkpt lat="45.7791217" lon="8.9786333"><ele>409.66666666666663</ele><time>2026-04-03T15:16:23.753Z</time></trkpt><trkpt lat="45.7791617" lon="8.9785233"><ele>410.3333333333333</ele><time>2026-04-03T15:16:26.753Z</time></trkpt><trkpt lat="45.779205" lon="8.9784067"><ele>411.0</ele><time>2026-04-03T15:16:29.751Z</time></trkpt><trkpt lat="45.7792217" lon="8.97831"><ele>411.0</ele><time>2026-04-03T15:16:31.754Z</time></trkpt><trkpt lat="45.7792033" lon="8.9782017"><ele>411.0</ele><time>2026-04-03T15:16:33.751Z</time></trkpt><trkpt lat="45.7791667" lon="8.9781"><ele>411.0</ele><time>2026-04-03T15:16:35.751Z</time></trkpt><trkpt lat="45.77917" lon="8.9780033"><ele>411.0</ele><time>2026-04-03T15:16:37.751Z</time></trkpt><trkpt lat="45.7792167" lon="8.9779133"><ele>411.0</ele><time>2026-04-03T15:16:39.752Z</time></trkpt><trkpt lat="45.7792883" lon="8.9778383"><ele>411.0</ele><time>2026-04-03T15:16:41.752Z</time></trkpt><trkpt lat="45.7793667" lon="8.9777667"><ele>410.5</ele><time>2026-04-03T15:16:43.754Z</time></trkpt><trkpt lat="45.7794417" lon="8.9776917"><ele>410.0</ele><time>2026-04-03T15:16:45.752Z</time></trkpt><trkpt lat="45.7795133" lon="8.9776283"><ele>409.5</ele><time>2026-04-03T15:16:47.753Z</time></trkpt><trkpt lat="45.77958" lon="8.97756"><ele>409.0</ele><time>2026-04-03T15:16:49.751Z</time></trkpt><trkpt lat="45.7796417" lon="8.9774933"><ele>408.5</ele><time>2026-04-03T15:16:51.75Z</time></trkpt><trkpt lat="45.7796983" lon="8.9774117"><ele>408.0</ele><time>2026-04-03T15:16:53.75Z</time></trkpt><trkpt lat="45.7797467" lon="8.9773267"><ele>407.6666666666667</ele><time>2026-04-03T15:16:55.75Z</time></trkpt><trkpt lat="45.7797933" lon="8.9772417"><ele>407.33333333333337</ele><time>2026-04-03T15:16:57.75Z</time></trkpt><trkpt lat="45.7798283" lon="8.977145"><ele>407.0</ele><time>2026-04-03T15:16:59.75Z</time></trkpt><trkpt lat="45.779855" lon="8.9770483"><ele>406.6666666666667</ele><time>2026-04-03T15:17:01.75Z</time></trkpt><trkpt lat="45.7798967" lon="8.9769467"><ele>406.33333333333337</ele><time>2026-04-03T15:17:03.75Z</time></trkpt><trkpt lat="45.7799283" lon="8.9768433"><ele>406.0</ele><time>2026-04-03T15:17:05.75Z</time></trkpt><trkpt lat="45.7799567" lon="8.976735"><ele>406.00000000000006</ele><time>2026-04-03T15:17:07.749Z</time></trkpt><trkpt lat="45.779985" lon="8.9766283"><ele>406.0</ele><time>2026-04-03T15:17:09.752Z</time></trkpt><trkpt lat="45.78001" lon="8.976515"><ele>406.0</ele><time>2026-04-03T15:17:11.751Z</time></trkpt><trkpt lat="45.78003" lon="8.9764067"><ele>406.0</ele><time>2026-04-03T15:17:13.75Z</time></trkpt><trkpt lat="45.780055" lon="8.9763033"><ele>406.00000000000006</ele><time>2026-04-03T15:17:15.75Z</time></trkpt><trkpt lat="45.7800717" lon="8.976195"><ele>406.0</ele><time>2026-04-03T15:17:17.75Z</time></trkpt><trkpt lat="45.7800867" lon="8.9760867"><ele>406.0</ele><time>2026-04-03T15:17:19.752Z</time></trkpt><trkpt lat="45.7801033" lon="8.9759833"><ele>406.0</ele><time>2026-04-03T15:17:21.751Z</time></trkpt><trkpt lat="45.7801167" lon="8.9758833"><ele>406.0</ele><time>2026-04-03T15:17:23.752Z</time></trkpt><trkpt lat="45.780125" lon="8.9757883"><ele>406.0</ele><time>2026-04-03T15:17:25.751Z</time></trkpt><trkpt lat="45.7801367" lon="8.9756917"><ele>406.0</ele><time>2026-04-03T15:17:27.751Z</time></trkpt><trkpt lat="45.7801433" lon="8.9755883"><ele>406.0</ele><time>2026-04-03T15:17:29.751Z</time></trkpt><trkpt lat="45.78015" lon="8.9754833"><ele>406.0</ele><time>2026-04-03T15:17:31.75Z</time></trkpt><trkpt lat="45.78016" lon="8.9753783"><ele>405.85714285714283</ele><time>2026-04-03T15:17:33.751Z</time></trkpt><trkpt lat="45.78017" lon="8.9752767"><ele>405.7142857142857</ele><time>2026-04-03T15:17:35.751Z</time></trkpt><trkpt lat="45.7801833" lon="8.9751733"><ele>405.57142857142856</ele><time>2026-04-03T15:17:37.751Z</time></trkpt><trkpt lat="45.7801967" lon="8.9750767"><ele>405.42857142857144</ele><time>2026-04-03T15:17:39.752Z</time></trkpt><trkpt lat="45.780205" lon="8.97498"><ele>405.2857142857143</ele><time>2026-04-03T15:17:41.751Z</time></trkpt><trkpt lat="45.78021" lon="8.97485"><ele>405.1428571428571</ele><time>2026-04-03T15:17:44.751Z</time></trkpt><trkpt lat="45.7802167" lon="8.9747533"><ele>405.0</ele><time>2026-04-03T15:17:46.752Z</time></trkpt><trkpt lat="45.780225" lon="8.9746167"><ele>405.5</ele><time>2026-04-03T15:17:49.751Z</time></trkpt><trkpt lat="45.7802433" lon="8.9745233"><ele>406.0</ele><time>2026-04-03T15:17:51.75Z</time></trkpt><trkpt lat="45.7802767" lon="8.97442"><ele>406.5</ele><time>2026-04-03T15:17:53.75Z</time></trkpt><trkpt lat="45.7803117" lon="8.9742983"><ele>407.0</ele><time>2026-04-03T15:17:55.749Z</time></trkpt><trkpt lat="45.7803517" lon="8.97418"><ele>407.5</ele><time>2026-04-03T15:17:57.749Z</time></trkpt><trkpt lat="45.7803867" lon="8.9740883"><ele>408.0</ele><time>2026-04-03T15:17:59.751Z</time></trkpt><trkpt lat="45.7804267" lon="8.9739917"><ele>408.0</ele><time>2026-04-03T15:18:09.75Z</time></trkpt><trkpt lat="45.780485" lon="8.97395"><ele>408.0</ele><time>2026-04-03T15:18:12.751Z</time></trkpt><trkpt lat="45.7804867" lon="8.9738583"><ele>408.0</ele><time>2026-04-03T15:18:26.751Z</time></trkpt><trkpt lat="45.7804067" lon="8.9739"><ele>408.0</ele><time>2026-04-03T15:18:29.749Z</time></trkpt><trkpt lat="45.7803417" lon="8.973945"><ele>408.0</ele><time>2026-04-03T15:18:31.75Z</time></trkpt><trkpt lat="45.7802717" lon="8.9739967"><ele>408.0</ele><time>2026-04-03T15:18:33.75Z</time></trkpt><trkpt lat="45.780205" lon="8.9740433"><ele>408.0</ele><time>2026-04-03T15:18:35.75Z</time></trkpt><trkpt lat="45.780145" lon="8.9740783"><ele>407.8571428571429</ele><time>2026-04-03T15:18:37.75Z</time></trkpt><trkpt lat="45.7800833" lon="8.9741183"><ele>407.7142857142857</ele><time>2026-04-03T15:18:39.751Z</time></trkpt><trkpt lat="45.78002" lon="8.9741583"><ele>407.57142857142856</ele><time>2026-04-03T15:18:41.751Z</time></trkpt><trkpt lat="45.779955" lon="8.9742033"><ele>407.42857142857144</ele><time>2026-04-03T15:18:43.75Z</time></trkpt><trkpt lat="45.7798933" lon="8.9742417"><ele>407.2857142857143</ele><time>2026-04-03T15:18:45.75Z</time></trkpt><trkpt lat="45.77983" lon="8.974275"><ele>407.14285714285717</ele><time>2026-04-03T15:18:47.75Z</time></trkpt><trkpt lat="45.7797567" lon="8.9743117"><ele>407.0</ele><time>2026-04-03T15:18:50.75Z</time></trkpt><trkpt lat="45.77969" lon="8.9743317"><ele>407.28571428571433</ele><time>2026-04-03T15:18:53.75Z</time></trkpt><trkpt lat="45.7796117" lon="8.9743767"><ele>407.57142857142856</ele><time>2026-04-03T15:18:56.751Z</time></trkpt><trkpt lat="45.7795517" lon="8.9744117"><ele>407.8571428571429</ele><time>2026-04-03T15:18:58.751Z</time></trkpt><trkpt lat="45.7794833" lon="8.9744367"><ele>408.14285714285717</ele><time>2026-04-03T15:19:00.753Z</time></trkpt><trkpt lat="45.7794117" lon="8.9744133"><ele>408.42857142857144</ele><time>2026-04-03T15:19:02.751Z</time></trkpt><trkpt lat="45.779355" lon="8.9743533"><ele>408.7142857142857</ele><time>2026-04-03T15:19:04.75Z</time></trkpt><trkpt lat="45.7792883" lon="8.9743067"><ele>409.0</ele><time>2026-04-03T15:19:06.751Z</time></trkpt><trkpt lat="45.7792117" lon="8.9742867"><ele>409.2</ele><time>2026-04-03T15:19:08.751Z</time></trkpt><trkpt lat="45.77913" lon="8.9742667"><ele>409.4</ele><time>2026-04-03T15:19:10.751Z</time></trkpt><trkpt lat="45.7790433" lon="8.9742467"><ele>409.6</ele><time>2026-04-03T15:19:12.75Z</time></trkpt><trkpt lat="45.7789483" lon="8.9742267"><ele>409.8</ele><time>2026-04-03T15:19:14.751Z</time></trkpt><trkpt lat="45.7788567" lon="8.9742067"><ele>410.0</ele><time>2026-04-03T15:19:16.75Z</time></trkpt><trkpt lat="45.778755" lon="8.9741967"><ele>409.6</ele><time>2026-04-03T15:19:18.75Z</time></trkpt><trkpt lat="45.7786467" lon="8.9741683"><ele>409.2</ele><time>2026-04-03T15:19:20.751Z</time></trkpt><trkpt lat="45.77854" lon="8.9741133"><ele>408.79999999999995</ele><time>2026-04-03T15:19:22.749Z</time></trkpt><trkpt lat="45.7784267" lon="8.9740433"><ele>408.4</ele><time>2026-04-03T15:19:24.75Z</time></trkpt><trkpt lat="45.7783683" lon="8.974005"><ele>408.0</ele><time>2026-04-03T15:19:25.75Z</time></trkpt><trkpt lat="45.77825" lon="8.973945"><ele>408.0</ele><time>2026-04-03T15:19:27.749Z</time></trkpt><trkpt lat="45.77819" lon="8.973915"><ele>408.0</ele><time>2026-04-03T15:19:28.749Z</time></trkpt><trkpt lat="45.77813" lon="8.9738867"><ele>408.0</ele><time>2026-04-03T15:19:29.751Z</time></trkpt><trkpt lat="45.77801" lon="8.9738433"><ele>408.0</ele><time>2026-04-03T15:19:31.75Z</time></trkpt><trkpt lat="45.7779483" lon="8.9738217"><ele>408.0</ele><time>2026-04-03T15:19:32.75Z</time></trkpt><trkpt lat="45.7778267" lon="8.97378"><ele>408.0</ele><time>2026-04-03T15:19:34.75Z</time></trkpt><trkpt lat="45.77771" lon="8.9737267"><ele>407.2857142857143</ele><time>2026-04-03T15:19:36.751Z</time></trkpt><trkpt lat="45.7776517" lon="8.9736917"><ele>406.57142857142856</ele><time>2026-04-03T15:19:37.751Z</time></trkpt><trkpt lat="45.7775883" lon="8.9736617"><ele>405.8571428571429</ele><time>2026-04-03T15:19:38.751Z</time></trkpt><trkpt lat="45.7775217" lon="8.9736333"><ele>405.1428571428571</ele><time>2026-04-03T15:19:39.75Z</time></trkpt><trkpt lat="45.7774567" lon="8.9735983"><ele>404.4285714285714</ele><time>2026-04-03T15:19:40.751Z</time></trkpt><trkpt lat="45.77739" lon="8.9735667"><ele>403.7142857142857</ele><time>2026-04-03T15:19:41.75Z</time></trkpt><trkpt lat="45.7773233" lon="8.9735367"><ele>403.0</ele><time>2026-04-03T15:19:42.75Z</time></trkpt><trkpt lat="45.77726" lon="8.9735017"><ele>403.0</ele><time>2026-04-03T15:19:43.75Z</time></trkpt><trkpt lat="45.7772017" lon="8.9734667"><ele>403.0</ele><time>2026-04-03T15:19:44.751Z</time></trkpt><trkpt lat="45.7770867" lon="8.9733967"><ele>403.0</ele><time>2026-04-03T15:19:46.751Z</time></trkpt><trkpt lat="45.7769717" lon="8.9733317"><ele>403.0</ele><time>2026-04-03T15:19:48.749Z</time></trkpt><trkpt lat="45.7769083" lon="8.973305"><ele>403.0</ele><time>2026-04-03T15:19:49.751Z</time></trkpt><trkpt lat="45.7767967" lon="8.9732483"><ele>402.5</ele><time>2026-04-03T15:19:51.75Z</time></trkpt><trkpt lat="45.7766917" lon="8.9732"><ele>402.0</ele><time>2026-04-03T15:19:53.751Z</time></trkpt><trkpt lat="45.7765833" lon="8.973145"><ele>401.5</ele><time>2026-04-03T15:19:55.75Z</time></trkpt><trkpt lat="45.77647" lon="8.9731"><ele>401.0</ele><time>2026-04-03T15:19:57.75Z</time></trkpt><trkpt lat="45.77636" lon="8.9730533"><ele>401.0</ele><time>2026-04-03T15:19:59.75Z</time></trkpt><trkpt lat="45.7762517" lon="8.97302"><ele>401.0</ele><time>2026-04-03T15:20:01.75Z</time></trkpt><trkpt lat="45.776155" lon="8.9729733"><ele>401.0</ele><time>2026-04-03T15:20:03.751Z</time></trkpt><trkpt lat="45.7760533" lon="8.9729367"><ele>401.0</ele><time>2026-04-03T15:20:05.75Z</time></trkpt><trkpt lat="45.775955" lon="8.9728983"><ele>401.0</ele><time>2026-04-03T15:20:07.75Z</time></trkpt><trkpt lat="45.775855" lon="8.9728633"><ele>400.6</ele><time>2026-04-03T15:20:09.75Z</time></trkpt><trkpt lat="45.7757517" lon="8.9728217"><ele>400.20000000000005</ele><time>2026-04-03T15:20:11.751Z</time></trkpt><trkpt lat="45.7756517" lon="8.9727583"><ele>399.79999999999995</ele><time>2026-04-03T15:20:13.75Z</time></trkpt><trkpt lat="45.7755583" lon="8.9726733"><ele>399.4</ele><time>2026-04-03T15:20:15.751Z</time></trkpt><trkpt lat="45.77546" lon="8.972585"><ele>399.0</ele><time>2026-04-03T15:20:17.751Z</time></trkpt><trkpt lat="45.775365" lon="8.9724833"><ele>398.25</ele><time>2026-04-03T15:20:19.75Z</time></trkpt><trkpt lat="45.7752833" lon="8.972355"><ele>397.5</ele><time>2026-04-03T15:20:21.75Z</time></trkpt><trkpt lat="45.7752067" lon="8.972225"><ele>396.75</ele><time>2026-04-03T15:20:23.751Z</time></trkpt><trkpt lat="45.7751283" lon="8.9721083"><ele>396.0</ele><time>2026-04-03T15:20:25.751Z</time></trkpt><trkpt lat="45.775055" lon="8.972005"><ele>396.8</ele><time>2026-04-03T15:20:27.751Z</time></trkpt><trkpt lat="45.7749983" lon="8.9718917"><ele>397.6</ele><time>2026-04-03T15:20:29.75Z</time></trkpt><trkpt lat="45.7749533" lon="8.9717667"><ele>398.4</ele><time>2026-04-03T15:20:31.751Z</time></trkpt><trkpt lat="45.7749083" lon="8.971635"><ele>399.2</ele><time>2026-04-03T15:20:33.75Z</time></trkpt><trkpt lat="45.774865" lon="8.971495"><ele>400.0</ele><time>2026-04-03T15:20:35.75Z</time></trkpt><trkpt lat="45.7748133" lon="8.9713667"><ele>400.0</ele><time>2026-04-03T15:20:37.751Z</time></trkpt><trkpt lat="45.77475" lon="8.9712533"><ele>400.0</ele><time>2026-04-03T15:20:39.751Z</time></trkpt><trkpt lat="45.7746967" lon="8.9711317"><ele>400.0</ele><time>2026-04-03T15:20:41.75Z</time></trkpt><trkpt lat="45.7746333" lon="8.971015"><ele>400.0</ele><time>2026-04-03T15:20:43.751Z</time></trkpt><trkpt lat="45.7745483" lon="8.9708933"><ele>400.0</ele><time>2026-04-03T15:20:45.751Z</time></trkpt><trkpt lat="45.7744967" lon="8.9708367"><ele>399.2</ele><time>2026-04-03T15:20:46.751Z</time></trkpt><trkpt lat="45.7744017" lon="8.9707283"><ele>398.4</ele><time>2026-04-03T15:20:48.75Z</time></trkpt><trkpt lat="45.774325" lon="8.9706283"><ele>397.6</ele><time>2026-04-03T15:20:50.751Z</time></trkpt><trkpt lat="45.7742383" lon="8.9705317"><ele>396.8</ele><time>2026-04-03T15:20:52.751Z</time></trkpt><trkpt lat="45.774155" lon="8.9704667"><ele>396.0</ele><time>2026-04-03T15:20:54.751Z</time></trkpt><trkpt lat="45.77406" lon="8.97042"><ele>396.0</ele><time>2026-04-03T15:20:56.751Z</time></trkpt><trkpt lat="45.7739833" lon="8.9703817"><ele>396.0</ele><time>2026-04-03T15:20:58.75Z</time></trkpt><trkpt lat="45.7739217" lon="8.9703483"><ele>396.0</ele><time>2026-04-03T15:21:00.751Z</time></trkpt><trkpt lat="45.7738333" lon="8.97025"><ele>396.0</ele><time>2026-04-03T15:21:36.752Z</time></trkpt><trkpt lat="45.7737617" lon="8.9702233"><ele>396.0</ele><time>2026-04-03T15:21:39.749Z</time></trkpt><trkpt lat="45.7736917" lon="8.9701933"><ele>396.0</ele><time>2026-04-03T15:21:41.75Z</time></trkpt><trkpt lat="45.7736117" lon="8.9701567"><ele>396.0</ele><time>2026-04-03T15:21:43.75Z</time></trkpt><trkpt lat="45.773525" lon="8.9701083"><ele>396.0</ele><time>2026-04-03T15:21:45.749Z</time></trkpt><trkpt lat="45.77344" lon="8.9700533"><ele>396.0</ele><time>2026-04-03T15:21:47.75Z</time></trkpt><trkpt lat="45.7733583" lon="8.9699967"><ele>396.0</ele><time>2026-04-03T15:21:49.75Z</time></trkpt><trkpt lat="45.7732617" lon="8.9699517"><ele>396.0</ele><time>2026-04-03T15:21:51.75Z</time></trkpt><trkpt lat="45.7731617" lon="8.9699433"><ele>395.3333333333333</ele><time>2026-04-03T15:21:53.752Z</time></trkpt><trkpt lat="45.7730783" lon="8.969915"><ele>394.66666666666663</ele><time>2026-04-03T15:21:55.749Z</time></trkpt><trkpt lat="45.7730233" lon="8.969865"><ele>394.0</ele><time>2026-04-03T15:21:57.749Z</time></trkpt><trkpt lat="45.7729733" lon="8.9698033"><ele>393.3333333333333</ele><time>2026-04-03T15:21:59.749Z</time></trkpt><trkpt lat="45.7729133" lon="8.9697367"><ele>392.66666666666663</ele><time>2026-04-03T15:22:01.749Z</time></trkpt><trkpt lat="45.7728467" lon="8.96967"><ele>392.0</ele><time>2026-04-03T15:22:03.749Z</time></trkpt><trkpt lat="45.77278" lon="8.9696117"><ele>392.0</ele><time>2026-04-03T15:22:05.749Z</time></trkpt><trkpt lat="45.7727017" lon="8.9695433"><ele>392.0</ele><time>2026-04-03T15:22:07.749Z</time></trkpt><trkpt lat="45.7726233" lon="8.96946"><ele>392.0</ele><time>2026-04-03T15:22:09.749Z</time></trkpt><trkpt lat="45.772545" lon="8.9693417"><ele>392.0</ele><time>2026-04-03T15:22:11.749Z</time></trkpt><trkpt lat="45.7724733" lon="8.96921"><ele>392.0</ele><time>2026-04-03T15:22:13.749Z</time></trkpt><trkpt lat="45.7724017" lon="8.9690783"><ele>391.6</ele><time>2026-04-03T15:22:15.749Z</time></trkpt><trkpt lat="45.7723367" lon="8.9689383"><ele>391.20000000000005</ele><time>2026-04-03T15:22:17.75Z</time></trkpt><trkpt lat="45.7722417" lon="8.96887"><ele>390.8</ele><time>2026-04-03T15:22:19.75Z</time></trkpt><trkpt lat="45.7721267" lon="8.9688967"><ele>390.4</ele><time>2026-04-03T15:22:21.751Z</time></trkpt><trkpt lat="45.772025" lon="8.968935"><ele>390.0</ele><time>2026-04-03T15:22:23.749Z</time></trkpt><trkpt lat="45.771925" lon="8.9689617"><ele>389.6</ele><time>2026-04-03T15:22:25.749Z</time></trkpt><trkpt lat="45.7718367" lon="8.9689917"><ele>389.2</ele><time>2026-04-03T15:22:27.749Z</time></trkpt><trkpt lat="45.7717417" lon="8.9690383"><ele>388.79999999999995</ele><time>2026-04-03T15:22:29.749Z</time></trkpt><trkpt lat="45.7716383" lon="8.9690917"><ele>388.4</ele><time>2026-04-03T15:22:31.75Z</time></trkpt><trkpt lat="45.7715367" lon="8.9691633"><ele>388.0</ele><time>2026-04-03T15:22:33.749Z</time></trkpt><trkpt lat="45.77144" lon="8.96922"><ele>388.00000000000006</ele><time>2026-04-03T15:22:35.75Z</time></trkpt><trkpt lat="45.771355" lon="8.96927"><ele>388.0</ele><time>2026-04-03T15:22:37.749Z</time></trkpt><trkpt lat="45.7712733" lon="8.969305"><ele>388.0</ele><time>2026-04-03T15:22:39.749Z</time></trkpt><trkpt lat="45.771195" lon="8.9693117"><ele>388.0</ele><time>2026-04-03T15:22:41.75Z</time></trkpt><trkpt lat="45.7711333" lon="8.96934"><ele>388.00000000000006</ele><time>2026-04-03T15:22:43.75Z</time></trkpt><trkpt lat="45.7710633" lon="8.9694267"><ele>388.0</ele><time>2026-04-03T15:22:46.749Z</time></trkpt><trkpt lat="45.7710083" lon="8.9695"><ele>389.33333333333337</ele><time>2026-04-03T15:22:48.751Z</time></trkpt><trkpt lat="45.77094" lon="8.9695817"><ele>390.6666666666667</ele><time>2026-04-03T15:22:50.752Z</time></trkpt><trkpt lat="45.7708833" lon="8.96967"><ele>392.0</ele><time>2026-04-03T15:22:52.749Z</time></trkpt><trkpt lat="45.7708183" lon="8.9697467"><ele>393.33333333333337</ele><time>2026-04-03T15:22:54.751Z</time></trkpt><trkpt lat="45.7707567" lon="8.9698283"><ele>394.6666666666667</ele><time>2026-04-03T15:22:56.75Z</time></trkpt><trkpt lat="45.770695" lon="8.96991"><ele>396.0</ele><time>2026-04-03T15:22:58.749Z</time></trkpt><trkpt lat="45.770635" lon="8.969995"><ele>395.6666666666667</ele><time>2026-04-03T15:23:00.75Z</time></trkpt><trkpt lat="45.77057" lon="8.9700933"><ele>395.33333333333337</ele><time>2026-04-03T15:23:02.75Z</time></trkpt><trkpt lat="45.77051" lon="8.970175"><ele>395.0</ele><time>2026-04-03T15:23:04.749Z</time></trkpt><trkpt lat="45.7704483" lon="8.9702417"><ele>394.6666666666667</ele><time>2026-04-03T15:23:06.75Z</time></trkpt><trkpt lat="45.7703867" lon="8.9703133"><ele>394.33333333333337</ele><time>2026-04-03T15:23:08.751Z</time></trkpt><trkpt lat="45.7703283" lon="8.9703733"><ele>394.0</ele><time>2026-04-03T15:23:10.75Z</time></trkpt><trkpt lat="45.7702733" lon="8.9704333"><ele>394.00000000000006</ele><time>2026-04-03T15:23:12.75Z</time></trkpt><trkpt lat="45.77022" lon="8.970505"><ele>394.0</ele><time>2026-04-03T15:23:14.75Z</time></trkpt><trkpt lat="45.77016" lon="8.9705717"><ele>394.0</ele><time>2026-04-03T15:23:16.749Z</time></trkpt><trkpt lat="45.77009" lon="8.97066"><ele>394.0</ele><time>2026-04-03T15:23:19.75Z</time></trkpt><trkpt lat="45.7700367" lon="8.9707183"><ele>394.00000000000006</ele><time>2026-04-03T15:23:21.75Z</time></trkpt><trkpt lat="45.7699583" lon="8.970805"><ele>394.0</ele><time>2026-04-03T15:23:24.75Z</time></trkpt><trkpt lat="45.7698917" lon="8.9708533"><ele>393.83333333333337</ele><time>2026-04-03T15:23:26.75Z</time></trkpt><trkpt lat="45.7698167" lon="8.97089"><ele>393.6666666666667</ele><time>2026-04-03T15:23:28.75Z</time></trkpt><trkpt lat="45.76975" lon="8.9709233"><ele>393.5</ele><time>2026-04-03T15:23:30.749Z</time></trkpt><trkpt lat="45.7696567" lon="8.9709633"><ele>393.33333333333337</ele><time>2026-04-03T15:23:33.75Z</time></trkpt><trkpt lat="45.76959" lon="8.9709817"><ele>393.1666666666667</ele><time>2026-04-03T15:23:35.749Z</time></trkpt><trkpt lat="45.76952" lon="8.9709917"><ele>393.0</ele><time>2026-04-03T15:23:37.75Z</time></trkpt><trkpt lat="45.7694483" lon="8.9710083"><ele>393.00000000000006</ele><time>2026-04-03T15:23:39.75Z</time></trkpt><trkpt lat="45.7693767" lon="8.9710383"><ele>393.0</ele><time>2026-04-03T15:23:41.751Z</time></trkpt><trkpt lat="45.7693" lon="8.9710717"><ele>393.0</ele><time>2026-04-03T15:23:43.75Z</time></trkpt><trkpt lat="45.7692433" lon="8.97112"><ele>393.0</ele><time>2026-04-03T15:23:45.749Z</time></trkpt><trkpt lat="45.769185" lon="8.971155"><ele>393.0</ele><time>2026-04-03T15:23:47.751Z</time></trkpt><trkpt lat="45.7691183" lon="8.971175"><ele>393.00000000000006</ele><time>2026-04-03T15:23:49.75Z</time></trkpt><trkpt lat="45.7690483" lon="8.971205"><ele>393.0</ele><time>2026-04-03T15:23:51.75Z</time></trkpt><trkpt lat="45.7689833" lon="8.971235"><ele>392.8571428571429</ele><time>2026-04-03T15:23:53.75Z</time></trkpt><trkpt lat="45.7689183" lon="8.971265"><ele>392.7142857142857</ele><time>2026-04-03T15:23:55.75Z</time></trkpt><trkpt lat="45.7688567" lon="8.971295"><ele>392.57142857142856</ele><time>2026-04-03T15:23:57.749Z</time></trkpt><trkpt lat="45.76879" lon="8.9713183"><ele>392.42857142857144</ele><time>2026-04-03T15:23:59.751Z</time></trkpt><trkpt lat="45.7687083" lon="8.97135"><ele>392.2857142857143</ele><time>2026-04-03T15:24:02.752Z</time></trkpt><trkpt lat="45.768645" lon="8.9713483"><ele>392.14285714285717</ele><time>2026-04-03T15:24:04.75Z</time></trkpt><trkpt lat="45.7685683" lon="8.9713283"><ele>392.0</ele><time>2026-04-03T15:24:06.751Z</time></trkpt><trkpt lat="45.768485" lon="8.9713317"><ele>392.2857142857143</ele><time>2026-04-03T15:24:08.752Z</time></trkpt><trkpt lat="45.768405" lon="8.971325"><ele>392.57142857142856</ele><time>2026-04-03T15:24:10.751Z</time></trkpt><trkpt lat="45.7683283" lon="8.9713233"><ele>392.8571428571429</ele><time>2026-04-03T15:24:12.751Z</time></trkpt><trkpt lat="45.768255" lon="8.9713233"><ele>393.1428571428571</ele><time>2026-04-03T15:24:14.75Z</time></trkpt><trkpt lat="45.7681833" lon="8.971345"><ele>393.42857142857144</ele><time>2026-04-03T15:24:16.751Z</time></trkpt><trkpt lat="45.7681117" lon="8.971355"><ele>393.7142857142857</ele><time>2026-04-03T15:24:18.752Z</time></trkpt><trkpt lat="45.76804" lon="8.9713733"><ele>394.0</ele><time>2026-04-03T15:24:20.751Z</time></trkpt><trkpt lat="45.7679733" lon="8.9713983"><ele>394.0</ele><time>2026-04-03T15:24:22.75Z</time></trkpt><trkpt lat="45.767905" lon="8.971405"><ele>394.0</ele><time>2026-04-03T15:24:24.75Z</time></trkpt><trkpt lat="45.767835" lon="8.9714033"><ele>394.0</ele><time>2026-04-03T15:24:26.751Z</time></trkpt><trkpt lat="45.76776" lon="8.9714033"><ele>394.0</ele><time>2026-04-03T15:24:28.752Z</time></trkpt><trkpt lat="45.7676833" lon="8.9714033"><ele>394.0</ele><time>2026-04-03T15:24:30.754Z</time></trkpt><trkpt lat="45.767605" lon="8.9714117"><ele>394.0</ele><time>2026-04-03T15:24:32.752Z</time></trkpt><trkpt lat="45.7675317" lon="8.971415"><ele>394.0</ele><time>2026-04-03T15:24:34.751Z</time></trkpt><trkpt lat="45.7674633" lon="8.97141"><ele>394.7142857142857</ele><time>2026-04-03T15:24:36.752Z</time></trkpt><trkpt lat="45.767395" lon="8.9714167"><ele>395.42857142857144</ele><time>2026-04-03T15:24:38.751Z</time></trkpt><trkpt lat="45.7673317" lon="8.9714217"><ele>396.1428571428571</ele><time>2026-04-03T15:24:40.751Z</time></trkpt><trkpt lat="45.7672433" lon="8.97141"><ele>396.8571428571429</ele><time>2026-04-03T15:24:43.751Z</time></trkpt><trkpt lat="45.76717" lon="8.9714067"><ele>397.57142857142856</ele><time>2026-04-03T15:24:46.751Z</time></trkpt><trkpt lat="45.767105" lon="8.9714"><ele>398.2857142857143</ele><time>2026-04-03T15:24:49.751Z</time></trkpt><trkpt lat="45.7670417" lon="8.9714117"><ele>399.0</ele><time>2026-04-03T15:24:52.751Z</time></trkpt><trkpt lat="45.7669617" lon="8.971415"><ele>399.0</ele><time>2026-04-03T15:24:56.752Z</time></trkpt><trkpt lat="45.76689" lon="8.97141"><ele>399.0</ele><time>2026-04-03T15:25:00.752Z</time></trkpt><trkpt lat="45.7668183" lon="8.97142"><ele>399.0</ele><time>2026-04-03T15:25:04.751Z</time></trkpt><trkpt lat="45.766735" lon="8.9714417"><ele>399.0</ele><time>2026-04-03T15:25:08.753Z</time></trkpt><trkpt lat="45.76667" lon="8.97145"><ele>399.0</ele><time>2026-04-03T15:25:11.751Z</time></trkpt><trkpt lat="45.7665867" lon="8.9714483"><ele>399.0</ele><time>2026-04-03T15:25:15.751Z</time></trkpt><trkpt lat="45.7665233" lon="8.9714133"><ele>399.0</ele><time>2026-04-03T15:25:18.752Z</time></trkpt><trkpt lat="45.766445" lon="8.971405"><ele>400.5</ele><time>2026-04-03T15:25:21.751Z</time></trkpt><trkpt lat="45.7663617" lon="8.9714117"><ele>402.0</ele><time>2026-04-03T15:25:24.751Z</time></trkpt><trkpt lat="45.7662767" lon="8.9713967"><ele>403.5</ele><time>2026-04-03T15:25:27.75Z</time></trkpt><trkpt lat="45.7662117" lon="8.971375"><ele>405.0</ele><time>2026-04-03T15:25:29.751Z</time></trkpt><trkpt lat="45.76615" lon="8.9713317"><ele>406.5</ele><time>2026-04-03T15:25:31.751Z</time></trkpt><trkpt lat="45.766085" lon="8.97129"><ele>408.0</ele><time>2026-04-03T15:25:33.751Z</time></trkpt><trkpt lat="45.7660267" lon="8.971225"><ele>408.14285714285717</ele><time>2026-04-03T15:25:35.751Z</time></trkpt><trkpt lat="45.7659733" lon="8.971155"><ele>408.28571428571433</ele><time>2026-04-03T15:25:37.751Z</time></trkpt><trkpt lat="45.76591" lon="8.9711067"><ele>408.42857142857144</ele><time>2026-04-03T15:25:39.752Z</time></trkpt><trkpt lat="45.7658433" lon="8.971055"><ele>408.57142857142856</ele><time>2026-04-03T15:25:41.751Z</time></trkpt><trkpt lat="45.7657833" lon="8.971"><ele>408.7142857142857</ele><time>2026-04-03T15:25:43.752Z</time></trkpt><trkpt lat="45.76572" lon="8.9709467"><ele>408.85714285714283</ele><time>2026-04-03T15:25:45.753Z</time></trkpt><trkpt lat="45.76566" lon="8.9708833"><ele>409.0</ele><time>2026-04-03T15:25:47.752Z</time></trkpt><trkpt lat="45.76562" lon="8.9707783"><ele>409.1666666666667</ele><time>2026-04-03T15:25:49.752Z</time></trkpt><trkpt lat="45.7656067" lon="8.9706733"><ele>409.33333333333337</ele><time>2026-04-03T15:25:51.752Z</time></trkpt><trkpt lat="45.765585" lon="8.9705717"><ele>409.5</ele><time>2026-04-03T15:25:53.753Z</time></trkpt><trkpt lat="45.765565" lon="8.97048"><ele>409.66666666666663</ele><time>2026-04-03T15:25:55.753Z</time></trkpt><trkpt lat="45.76553" lon="8.97035"><ele>409.8333333333333</ele><time>2026-04-03T15:25:58.752Z</time></trkpt><trkpt lat="45.765505" lon="8.9702433"><ele>410.0</ele><time>2026-04-03T15:26:00.753Z</time></trkpt><trkpt lat="45.76548" lon="8.9701183"><ele>409.8</ele><time>2026-04-03T15:26:02.753Z</time></trkpt><trkpt lat="45.7654617" lon="8.9700117"><ele>409.6</ele><time>2026-04-03T15:26:04.753Z</time></trkpt><trkpt lat="45.76542" lon="8.969885"><ele>409.4</ele><time>2026-04-03T15:26:06.752Z</time></trkpt><trkpt lat="45.7653683" lon="8.96977"><ele>409.2</ele><time>2026-04-03T15:26:08.753Z</time></trkpt><trkpt lat="45.7653033" lon="8.9696617"><ele>409.0</ele><time>2026-04-03T15:26:10.751Z</time></trkpt><trkpt lat="45.7652433" lon="8.96958"><ele>409.00000000000006</ele><time>2026-04-03T15:26:12.751Z</time></trkpt><trkpt lat="45.7651867" lon="8.9695083"><ele>409.0</ele><time>2026-04-03T15:26:14.751Z</time></trkpt><trkpt lat="45.76512" lon="8.96943"><ele>409.0</ele><time>2026-04-03T15:26:16.75Z</time></trkpt><trkpt lat="45.7650517" lon="8.9693617"><ele>409.0</ele><time>2026-04-03T15:26:18.751Z</time></trkpt><trkpt lat="45.7649867" lon="8.9693067"><ele>409.00000000000006</ele><time>2026-04-03T15:26:20.75Z</time></trkpt><trkpt lat="45.76493" lon="8.96925"><ele>409.0</ele><time>2026-04-03T15:26:22.751Z</time></trkpt><trkpt lat="45.764865" lon="8.96917"><ele>407.4</ele><time>2026-04-03T15:26:24.751Z</time></trkpt><trkpt lat="45.764795" lon="8.96907"><ele>405.79999999999995</ele><time>2026-04-03T15:26:26.751Z</time></trkpt><trkpt lat="45.7647333" lon="8.9689633"><ele>404.20000000000005</ele><time>2026-04-03T15:26:28.753Z</time></trkpt><trkpt lat="45.76468" lon="8.9688583"><ele>402.6</ele><time>2026-04-03T15:26:30.752Z</time></trkpt><trkpt lat="45.76464" lon="8.96873"><ele>401.0</ele><time>2026-04-03T15:26:32.754Z</time></trkpt><trkpt lat="45.7645967" lon="8.96861"><ele>400.99999999999994</ele><time>2026-04-03T15:26:34.754Z</time></trkpt><trkpt lat="45.7645417" lon="8.9684967"><ele>401.0</ele><time>2026-04-03T15:26:36.751Z</time></trkpt><trkpt lat="45.7644833" lon="8.9684017"><ele>401.0</ele><time>2026-04-03T15:26:38.752Z</time></trkpt><trkpt lat="45.76444" lon="8.9683233"><ele>401.0</ele><time>2026-04-03T15:26:40.751Z</time></trkpt><trkpt lat="45.7643967" lon="8.96825"><ele>400.99999999999994</ele><time>2026-04-03T15:26:42.751Z</time></trkpt><trkpt lat="45.76432" lon="8.968265"><ele>401.0</ele><time>2026-04-03T15:26:45.751Z</time></trkpt><trkpt lat="45.764255" lon="8.968315"><ele>400.8333333333333</ele><time>2026-04-03T15:26:48.751Z</time></trkpt><trkpt lat="45.7641867" lon="8.9683233"><ele>400.66666666666663</ele><time>2026-04-03T15:26:51.752Z</time></trkpt><trkpt lat="45.76412" lon="8.9683733"><ele>400.5</ele><time>2026-04-03T15:26:54.753Z</time></trkpt><trkpt lat="45.764045" lon="8.9684183"><ele>400.33333333333337</ele><time>2026-04-03T15:26:57.753Z</time></trkpt><trkpt lat="45.7639783" lon="8.968455"><ele>400.1666666666667</ele><time>2026-04-03T15:26:59.753Z</time></trkpt><trkpt lat="45.7639" lon="8.96851"><ele>400.0</ele><time>2026-04-03T15:27:02.752Z</time></trkpt><trkpt lat="45.76385" lon="8.968575"><ele>400.00000000000006</ele><time>2026-04-03T15:27:05.753Z</time></trkpt><trkpt lat="45.7637917" lon="8.9686383"><ele>400.0</ele><time>2026-04-03T15:27:08.752Z</time></trkpt><trkpt lat="45.7637483" lon="8.9687067"><ele>400.0</ele><time>2026-04-03T15:27:11.751Z</time></trkpt><trkpt lat="45.76369" lon="8.9687683"><ele>400.0</ele><time>2026-04-03T15:27:14.752Z</time></trkpt><trkpt lat="45.7636267" lon="8.96881"><ele>400.00000000000006</ele><time>2026-04-03T15:27:18.753Z</time></trkpt><trkpt lat="45.7635417" lon="8.9688467"><ele>400.0</ele><time>2026-04-03T15:27:22.751Z</time></trkpt><trkpt lat="45.76345" lon="8.968885"><ele>400.33333333333337</ele><time>2026-04-03T15:27:24.752Z</time></trkpt><trkpt lat="45.7633583" lon="8.968945"><ele>400.6666666666667</ele><time>2026-04-03T15:27:26.752Z</time></trkpt><trkpt lat="45.76329" lon="8.9690117"><ele>401.0</ele><time>2026-04-03T15:27:28.752Z</time></trkpt><trkpt lat="45.763235" lon="8.969065"><ele>401.33333333333337</ele><time>2026-04-03T15:27:30.752Z</time></trkpt><trkpt lat="45.7631517" lon="8.969125"><ele>401.6666666666667</ele><time>2026-04-03T15:27:32.751Z</time></trkpt><trkpt lat="45.7630883" lon="8.969175"><ele>402.0</ele><time>2026-04-03T15:27:34.75Z</time></trkpt><trkpt lat="45.7629983" lon="8.969195"><ele>400.5</ele><time>2026-04-03T15:27:37.752Z</time></trkpt><trkpt lat="45.7629217" lon="8.9691817"><ele>399.0</ele><time>2026-04-03T15:27:39.751Z</time></trkpt><trkpt lat="45.762835" lon="8.9691833"><ele>397.5</ele><time>2026-04-03T15:27:41.752Z</time></trkpt><trkpt lat="45.7627583" lon="8.9691883"><ele>396.0</ele><time>2026-04-03T15:27:43.753Z</time></trkpt><trkpt lat="45.762685" lon="8.9691867"><ele>394.5</ele><time>2026-04-03T15:27:46.752Z</time></trkpt><trkpt lat="45.762625" lon="8.9692367"><ele>393.0</ele><time>2026-04-03T15:27:49.753Z</time></trkpt><trkpt lat="45.762565" lon="8.9693183"><ele>392.3333333333333</ele><time>2026-04-03T15:27:52.752Z</time></trkpt><trkpt lat="45.762535" lon="8.9694067"><ele>391.66666666666663</ele><time>2026-04-03T15:27:54.753Z</time></trkpt><trkpt lat="45.7625017" lon="8.969515"><ele>391.0</ele><time>2026-04-03T15:27:56.753Z</time></trkpt><trkpt lat="45.7624567" lon="8.9695817"><ele>390.3333333333333</ele><time>2026-04-03T15:27:58.753Z</time></trkpt><trkpt lat="45.76241" lon="8.9696533"><ele>389.66666666666663</ele><time>2026-04-03T15:28:01.751Z</time></trkpt><trkpt lat="45.7623167" lon="8.9697233"><ele>389.0</ele><time>2026-04-03T15:28:11.751Z</time></trkpt><trkpt lat="45.762245" lon="8.9697817"><ele>389.0</ele><time>2026-04-03T15:28:17.752Z</time></trkpt><trkpt lat="45.7621783" lon="8.9697983"><ele>389.0</ele><time>2026-04-03T15:28:19.753Z</time></trkpt><trkpt lat="45.7621133" lon="8.969735"><ele>389.0</ele><time>2026-04-03T15:28:22.752Z</time></trkpt><trkpt lat="45.7620517" lon="8.9696667"><ele>389.0</ele><time>2026-04-03T15:28:26.752Z</time></trkpt><trkpt lat="45.7619917" lon="8.9696217"><ele>389.0</ele><time>2026-04-03T15:28:29.752Z</time></trkpt><trkpt lat="45.7619233" lon="8.969585"><ele>389.0</ele><time>2026-04-03T15:28:33.751Z</time></trkpt><trkpt lat="45.7618433" lon="8.9696"><ele>389.0</ele><time>2026-04-03T15:28:37.75Z</time></trkpt><trkpt lat="45.7617733" lon="8.9696167"><ele>388.2857142857143</ele><time>2026-04-03T15:28:41.751Z</time></trkpt><trkpt lat="45.76171" lon="8.9696117"><ele>387.57142857142856</ele><time>2026-04-03T15:28:45.75Z</time></trkpt><trkpt lat="45.7616333" lon="8.9696117"><ele>386.85714285714283</ele><time>2026-04-03T15:28:49.751Z</time></trkpt><trkpt lat="45.761565" lon="8.9696233"><ele>386.1428571428571</ele><time>2026-04-03T15:28:54.753Z</time></trkpt><trkpt lat="45.7615083" lon="8.969665"><ele>385.42857142857144</ele><time>2026-04-03T15:28:58.753Z</time></trkpt><trkpt lat="45.7614367" lon="8.9697183"><ele>384.71428571428567</ele><time>2026-04-03T15:29:02.75Z</time></trkpt><trkpt lat="45.7613733" lon="8.9697217"><ele>384.0</ele><time>2026-04-03T15:29:04.751Z</time></trkpt><trkpt lat="45.761295" lon="8.96973"><ele>384.0</ele><time>2026-04-03T15:29:06.751Z</time></trkpt><trkpt lat="45.7611983" lon="8.9697733"><ele>384.0</ele><time>2026-04-03T15:29:08.752Z</time></trkpt><trkpt lat="45.761085" lon="8.9698517"><ele>384.0</ele><time>2026-04-03T15:29:10.751Z</time></trkpt><trkpt lat="45.7609767" lon="8.9699267"><ele>384.0</ele><time>2026-04-03T15:29:12.751Z</time></trkpt><trkpt lat="45.7609167" lon="8.9699667"><ele>384.0</ele><time>2026-04-03T15:29:13.751Z</time></trkpt><trkpt lat="45.7608583" lon="8.9700067"><ele>383.5</ele><time>2026-04-03T15:29:14.752Z</time></trkpt><trkpt lat="45.7607967" lon="8.97003"><ele>383.0</ele><time>2026-04-03T15:29:15.751Z</time></trkpt><trkpt lat="45.7607333" lon="8.9700417"><ele>382.5</ele><time>2026-04-03T15:29:16.753Z</time></trkpt><trkpt lat="45.76067" lon="8.9700467"><ele>382.0</ele><time>2026-04-03T15:29:17.75Z</time></trkpt><trkpt lat="45.76056" lon="8.9700483"><ele>381.5</ele><time>2026-04-03T15:29:19.752Z</time></trkpt><trkpt lat="45.7604483" lon="8.970095"><ele>381.0</ele><time>2026-04-03T15:29:21.751Z</time></trkpt><trkpt lat="45.760385" lon="8.9701083"><ele>381.0</ele><time>2026-04-03T15:29:22.751Z</time></trkpt><trkpt lat="45.7602583" lon="8.9701167"><ele>381.0</ele><time>2026-04-03T15:29:24.752Z</time></trkpt><trkpt lat="45.7601933" lon="8.97012"><ele>381.0</ele><time>2026-04-03T15:29:25.752Z</time></trkpt><trkpt lat="45.760085" lon="8.9701333"><ele>381.0</ele><time>2026-04-03T15:29:27.751Z</time></trkpt><trkpt lat="45.75999" lon="8.9701467"><ele>381.0</ele><time>2026-04-03T15:29:29.751Z</time></trkpt><trkpt lat="45.7599033" lon="8.9701683"><ele>379.5</ele><time>2026-04-03T15:29:31.751Z</time></trkpt><trkpt lat="45.7598283" lon="8.9701917"><ele>378.0</ele><time>2026-04-03T15:29:33.751Z</time></trkpt><trkpt lat="45.7597567" lon="8.9702"><ele>376.5</ele><time>2026-04-03T15:29:35.752Z</time></trkpt><trkpt lat="45.7596583" lon="8.97022"><ele>375.0</ele><time>2026-04-03T15:29:38.75Z</time></trkpt><trkpt lat="45.7595783" lon="8.9702467"><ele>373.5</ele><time>2026-04-03T15:29:41.75Z</time></trkpt><trkpt lat="45.7595017" lon="8.970285"><ele>372.0</ele><time>2026-04-03T15:29:43.762Z</time></trkpt><trkpt lat="45.7594317" lon="8.9703217"><ele>372.1666666666667</ele><time>2026-04-03T15:29:45.75Z</time></trkpt><trkpt lat="45.7593417" lon="8.97032"><ele>372.3333333333333</ele><time>2026-04-03T15:29:48.75Z</time></trkpt><trkpt lat="45.7592767" lon="8.9702983"><ele>372.5</ele><time>2026-04-03T15:29:50.751Z</time></trkpt><trkpt lat="45.7592167" lon="8.970225"><ele>372.66666666666663</ele><time>2026-04-03T15:29:53.75Z</time></trkpt><trkpt lat="45.7592033" lon="8.970125"><ele>372.8333333333333</ele><time>2026-04-03T15:29:59.752Z</time></trkpt><trkpt lat="45.75925" lon="8.970025"><ele>373.0</ele><time>2026-04-03T15:30:03.752Z</time></trkpt><trkpt lat="45.7592967" lon="8.9699483"><ele>373.57142857142856</ele><time>2026-04-03T15:30:06.751Z</time></trkpt><trkpt lat="45.7592917" lon="8.9698433"><ele>374.14285714285717</ele><time>2026-04-03T15:30:10.751Z</time></trkpt><trkpt lat="45.7592483" lon="8.969765"><ele>374.71428571428567</ele><time>2026-04-03T15:30:24.752Z</time></trkpt><trkpt lat="45.7592267" lon="8.96966"><ele>375.2857142857143</ele><time>2026-04-03T15:30:28.75Z</time></trkpt><trkpt lat="45.759285" lon="8.969605"><ele>375.85714285714283</ele><time>2026-04-03T15:30:32.754Z</time></trkpt><trkpt lat="45.7593667" lon="8.9695967"><ele>376.4285714285714</ele><time>2026-04-03T15:30:36.753Z</time></trkpt><trkpt lat="45.7594317" lon="8.9695867"><ele>377.0</ele><time>2026-04-03T15:30:39.752Z</time></trkpt><trkpt lat="45.7595067" lon="8.9695767"><ele>377.5</ele><time>2026-04-03T15:30:43.751Z</time></trkpt><trkpt lat="45.7595967" lon="8.96956"><ele>378.0</ele><time>2026-04-03T15:30:47.75Z</time></trkpt><trkpt lat="45.7596667" lon="8.9695533"><ele>378.5</ele><time>2026-04-03T15:30:51.75Z</time></trkpt><trkpt lat="45.75976" lon="8.9695417"><ele>379.0</ele><time>2026-04-03T15:30:58.75Z</time></trkpt><trkpt lat="45.7598333" lon="8.9694967"><ele>379.5</ele><time>2026-04-03T15:31:02.753Z</time></trkpt><trkpt lat="45.7599" lon="8.9694517"><ele>380.0</ele><time>2026-04-03T15:31:05.751Z</time></trkpt><trkpt lat="45.7599567" lon="8.9694"><ele>380.0</ele><time>2026-04-03T15:31:08.75Z</time></trkpt><trkpt lat="45.759975" lon="8.969295"><ele>380.0</ele><time>2026-04-03T15:31:12.751Z</time></trkpt><trkpt lat="45.7599583" lon="8.9691733"><ele>380.0</ele><time>2026-04-03T15:31:16.75Z</time></trkpt><trkpt lat="45.759945" lon="8.969075"><ele>380.0</ele><time>2026-04-03T15:31:19.752Z</time></trkpt><trkpt lat="45.7599267" lon="8.9689833"><ele>380.0</ele><time>2026-04-03T15:31:22.751Z</time></trkpt><trkpt lat="45.759905" lon="8.9688833"><ele>380.0</ele><time>2026-04-03T15:31:25.751Z</time></trkpt><trkpt lat="45.7598783" lon="8.9687683"><ele>380.2857142857143</ele><time>2026-04-03T15:31:29.751Z</time></trkpt><trkpt lat="45.7598517" lon="8.9686667"><ele>380.57142857142856</ele><time>2026-04-03T15:31:32.753Z</time></trkpt><trkpt lat="45.7598317" lon="8.9685583"><ele>380.8571428571429</ele><time>2026-04-03T15:31:35.753Z</time></trkpt><trkpt lat="45.75982" lon="8.9684583"><ele>381.1428571428571</ele><time>2026-04-03T15:31:38.751Z</time></trkpt><trkpt lat="45.7597967" lon="8.9683633"><ele>381.4285714285714</ele><time>2026-04-03T15:31:41.75Z</time></trkpt><trkpt lat="45.759775" lon="8.9682683"><ele>381.7142857142857</ele><time>2026-04-03T15:31:44.75Z</time></trkpt><trkpt lat="45.7597533" lon="8.968175"><ele>382.0</ele><time>2026-04-03T15:31:47.75Z</time></trkpt><trkpt lat="45.75972" lon="8.9680983"><ele>385.0</ele><time>2026-04-03T15:31:50.752Z</time></trkpt><trkpt lat="45.7596567" lon="8.9680683"><ele>385.0</ele><time>2026-04-03T15:31:54.752Z</time></trkpt><trkpt lat="45.7595833" lon="8.9681117"><ele>385.0</ele><time>2026-04-03T15:31:57.751Z</time></trkpt><trkpt lat="45.759525" lon="8.96815"><ele>385.0</ele><time>2026-04-03T15:31:59.749Z</time></trkpt><trkpt lat="45.759525" lon="8.9682533"><ele>385.0</ele><time>2026-04-03T15:32:03.751Z</time></trkpt></trkseg></trk></gpx>